[[{"header":{"parameterUnit":"m.s-1","parameterCategory":1,"la1":31.0,"la2":29.5877,"lo1":-88.7671,"lo2":-86.6584,"dy":0.0162,"dx":0.0185,"nx":115,"ny":88,"refTime":"2024-11-26T12:00:00:Z","depth":0,"parameterNumber":2,"parameterNumberName":"U-component_of_WINDS"},"data":[0.0,0.0,0.0,0.0,0.0,0.0,0.0,0.0,0.0,0.0,0.0,0.0,0.0,0.0,0.0,0.0,0.0,0.0,0.0,0.0,0.0,0.0,0.0,0.0,0.0,0.0,0.0,0.0,0.0,0.0,0.0,0.0,0.0,0.0,0.0,0.0,0.0,0.0,0.0,0.0,0.0,0.0,0.0,0.0,0.0,0.0,0.0,0.0,0.0,0.0,0.0,0.0,0.0,0.0,0.0,0.0,0.0,0.0,0.0,0.0,0.0,0.0,0.0,0.0,0.0,0.0,0.0,0.0,0.0,0.0,0.0,0.0,0.0,0.0,0.0,0.0,0.0,0.0,0.0,0.0,0.0,0.0,0.0,0.0,0.0,0.0,0.0,0.0,0.0,0.0,0.0,0.0,0.0,0.0,0.0,0.0,0.0,0.0,0.0,0.0,0.0,0.0,0.0,0.0,0.0,0.0,0.0,0.0,0.0,0.0,0.0,0.0,0.0,0.0,0.0,0.0,0.0,0.0,0.0,0.0,0.0,0.0,0.0,0.0,0.0,0.0,0.0,0.0,0.0,0.0,0.0,0.0,0.0,0.0,0.0,0.0,0.0,0.0,0.0,0.0,0.0,0.0,0.0,0.0,0.0,0.0,0.0,0.0,0.0,0.0,0.0,0.0,0.0,0.0,0.0,0.0,0.0,0.0,0.0,0.0,0.0,0.0,0.0,0.0,0.0,0.0,0.0,0.0,0.0,0.0,0.0,0.0,0.0,0.0,0.0,0.0,0.0,0.0,0.0,0.0,0.0,0.0,0.0,0.0,0.0,0.0,0.0,0.0,0.0,0.0,0.0,0.0,0.0,0.0,0.0,0.0,0.0,0.0,0.0,0.0,0.0,0.0,0.0,0.0,0.0,0.0,0.0,0.0,0.0,0.0,0.0,0.0,0.0,0.0,0.0,0.0,0.0,0.0,0.0,0.0,0.0,0.0,0.0,0.0,0.0,0.0,0.0,0.0,0.0,0.0,0.0,0.0,0.0,0.0,0.0,0.0,0.0,0.0,0.0,0.0,0.0,0.0,0.0,0.0,0.0,0.0,0.0,0.0,0.0,0.0,0.0,0.0,0.0,0.0,0.0,0.0,0.0,0.0,0.0,0.0,0.0,0.0,0.0,0.0,0.0,0.0,0.0,0.0,0.0,0.0,0.0,0.0,0.0,0.0,0.0,0.0,0.0,0.0,0.0,0.0,0.0,0.0,0.0,0.0,0.0,0.0,0.0,0.0,0.0,0.0,0.0,0.0,0.0,0.0,0.0,0.0,0.0,0.0,0.0,0.0,0.0,0.0,0.0,0.0,0.0,0.0,0.0,0.0,0.0,0.0,0.0,0.0,0.0,0.0,0.0,0.0,0.0,0.0,0.0,0.0,0.0,0.0,0.0,0.0,0.0,0.0,0.0,0.0,0.0,0.0,0.0,0.0,0.0,0.0,0.0,0.0,0.0,0.0,0.0,0.0,0.0,0.0,0.0,0.0,0.0,0.0,0.0,0.0,0.0,0.0,0.0,0.0,0.0,0.0,0.0,0.0,0.0,0.0,0.0,0.0,0.0,0.0,0.0,0.0,0.0,0.0,0.0,0.0,0.0,0.0,0.0,0.0,0.0,0.0,0.0,0.0,0.0,0.0,0.0,0.0,0.0,0.0,0.0,0.0,0.0,0.0,0.0,0.0,0.0,0.0,0.0,0.0,0.0,0.0,0.0,0.0,0.0,0.0,0.0,0.0,0.0,0.0,0.0,0.0,0.0,0.0,0.0,0.0,0.0,0.0,0.0,0.0,0.0,0.0,0.0,0.0,0.0,0.0,0.0,0.0,0.0,0.0,0.0,0.0,0.0,0.0,0.0,0.0,0.0,0.0,0.0,0.0,0.0,0.0,0.0,0.0,0.0,0.0,0.0,0.0,0.0,0.0,0.0,0.0,0.0,0.0,0.0,0.0,0.0,0.0,0.0,0.0,0.0,0.0,0.0,0.0,0.0,0.0,0.0,0.0,0.0,0.0,0.0,0.0,0.0,0.0,0.0,0.0,0.0,0.0,0.0,0.0,0.0,0.0,0.0,0.0,0.0,0.0,0.0,0.0,0.0,0.0,0.0,0.0,0.0,0.0,0.0,0.0,0.0,0.0,0.0,0.0,0.0,0.0,0.0,0.0,0.0,0.0,0.0,0.0,0.0,0.0,0.0,0.0,0.0,0.0,0.0,0.0,0.0,0.0,0.0,0.0,0.0,0.0,0.0,0.0,0.0,0.0,0.0,0.0,0.0,0.0,0.0,0.0,0.0,0.0,0.0,0.0,0.0,0.0,0.0,0.0,0.0,0.0,0.0,0.0,0.0,0.0,0.0,0.0,0.0,0.0,0.0,0.0,0.0,0.0,0.0,0.0,0.0,0.0,0.0,0.0,0.0,0.0,0.0,0.0,0.0,0.0,0.0,0.0,0.0,0.0,0.0,0.0,0.0,0.0,0.0,0.0,0.0,0.0,0.0,0.0,0.0,0.0,0.0,0.0,0.0,0.0,0.0,0.0,0.0,0.0,0.0,0.0,0.0,0.0,0.0,0.0,0.0,0.0,0.0,0.0,0.0,0.0,0.0,0.0,0.0,0.0,0.0,0.0,0.0,0.0,0.0,0.0,0.0,0.0,0.0,0.0,0.0,0.0,0.0,0.0,0.0,0.0,0.0,0.0,0.0,0.0,0.0,0.0,0.0,0.0,0.0,0.0,0.0,0.0,0.0,0.0,0.0,0.0,0.0,0.0,0.0,0.0,0.0,0.0,0.0,0.0,0.0,0.0,0.0,0.0,0.0,0.0,0.0,0.0,0.0,0.0,0.0,0.0,0.0,0.0,0.0,0.0,0.0,0.0,0.0,0.0,0.0,0.0,0.0,0.0,0.0,0.0,0.0,0.0,0.0,0.0,0.0,0.0,0.0,0.0,0.0,0.0,0.0,0.0,0.0,0.0,0.0,0.0,0.0,0.0,0.0,0.0,0.0,0.0,0.0,0.0,0.0,0.0,0.0,0.0,0.0,0.0,0.0,0.0,0.0,0.0,0.0,0.0,0.0,0.0,0.0,0.0,0.0,0.0,0.0,0.0,0.0,0.0,0.0,0.0,0.0,0.0,0.0,0.0,0.0,0.0,0.0,0.0,0.0,0.0,0.0,0.0,0.0,0.0,0.0,0.0,0.0,0.0,0.0,0.0,0.0,0.0,0.0,0.0,0.0,0.0,0.0,0.0,0.0,0.0,0.0,0.0,0.0,0.0,0.0,0.0,0.0,0.0,0.0,0.0,0.0,0.0,0.0,0.0,0.0,0.0,0.0,0.0,0.0,0.0,0.0,0.0,0.0,0.0,0.0,0.0,0.0,0.0,0.0,0.0,0.0,0.0,0.0,0.0,0.0,0.0,0.0,0.0,0.0,0.0,0.0,0.0,0.0,0.0,0.0,0.0,0.0,0.0,0.0,0.0,0.0,0.0,0.0,0.0,0.0,0.0,0.0,0.0,0.0,0.0,0.0,0.0,0.0,0.0,0.0,0.0,0.0,0.0,0.0,0.0,0.0,0.0,0.0,0.0,0.0,0.0,0.0,0.0,0.0,0.0,0.0,0.0,0.0,0.0,0.0,0.0,0.0,0.0,0.0,0.0,0.0,0.0,0.0,0.0,0.0,0.0,0.0,0.0,0.0,0.0,0.0,0.0,0.0,0.0,0.0,0.0,0.0,0.0,0.0,0.0,0.0,0.0,0.0,0.0,0.0,0.0,0.0,0.0,0.0,0.0,0.0,0.0,0.0,0.0,0.0,0.0,0.0,0.0,0.0,0.0,0.0,0.0,0.0,0.0,0.0,0.0,0.0,0.0,0.0,0.0,0.0,0.0,0.0,0.0,0.0,0.0,0.0,0.0,0.0,0.0,0.0,0.0,0.0,0.0,0.0,0.0,0.0,0.0,0.0,0.0,0.0,0.0,0.0,0.0,0.0,0.0,0.0,0.0,0.0,0.0,0.0,0.0,0.0,0.0,0.0,0.0,0.0,0.0,0.0,0.0,0.0,0.0,0.0,0.0,0.0,0.0,0.0,0.0,0.0,0.0,0.0,0.0,0.0,0.0,0.0,0.0,0.0,0.0,0.0,0.0,0.0,0.0,0.0,0.0,0.0,0.0,0.0,0.0,0.0,0.0,0.0,0.0,0.0,0.0,0.0,0.0,0.0,0.0,0.0,0.0,0.0,0.0,0.0,0.0,2.1812,0.0,0.0,0.0,0.0,0.0,0.0,0.0,0.0,0.0,0.0,0.0,0.0,0.0,0.0,0.0,0.0,0.0,0.0,0.0,0.0,0.0,0.0,0.0,0.0,0.0,0.0,0.0,0.0,0.0,0.0,0.0,0.0,0.0,0.0,0.0,0.0,0.0,0.0,0.0,0.0,0.0,0.0,0.0,0.0,0.0,0.0,0.0,0.0,0.0,0.0,0.0,0.0,0.0,0.0,0.0,0.0,0.0,0.0,0.0,0.0,0.0,0.0,0.0,0.0,0.0,0.0,0.0,0.0,0.0,0.0,0.0,0.0,0.0,0.0,0.0,0.0,0.0,0.0,0.0,0.0,0.0,0.0,0.0,0.0,0.0,0.0,0.0,0.0,0.0,0.0,0.0,0.0,0.0,0.0,0.0,0.0,0.0,0.0,0.0,0.0,0.0,0.0,0.0,0.0,0.0,0.0,0.0,0.0,0.0,0.0,2.1846,2.1801,2.1846,2.1882,2.1783,0.0,0.0,0.0,0.0,0.0,0.0,0.0,0.0,0.0,0.0,0.0,0.0,0.0,0.0,0.0,0.0,0.0,0.0,0.0,0.0,0.0,0.0,0.0,0.0,0.0,0.0,0.0,0.0,0.0,0.0,0.0,0.0,0.0,0.0,0.0,0.0,0.0,0.0,0.0,0.0,0.0,0.0,0.0,0.0,0.0,0.0,0.0,0.0,0.0,0.0,0.0,0.0,0.0,0.0,0.0,0.0,0.0,0.0,0.0,0.0,0.0,0.0,0.0,0.0,0.0,0.0,0.0,0.0,0.0,0.0,0.0,0.0,0.0,0.0,0.0,0.0,0.0,0.0,0.0,0.0,0.0,0.0,0.0,0.0,0.0,0.0,0.0,0.0,0.0,0.0,0.0,0.0,0.0,0.0,0.0,0.0,0.0,0.0,0.0,0.0,0.0,0.0,0.0,0.0,0.0,0.0,0.0,0.0,0.0,0.0,0.0,0.0,2.2563,2.2534,2.2526,0.0,0.0,0.0,0.0,0.0,0.0,0.0,0.0,0.0,0.0,0.0,0.0,0.0,0.0,0.0,0.0,0.0,0.0,0.0,0.0,0.0,0.0,0.0,0.0,0.0,0.0,0.0,0.0,0.0,0.0,0.0,0.0,0.0,0.0,0.0,0.0,0.0,0.0,0.0,0.0,0.0,0.0,0.0,0.0,0.0,0.0,0.0,0.0,0.0,0.0,0.0,0.0,0.0,0.0,0.0,0.0,0.0,0.0,0.0,0.0,0.0,0.0,0.0,0.0,0.0,0.0,0.0,0.0,0.0,0.0,0.0,0.0,0.0,0.0,0.0,0.0,0.0,0.0,0.0,0.0,0.0,0.0,0.0,0.0,0.0,0.0,0.0,0.0,0.0,0.0,0.0,0.0,0.0,0.0,0.0,0.0,0.0,0.0,0.0,0.0,0.0,0.0,0.0,0.0,0.0,0.0,0.0,0.0,0.0,0.0,2.2766,2.4737,2.4775,0.0,2.4812,0.0,0.0,0.0,0.0,0.0,0.0,0.0,0.0,0.0,0.0,0.0,0.0,0.0,0.0,0.0,0.0,0.0,0.0,0.0,0.0,0.0,0.0,0.0,0.0,0.0,0.0,0.0,0.0,0.0,0.0,0.0,0.0,0.0,0.0,0.0,0.0,0.0,0.0,0.0,0.0,0.0,0.0,0.0,0.0,0.0,0.0,0.0,0.0,0.0,0.0,0.0,0.0,0.0,0.0,0.0,0.0,0.0,0.0,0.0,0.0,0.0,0.0,0.0,0.0,0.0,0.0,0.0,0.0,0.0,0.0,0.0,0.0,0.0,0.0,0.0,0.0,0.0,0.0,0.0,0.0,0.0,0.0,0.0,0.0,0.0,0.0,0.0,0.0,0.0,0.0,0.0,0.0,0.0,0.0,0.0,0.0,0.0,0.0,0.0,0.0,0.0,0.0,0.0,0.0,0.0,0.0,0.0,0.0,0.0,0.0,0.0,2.5073,2.5073,2.5073,0.0,0.0,0.0,0.0,0.0,0.0,0.0,0.0,0.0,0.0,0.0,0.0,0.0,0.0,0.0,0.0,0.0,0.0,0.0,0.0,0.0,0.0,0.0,0.0,0.0,0.0,0.0,0.0,0.0,0.0,0.0,0.0,0.0,0.0,0.0,0.0,0.0,0.0,0.0,0.0,0.0,0.0,0.0,0.0,0.0,0.0,0.0,0.0,0.0,0.0,0.0,0.0,0.0,0.0,0.0,0.0,0.0,0.0,0.0,0.0,0.0,0.0,0.0,0.0,0.0,0.0,0.0,0.0,0.0,0.0,0.0,0.0,0.0,0.0,0.0,0.0,0.0,0.0,0.0,0.0,0.0,0.0,0.0,0.0,0.0,0.0,0.0,0.0,0.0,0.0,0.0,0.0,0.0,0.0,0.0,0.0,0.0,0.0,0.0,0.0,0.0,0.0,0.0,0.0,0.0,0.0,0.0,0.0,0.0,0.0,2.4613,0.0,2.5971,2.6005,2.5735,2.5106,0.0,0.0,0.0,0.0,0.0,0.0,0.0,0.0,0.0,0.0,0.0,0.0,0.0,0.0,0.0,0.0,0.0,0.0,0.0,0.0,0.0,0.0,0.0,0.0,0.0,0.0,0.0,0.0,0.0,0.0,0.0,0.0,0.0,0.0,0.0,0.0,0.0,0.0,0.0,0.0,0.0,0.0,0.0,0.0,0.0,0.0,0.0,0.0,0.0,0.0,0.0,0.0,0.0,0.0,0.0,0.0,0.0,0.0,0.0,0.0,0.0,0.0,0.0,0.0,0.0,0.0,0.0,0.0,0.0,0.0,0.0,0.0,0.0,0.0,0.0,0.0,0.0,0.0,0.0,0.0,0.0,0.0,0.0,0.0,0.0,0.0,0.0,0.0,0.0,0.0,0.0,0.0,0.0,0.0,0.0,0.0,0.0,0.0,0.0,0.0,0.0,0.0,0.0,0.0,0.0,0.0,0.0,0.0,0.0,2.6066,2.6108,2.8172,2.8238,2.7277,0.0,0.0,0.0,0.0,0.0,0.0,0.0,0.0,0.0,0.0,0.0,0.0,0.0,0.0,0.0,0.0,0.0,0.0,0.0,0.0,0.0,0.0,0.0,0.0,0.0,0.0,0.0,0.0,0.0,0.0,0.0,0.0,0.0,0.0,0.0,0.0,0.0,0.0,0.0,0.0,0.0,0.0,0.0,0.0,0.0,0.0,0.0,0.0,0.0,0.0,0.0,0.0,0.0,0.0,0.0,0.0,0.0,0.0,0.0,0.0,0.0,0.0,0.0,0.0,0.0,0.0,0.0,0.0,0.0,0.0,0.0,0.0,0.0,0.0,0.0,0.0,0.0,0.0,0.0,0.0,0.0,0.0,0.0,0.0,0.0,0.0,0.0,0.0,0.0,0.0,0.0,0.0,0.0,0.0,0.0,0.0,0.0,0.0,0.0,0.0,0.0,0.0,0.0,0.0,0.0,0.0,0.0,0.0,0.0,2.4095,2.4775,2.6819,3.0163,2.7756,2.6577,0.0,0.0,0.0,0.0,0.0,0.0,0.0,0.0,0.0,0.0,0.0,0.0,0.0,0.0,0.0,0.0,0.0,0.0,0.0,0.0,0.0,0.0,0.0,0.0,0.0,0.0,0.0,0.0,0.0,0.0,0.0,0.0,0.0,0.0,0.0,0.0,0.0,0.0,0.0,0.0,0.0,0.0,0.0,0.0,0.0,0.0,0.0,0.0,0.0,0.0,0.0,0.0,0.0,0.0,0.0,0.0,0.0,0.0,0.0,0.0,0.0,0.0,0.0,0.0,0.0,0.0,0.0,0.0,0.0,0.0,0.0,0.0,0.0,0.0,0.0,0.0,0.0,0.0,0.0,0.0,0.0,0.0,0.0,0.0,0.0,0.0,0.0,0.0,0.0,0.0,0.0,0.0,0.0,0.0,0.0,0.0,0.0,0.0,0.0,0.0,0.0,0.0,0.0,0.0,0.0,0.0,0.0,0.0,0.0,2.3926,0.0,2.8309,0.0,2.7727,2.6212,0.0,0.0,0.0,0.0,0.0,0.0,0.0,0.0,0.0,0.0,0.0,0.0,0.0,0.0,0.0,0.0,0.0,0.0,0.0,0.0,0.0,0.0,0.0,0.0,0.0,0.0,0.0,0.0,0.0,0.0,0.0,0.0,0.0,0.0,0.0,0.0,0.0,0.0,0.0,0.0,0.0,0.0,0.0,0.0,0.0,0.0,0.0,0.0,0.0,0.0,0.0,0.0,0.0,0.0,0.0,0.0,0.0,0.0,0.0,0.0,0.0,0.0,0.0,0.0,0.0,0.0,0.0,0.0,0.0,0.0,0.0,0.0,0.0,0.0,0.0,0.0,0.0,0.0,0.0,0.0,0.0,0.0,0.0,0.0,0.0,0.0,0.0,0.0,0.0,0.0,0.0,0.0,0.0,0.0,0.0,0.0,0.0,0.0,0.0,0.0,0.0,0.0,0.0,0.0,0.0,0.0,0.0,0.0,2.4,2.8111,3.0262,3.0433,2.8575,2.8343,2.6287,0.0,0.0,0.0,0.0,0.0,0.0,0.0,0.0,0.0,0.0,0.0,0.0,0.0,0.0,0.0,0.0,0.0,0.0,0.0,0.0,0.0,0.0,0.0,0.0,0.0,0.0,0.0,0.0,0.0,0.0,0.0,0.0,0.0,0.0,0.0,0.0,0.0,0.0,0.0,0.0,0.0,0.0,0.0,0.0,0.0,0.0,0.0,0.0,0.0,0.0,0.0,0.0,0.0,0.0,0.0,0.0,0.0,0.0,0.0,0.0,0.0,0.0,0.0,0.0,0.0,0.0,0.0,0.0,0.0,0.0,0.0,0.0,0.0,0.0,0.0,0.0,0.0,0.0,0.0,0.0,0.0,0.0,0.0,0.0,0.0,0.0,0.0,0.0,0.0,0.0,0.0,0.0,0.0,0.0,0.0,0.0,0.0,0.0,0.0,0.0,0.0,0.0,0.0,0.0,0.0,0.0,0.0,0.0,0.0,2.6166,2.8711,3.0499,3.1227,2.7964,2.6435,0.0,0.0,0.0,0.0,0.0,0.0,0.0,0.0,0.0,0.0,0.0,0.0,0.0,0.0,0.0,0.0,0.0,0.0,0.0,0.0,0.0,0.0,0.0,0.0,0.0,0.0,0.0,0.0,0.0,0.0,0.0,0.0,0.0,0.0,0.0,0.0,0.0,0.0,0.0,0.0,0.0,0.0,0.0,0.0,0.0,0.0,0.0,0.0,0.0,0.0,0.0,0.0,0.0,0.0,0.0,0.0,0.0,0.0,0.0,0.0,0.0,0.0,0.0,0.0,0.0,0.0,0.0,0.0,0.0,0.0,0.0,0.0,0.0,0.0,0.0,0.0,0.0,0.0,0.0,0.0,0.0,0.0,0.0,0.0,0.0,0.0,0.0,0.0,0.0,0.0,0.0,0.0,0.0,0.0,0.0,0.0,0.0,0.0,0.0,0.0,0.0,0.0,0.0,0.0,0.0,0.0,0.0,0.0,0.0,2.8237,3.0807,3.2398,3.268,2.908,2.7316,2.7675,0.0,0.0,0.0,0.0,0.0,0.0,0.0,0.0,0.0,0.0,0.0,0.0,0.0,0.0,0.0,0.0,0.0,0.0,0.0,0.0,0.0,0.0,0.0,0.0,0.0,0.0,0.0,0.0,0.0,0.0,0.0,0.0,0.0,0.0,0.0,0.0,0.0,0.0,0.0,0.0,0.0,0.0,0.0,0.0,0.0,0.0,0.0,0.0,0.0,0.0,0.0,0.0,0.0,0.0,0.0,0.0,0.0,0.0,0.0,0.0,0.0,0.0,0.0,0.0,0.0,0.0,0.0,0.0,0.0,0.0,0.0,0.0,0.0,0.0,0.0,0.0,0.0,0.0,0.0,0.0,0.0,0.0,0.0,0.0,0.0,0.0,0.0,0.0,0.0,0.0,0.0,0.0,0.0,0.0,0.0,0.0,0.0,0.0,0.0,0.0,0.0,0.0,0.0,0.0,0.0,0.0,0.0,0.0,3.3094,3.578,3.5877,3.3153,3.1438,2.8994,0.0,0.0,0.0,0.0,0.0,0.0,0.0,0.0,0.0,0.0,0.0,0.0,0.0,0.0,0.0,0.0,0.0,0.0,0.0,0.0,0.0,0.0,0.0,0.0,0.0,0.0,0.0,0.0,0.0,0.0,0.0,0.0,0.0,0.0,0.0,0.0,0.0,0.0,0.0,0.0,0.0,0.0,0.0,0.0,0.0,0.0,0.0,0.0,0.0,0.0,0.0,0.0,0.0,0.0,0.0,0.0,0.0,0.0,0.0,0.0,0.0,0.0,0.0,0.0,0.0,0.0,0.0,0.0,0.0,0.0,0.0,0.0,0.0,0.0,0.0,0.0,0.0,0.0,0.0,0.0,0.0,0.0,0.0,0.0,0.0,0.0,0.0,0.0,0.0,0.0,0.0,0.0,0.0,0.0,0.0,0.0,0.0,0.0,0.0,0.0,0.0,0.0,0.0,0.0,0.0,0.0,0.0,0.0,0.0,3.4666,3.7297,3.8119,3.6821,3.3772,3.1238,0.0,0.0,0.0,0.0,0.0,0.0,0.0,0.0,0.0,0.0,0.0,0.0,0.0,0.0,0.0,0.0,0.0,0.0,0.0,0.0,0.0,0.0,0.0,0.0,0.0,0.0,0.0,0.0,0.0,0.0,0.0,0.0,0.0,0.0,0.0,0.0,0.0,0.0,0.0,0.0,0.0,0.0,0.0,0.0,0.0,0.0,0.0,0.0,0.0,0.0,0.0,0.0,0.0,0.0,0.0,0.0,0.0,0.0,0.0,0.0,0.0,0.0,0.0,0.0,0.0,0.0,0.0,0.0,0.0,0.0,0.0,0.0,0.0,0.0,0.0,0.0,0.0,0.0,0.0,0.0,0.0,0.0,0.0,0.0,0.0,0.0,0.0,0.0,0.0,0.0,0.0,0.0,0.0,0.0,0.0,0.0,0.0,0.0,0.0,0.0,0.0,0.0,0.0,0.0,0.0,0.0,0.0,0.0,3.4262,3.6163,3.8544,3.9485,3.8803,3.5768,3.2809,0.0,0.0,0.0,0.0,0.0,0.0,0.0,0.0,0.0,0.0,0.0,0.0,0.0,0.0,0.0,0.0,0.0,0.0,0.0,0.0,0.0,0.0,0.0,0.0,0.0,0.0,0.0,0.0,0.0,0.0,0.0,0.0,0.0,0.0,0.0,0.0,0.0,0.0,0.0,0.0,0.0,0.0,0.0,0.0,0.0,0.0,0.0,0.0,0.0,0.0,0.0,0.0,0.0,0.0,0.0,0.0,0.0,0.0,0.0,0.0,0.0,0.0,0.0,0.0,0.0,0.0,0.0,0.0,0.0,0.0,0.0,0.0,0.0,0.0,0.0,0.0,0.0,0.0,0.0,0.0,0.0,0.0,0.0,0.0,0.0,0.0,0.0,0.0,0.0,0.0,0.0,0.0,0.0,0.0,0.0,0.0,0.0,0.0,0.0,0.0,0.0,0.0,0.0,0.0,0.0,0.0,0.0,0.0,3.5462,3.7544,3.9478,4.0176,3.9478,3.7359,3.4073,0.0,0.0,0.0,0.0,0.0,0.0,0.0,0.0,0.0,0.0,0.0,0.0,0.0,0.0,0.0,0.0,0.0,0.0,0.0,0.0,0.0,0.0,0.0,0.0,0.0,0.0,0.0,0.0,0.0,0.0,0.0,0.0,0.0,0.0,0.0,0.0,0.0,0.0,0.0,0.0,0.0,0.0,0.0,0.0,0.0,0.0,0.0,0.0,0.0,0.0,0.0,0.0,0.0,0.0,0.0,0.0,0.0,0.0,0.0,0.0,0.0,0.0,0.0,0.0,0.0,0.0,0.0,0.0,0.0,0.0,0.0,0.0,0.0,0.0,0.0,0.0,0.0,0.0,0.0,0.0,0.0,0.0,0.0,0.0,0.0,0.0,0.0,0.0,0.0,0.0,0.0,0.0,0.0,0.0,0.0,0.0,0.0,0.0,0.0,0.0,0.0,0.0,0.0,0.0,0.0,0.0,0.0,0.0,3.7071,3.8202,3.9661,4.0103,3.9432,3.7885,3.5291,0.0,0.0,0.0,0.0,0.0,0.0,0.0,0.0,0.0,0.0,0.0,0.0,0.0,0.0,0.0,0.0,0.0,0.0,0.0,0.0,0.0,0.0,0.0,0.0,0.0,0.0,0.0,0.0,0.0,0.0,0.0,0.0,0.0,0.0,0.0,0.0,0.0,0.0,0.0,0.0,0.0,0.0,0.0,0.0,0.0,0.0,0.0,0.0,2.3429,0.0,0.0,0.0,0.0,0.0,0.0,0.0,0.0,0.0,0.0,0.0,0.0,0.0,0.0,0.0,0.0,0.0,0.0,0.0,0.0,0.0,0.0,0.0,0.0,0.0,0.0,0.0,0.0,0.0,0.0,0.0,0.0,0.0,0.0,0.0,0.0,0.0,0.0,0.0,0.0,0.0,0.0,0.0,0.0,0.0,0.0,0.0,0.0,0.0,0.0,0.0,0.0,0.0,0.0,0.0,0.0,0.0,0.0,0.0,3.8107,3.888,4.0187,4.0546,3.9876,3.8551,3.5944,0.0,0.0,0.0,0.0,0.0,0.0,0.0,0.0,0.0,0.0,0.0,0.0,0.0,0.0,0.0,0.0,0.0,0.0,0.0,0.0,0.0,0.0,0.0,0.0,0.0,0.0,0.0,0.0,0.0,0.0,0.0,0.0,0.0,0.0,0.0,0.0,0.0,0.0,0.0,0.0,0.0,0.0,0.0,0.0,0.0,0.0,0.0,0.0,0.0,0.0,0.0,0.0,0.0,0.0,0.0,0.0,0.0,0.0,0.0,0.0,0.0,0.0,0.0,0.0,0.0,0.0,0.0,0.0,0.0,0.0,0.0,0.0,0.0,0.0,0.0,0.0,0.0,0.0,0.0,0.0,0.0,0.0,0.0,0.0,0.0,0.0,0.0,0.0,0.0,0.0,0.0,0.0,0.0,0.0,0.0,0.0,0.0,0.0,0.0,0.0,0.0,0.0,0.0,0.0,0.0,0.0,0.0,3.5976,3.8781,3.9849,4.0975,4.1214,4.0556,3.9269,3.6439,3.1989,0.0,0.0,0.0,0.0,0.0,0.0,0.0,0.0,0.0,0.0,0.0,0.0,0.0,0.0,0.0,0.0,0.0,0.0,0.0,0.0,0.0,0.0,0.0,0.0,0.0,0.0,0.0,0.0,0.0,0.0,0.0,0.0,0.0,0.0,0.0,0.0,0.0,0.0,2.1823,2.4315,0.0,0.0,0.0,0.0,0.0,0.0,0.0,0.0,2.5437,0.0,0.0,0.0,0.0,0.0,0.0,0.0,0.0,0.0,0.0,0.0,0.0,0.0,0.0,0.0,0.0,0.0,0.0,0.0,0.0,0.0,0.0,0.0,0.0,0.0,0.0,0.0,0.0,0.0,0.0,0.0,0.0,0.0,0.0,0.0,0.0,0.0,0.0,0.0,0.0,0.0,0.0,0.0,0.0,0.0,0.0,0.0,0.0,0.0,0.0,0.0,0.0,0.0,0.0,0.0,0.0,3.6169,3.7135,3.896,4.1832,4.2101,4.1922,4.1254,3.9948,3.7336,3.3327,0.0,0.0,0.0,0.0,0.0,0.0,0.0,0.0,0.0,0.0,0.0,0.0,0.0,0.0,0.0,0.0,0.0,0.0,0.0,0.0,0.0,0.0,0.0,0.0,0.0,0.0,0.0,0.0,0.0,0.0,0.0,0.0,0.0,0.0,0.0,0.0,0.0,0.0,0.0,2.9113,3.0395,0.0,0.0,0.0,0.0,0.0,0.0,0.0,0.0,2.5148,0.0,0.0,0.0,0.0,0.0,0.0,0.0,0.0,0.0,0.0,0.0,0.0,0.0,0.0,0.0,0.0,0.0,0.0,0.0,0.0,0.0,0.0,0.0,0.0,0.0,0.0,0.0,0.0,0.0,0.0,0.0,0.0,0.0,0.0,0.0,0.0,0.0,0.0,0.0,0.0,0.0,0.0,0.0,0.0,0.0,0.0,0.0,0.0,0.0,0.0,0.0,0.0,0.0,0.0,0.0,3.5707,3.8242,4.0415,4.2321,4.2711,4.2402,4.1403,3.9439,3.6827,0.0,0.0,0.0,0.0,0.0,0.0,0.0,0.0,0.0,0.0,0.0,0.0,0.0,0.0,0.0,0.0,0.0,0.0,0.0,0.0,0.0,0.0,0.0,0.0,0.0,0.0,0.0,0.0,0.0,0.0,0.0,0.0,0.0,0.0,0.0,0.0,0.0,0.0,0.0,0.0,3.0135,3.1317,3.2094,0.0,0.0,0.0,0.0,0.0,0.0,2.7434,2.6614,0.0,0.0,0.0,0.0,0.0,0.0,0.0,0.0,0.0,0.0,0.0,0.0,0.0,0.0,0.0,0.0,0.0,0.0,0.0,0.0,0.0,0.0,0.0,0.0,0.0,0.0,0.0,0.0,0.0,0.0,0.0,0.0,0.0,0.0,0.0,0.0,0.0,0.0,0.0,0.0,0.0,0.0,0.0,0.0,0.0,0.0,0.0,0.0,0.0,0.0,0.0,0.0,0.0,0.0,0.0,3.5048,3.8859,4.1443,4.273,4.311,4.2681,4.1394,3.92,3.6528,0.0,0.0,0.0,0.0,0.0,0.0,0.0,0.0,0.0,0.0,0.0,0.0,0.0,0.0,0.0,0.0,0.0,0.0,0.0,0.0,0.0,0.0,0.0,0.0,0.0,0.0,0.0,0.0,0.0,0.0,0.0,0.0,0.0,0.0,0.0,0.0,0.0,0.0,0.0,0.0,0.0,3.2519,3.3795,3.1863,0.0,0.0,0.0,0.0,2.9862,2.9796,0.0,0.0,0.0,0.0,0.0,0.0,0.0,0.0,0.0,0.0,0.0,0.0,0.0,0.0,0.0,0.0,0.0,0.0,0.0,0.0,0.0,0.0,0.0,0.0,0.0,0.0,0.0,0.0,0.0,0.0,0.0,0.0,0.0,0.0,0.0,0.0,0.0,0.0,0.0,0.0,0.0,0.0,0.0,0.0,0.0,0.0,0.0,0.0,0.0,0.0,0.0,0.0,0.0,0.0,0.0,0.0,3.6806,3.8161,4.0466,4.3858,4.3569,4.2711,4.1433,4.0526,3.7704,0.0,0.0,0.0,0.0,0.0,0.0,0.0,0.0,0.0,0.0,0.0,0.0,0.0,0.0,0.0,0.0,0.0,0.0,0.0,0.0,0.0,0.0,0.0,0.0,0.0,0.0,0.0,0.0,0.0,0.0,0.0,0.0,0.0,0.0,0.0,0.0,0.0,0.0,0.0,0.0,0.0,3.6692,3.5021,3.3922,3.3265,0.0,0.0,0.0,3.4816,3.4584,0.0,0.0,0.0,0.0,0.0,0.0,0.0,0.0,0.0,0.0,0.0,0.0,0.0,0.0,0.0,0.0,0.0,0.0,0.0,0.0,0.0,0.0,0.0,0.0,0.0,0.0,0.0,0.0,0.0,0.0,0.0,0.0,0.0,0.0,0.0,0.0,0.0,0.0,0.0,0.0,0.0,0.0,0.0,0.0,0.0,0.0,0.0,0.0,0.0,0.0,0.0,0.0,0.0,0.0,0.0,3.1307,3.7216,3.9568,4.1843,4.4177,4.4027,4.309,4.1433,3.9658,3.6746,0.0,0.0,0.0,0.0,0.0,0.0,0.0,0.0,0.0,0.0,0.0,0.0,0.0,0.0,0.0,0.0,0.0,0.0,0.0,0.0,0.0,0.0,0.0,0.0,0.0,0.0,0.0,0.0,0.0,0.0,0.0,0.0,0.0,0.0,0.0,0.0,0.0,0.0,0.0,0.0,0.0,0.0,3.6714,3.5804,0.0,0.0,0.0,3.5539,3.6466,0.0,0.0,0.0,0.0,0.0,0.0,0.0,0.0,0.0,0.0,0.0,0.0,0.0,0.0,0.0,0.0,0.0,0.0,0.0,0.0,0.0,0.0,0.0,0.0,0.0,0.0,0.0,0.0,0.0,0.0,0.0,0.0,0.0,0.0,0.0,0.0,0.0,0.0,0.0,0.0,0.0,0.0,0.0,0.0,0.0,0.0,0.0,0.0,0.0,0.0,0.0,0.0,0.0,0.0,0.0,0.0,0.0,3.7823,4.1035,4.3259,4.4486,4.4366,4.3389,4.1433,3.9101,0.0,0.0,0.0,0.0,0.0,0.0,0.0,0.0,0.0,0.0,0.0,0.0,0.0,0.0,0.0,0.0,0.0,0.0,0.0,0.0,0.0,0.0,0.0,0.0,0.0,0.0,0.0,1.866,0.0,0.0,0.0,0.0,0.0,0.0,0.0,0.0,0.0,0.0,0.0,0.0,0.0,0.0,3.6049,3.7731,3.7148,3.681,0.0,0.0,3.7694,3.79,3.8255,3.7287,0.0,0.0,0.0,0.0,0.0,0.0,0.0,0.0,0.0,0.0,0.0,0.0,0.0,0.0,0.0,0.0,0.0,0.0,0.0,0.0,0.0,0.0,0.0,0.0,0.0,0.0,0.0,0.0,0.0,0.0,0.0,0.0,0.0,0.0,0.0,0.0,0.0,0.0,0.0,0.0,0.0,0.0,0.0,0.0,0.0,0.0,0.0,0.0,0.0,0.0,0.0,0.0,0.0,0.0,0.0,3.9122,4.1962,4.3928,4.5155,4.4636,4.3379,4.1454,4.0008,3.6849,0.0,0.0,0.0,0.0,0.0,0.0,0.0,0.0,0.0,0.0,0.0,0.0,0.0,0.0,0.0,0.0,0.0,0.0,0.0,0.0,0.0,0.0,0.0,0.0,0.0,0.0,0.0,0.0,0.0,0.0,0.0,0.0,0.0,0.0,0.0,0.0,0.0,0.0,0.0,0.0,0.0,3.7038,3.7233,3.7714,3.8313,0.0,0.0,3.9402,4.0057,4.1311,4.0522,3.5547,0.0,0.0,0.0,0.0,0.0,0.0,0.0,0.0,0.0,0.0,0.0,0.0,0.0,0.0,0.0,0.0,0.0,0.0,0.0,0.0,0.0,0.0,0.0,0.0,0.0,0.0,0.0,0.0,0.0,0.0,0.0,0.0,0.0,0.0,0.0,0.0,0.0,0.0,0.0,0.0,0.0,0.0,0.0,0.0,0.0,0.0,0.0,0.0,0.0,0.0,0.0,0.0,0.0,3.3433,3.8712,4.2057,4.4274,4.5244,4.5035,4.3998,4.2071,4.0696,3.7673,0.0,0.0,0.0,0.0,0.0,0.0,0.0,0.0,0.0,0.0,0.0,0.0,0.0,0.0,0.0,0.0,0.0,0.0,0.0,0.0,0.0,0.0,0.0,0.0,0.0,0.0,0.0,0.0,2.3913,2.4352,2.3884,0.0,0.0,0.0,0.0,0.0,0.0,0.0,0.0,0.0,0.0,3.7481,3.8386,3.9113,0.0,0.0,3.9984,4.0245,4.0944,4.0512,3.9077,3.6231,3.4465,0.0,0.0,0.0,0.0,0.0,0.0,0.0,0.0,0.0,0.0,0.0,0.0,0.0,0.0,0.0,0.0,0.0,0.0,0.0,0.0,0.0,0.0,0.0,0.0,0.0,0.0,0.0,0.0,0.0,0.0,0.0,0.0,0.0,0.0,0.0,0.0,0.0,0.0,0.0,0.0,0.0,0.0,0.0,0.0,0.0,0.0,0.0,0.0,0.0,0.0,0.0,0.0,3.3668,3.8454,4.2327,4.4598,4.5211,4.5482,4.4686,4.275,4.1394,3.856,0.0,0.0,0.0,0.0,0.0,0.0,0.0,0.0,0.0,0.0,0.0,0.0,0.0,0.0,0.0,0.0,0.0,0.0,0.0,0.0,0.0,0.0,0.0,0.0,0.0,0.0,0.0,0.0,2.508,2.4886,2.4176,0.0,0.0,0.0,0.0,0.0,0.0,0.0,0.0,0.0,0.0,3.7971,3.9164,3.9782,4.0091,4.0087,3.9922,4.0045,4.0793,3.9886,3.8528,3.6855,0.0,0.0,0.0,0.0,0.0,0.0,0.0,0.0,0.0,0.0,0.0,0.0,0.0,0.0,0.0,0.0,0.0,0.0,0.0,0.0,0.0,0.0,0.0,0.0,0.0,0.0,0.0,0.0,0.0,0.0,0.0,0.0,0.0,0.0,0.0,0.0,0.0,0.0,0.0,0.0,0.0,0.0,0.0,0.0,0.0,0.0,0.0,0.0,0.0,0.0,0.0,0.0,0.0,0.0,3.8745,4.2841,4.4981,4.5021,4.5836,4.5293,4.3349,4.2043,3.9397,3.5212,0.0,0.0,0.0,0.0,0.0,0.0,0.0,0.0,0.0,0.0,0.0,0.0,0.0,0.0,0.0,0.0,0.0,0.0,0.0,0.0,0.0,0.0,0.0,0.0,0.0,0.0,2.4473,2.3551,2.2699,0.0,0.0,0.0,0.0,0.0,0.0,0.0,0.0,0.0,0.0,3.6455,3.8559,3.9304,3.9427,3.9514,3.9502,3.8912,3.8745,3.9526,4.0028,3.9719,0.0,0.0,0.0,0.0,0.0,0.0,0.0,0.0,0.0,0.0,0.0,0.0,0.0,0.0,0.0,0.0,0.0,0.0,0.0,0.0,0.0,0.0,0.0,0.0,0.0,0.0,0.0,2.3723,2.2329,0.0,0.0,0.0,0.0,0.0,0.0,0.0,0.0,0.0,0.0,0.0,3.0669,3.2338,0.0,0.0,0.0,0.0,0.0,0.0,0.0,0.0,0.0,0.0,0.0,0.0,3.4664,3.8159,4.2352,4.4602,4.474,4.5443,4.5111,4.3601,4.2268,3.9156,3.4046,0.0,0.0,0.0,0.0,0.0,0.0,0.0,0.0,0.0,0.0,0.0,0.0,0.0,0.0,0.0,0.0,0.0,0.0,0.0,0.0,0.0,0.0,0.0,0.0,0.0,2.4011,0.0,0.0,0.0,0.0,0.0,0.0,0.0,0.0,0.0,0.0,0.0,3.3515,3.5813,3.7819,3.9303,3.9975,4.0436,4.0735,0.0,0.0,0.0,0.0,0.0,0.0,0.0,0.0,0.0,0.0,0.0,0.0,0.0,0.0,3.7254,3.1643,3.0548,3.0836,3.1809,0.0,0.0,0.0,0.0,0.0,0.0,0.0,0.0,0.0,0.0,0.0,0.0,0.0,0.0,0.0,0.0,2.5394,0.0,0.0,0.0,0.0,0.0,0.0,0.0,0.0,3.2832,3.4478,3.4565,3.619,3.6094,0.0,3.4266,3.1825,0.0,0.0,0.0,0.0,0.0,0.0,0.0,0.0,3.5116,3.7884,4.2094,4.4358,4.4536,4.5464,4.5449,4.4348,4.2372,3.9261,3.4932,3.3051,3.0851,0.0,0.0,0.0,0.0,0.0,0.0,0.0,0.0,0.0,0.0,0.0,0.0,0.0,0.0,0.0,0.0,0.0,0.0,0.0,0.0,0.0,0.0,0.0,2.4746,0.0,0.0,0.0,0.0,0.0,0.0,0.0,0.0,0.0,3.2132,3.3717,3.5733,3.8026,3.9143,3.9999,4.0645,0.0,0.0,0.0,0.0,0.0,0.0,0.0,3.966,4.0328,3.9409,3.8884,3.9863,4.1428,4.2423,4.2005,0.0,0.0,3.6017,3.4932,3.5205,3.6206,3.6933,3.7435,3.7683,3.8319,3.8758,0.0,0.0,0.0,0.0,0.0,0.0,0.0,0.0,2.9356,2.9363,0.0,2.8471,0.0,0.0,0.0,0.0,0.0,0.0,0.0,0.0,3.6689,3.8214,3.8291,3.8283,3.8273,3.8282,3.8784,3.7282,3.384,2.9964,0.0,0.0,0.0,0.0,0.0,0.0,3.5572,3.7937,4.2022,4.4197,4.4306,4.5705,4.616,4.5464,4.2248,3.9651,3.7901,3.5806,3.3602,3.1219,2.9389,0.0,0.0,0.0,0.0,0.0,0.0,0.0,0.0,0.0,0.0,0.0,0.0,0.0,0.0,0.0,0.0,0.0,0.0,0.0,0.0,2.6024,0.0,0.0,0.0,0.0,0.0,0.0,0.0,0.0,0.0,0.0,3.5037,3.6908,3.8939,4.0286,0.0,0.0,0.0,0.0,4.1532,4.1583,4.1553,4.1553,4.1592,4.2512,4.304,4.2551,0.0,0.0,4.1882,4.2611,4.312,4.1912,4.283,4.3489,4.3409,4.1949,4.1446,4.2704,4.1509,4.1046,4.2707,4.2567,4.2499,3.4415,0.0,0.0,0.0,0.0,3.3728,3.4785,3.6393,3.5764,3.4565,3.299,3.2642,0.0,0.0,0.0,0.0,0.0,0.0,3.4686,3.6843,3.7738,3.8992,4.0551,4.0267,3.9864,3.9401,3.9159,3.8291,3.6803,3.5154,3.2036,2.7606,0.0,0.0,0.0,0.0,3.6074,3.8065,4.0609,4.2502,4.3669,4.4145,4.4429,4.4443,4.1884,4.0251,3.9681,3.805,3.6318,3.4482,3.2077,0.0,0.0,0.0,0.0,0.0,0.0,0.0,0.0,0.0,0.0,0.0,0.0,0.0,0.0,0.0,0.0,0.0,0.0,0.0,2.5389,2.6144,2.6525,0.0,0.0,0.0,0.0,0.0,0.0,0.0,0.0,0.0,4.0647,4.0187,4.0316,0.0,0.0,4.2062,4.2661,4.317,4.3658,4.4117,0.0,0.0,0.0,4.3678,4.3579,4.4357,4.5185,4.5523,4.4984,4.5593,4.6191,4.6242,4.6602,4.701,4.732,4.5258,4.3687,4.3907,4.3877,4.3948,4.4559,4.4568,4.4536,3.7902,3.6612,3.5199,3.5314,3.6446,3.6874,3.8063,3.9705,3.9449,3.8754,3.7757,3.7264,3.5619,3.3226,3.3077,0.0,0.0,0.0,3.7115,3.8876,3.8819,3.9681,4.12,4.1015,4.07,4.0287,3.9928,3.9335,3.8554,3.7935,3.5581,3.1692,0.0,0.0,3.2666,3.516,3.7027,3.8309,4.0303,4.1688,4.2415,4.2757,4.2988,4.3087,4.1907,4.1004,4.0467,3.9748,3.8548,3.6816,3.4727,3.2236,0.0,0.0,0.0,0.0,0.0,0.0,0.0,0.0,0.0,0.0,0.0,2.3468,0.0,0.0,0.0,0.0,2.5239,2.6901,2.8211,2.8943,0.0,0.0,0.0,0.0,0.0,0.0,0.0,4.0346,4.1713,4.2781,4.3918,4.307,4.2651,4.3439,4.3319,4.3369,4.3997,0.0,4.4855,4.5255,4.5514,4.5683,4.5683,4.5234,4.5264,4.6302,4.68,4.7219,4.7489,4.7818,4.8218,4.8577,4.8708,4.8828,4.9228,4.76,4.6302,4.6302,4.6602,4.6882,4.6882,4.6882,4.6871,4.0551,4.1421,3.8539,3.7723,3.8357,3.9305,4.0017,4.0561,4.0913,4.1691,4.2636,4.1517,4.0651,3.992,3.8842,0.0,0.0,3.856,3.965,4.0048,3.9899,4.0222,4.0892,4.0825,4.0802,4.0817,4.0802,4.0343,3.9405,3.8938,3.8039,3.6804,3.6544,3.5938,3.518,3.6988,3.8198,3.8624,4.0562,4.1351,4.097,4.1609,4.193,4.19,4.2067,4.1641,4.0664,4.0772,4.0107,3.8376,3.7179,3.4901,3.127,0.0,0.0,0.0,0.0,0.0,0.0,0.0,0.0,0.0,0.0,0.0,0.0,0.0,0.0,0.0,2.9171,0.0,3.2632,3.3335,0.0,0.0,0.0,3.3872,3.605,3.8327,4.0309,4.1693,0.0,0.0,0.0,0.0,4.5603,4.5614,4.4965,4.4696,4.5304,4.5424,4.5464,4.5544,4.5971,4.639,4.651,4.6969,4.7519,4.8128,4.8379,4.8547,4.9048,4.9198,4.9258,4.9366,4.9366,4.9426,4.9438,4.9396,4.9456,4.9337,4.9258,4.9198,4.9108,4.9067,4.9048,4.1091,4.1321,4.058,4.0484,4.0823,4.1078,4.1015,4.0811,4.0885,4.0833,4.0629,4.0321,3.9832,3.9288,3.9426,3.93,3.9024,3.928,4.0128,4.1209,3.9807,3.9851,4.106,4.0344,3.9993,3.9993,3.9993,3.9867,3.9639,3.95,3.9082,3.8412,3.8686,3.7957,3.6307,3.7402,3.8276,3.8828,3.933,3.9901,4.0525,4.1104,4.1762,4.2524,4.0989,4.0499,4.1181,3.9991,3.9183,3.8948,3.7756,3.6244,3.4342,3.0668,0.0,0.0,0.0,0.0,0.0,0.0,0.0,0.0,0.0,2.8608,2.3903,0.0,2.9544,0.0,3.1974,3.3881,3.4703,3.537,0.0,0.0,3.7935,3.8972,4.2562,4.2932,4.3677,4.5672,4.6901,4.778,4.83,4.8349,4.8349,4.8319,4.6879,4.5882,4.6061,4.652,4.683,4.682,4.6969,4.7238,4.7728,4.8368,4.8828,4.9037,4.9067,4.9127,4.9258,4.9288,4.9456,4.9871,4.9979,5.017,5.0619,5.075,5.075,5.069,4.9984,4.9288,4.9288,4.9318,4.9318,4.1932,4.1731,4.1943,4.2021,4.1924,4.2152,4.2071,4.1813,4.2252,4.2256,4.1908,4.1896,4.1471,4.0797,4.1558,4.1404,4.0567,4.0818,4.1181,4.1507,4.0478,4.0436,4.1222,4.0662,4.0412,4.0412,4.0412,4.0412,4.0412,4.0412,4.0261,3.996,4.0261,3.9714,3.8402,3.8616,3.8931,3.9233,3.9007,3.9285,4.0054,3.9899,4.0043,4.0606,3.9657,3.9091,3.9092,3.8558,3.8122,3.7825,3.7157,3.6367,3.5395,3.2637,3.0426,0.0,0.0,0.0,0.0,0.0,0.0,0.0,0.0,0.0,0.0,0.0,3.2459,0.0,0.0,0.0,3.8323,3.9247,4.0547,4.2217,4.2268,4.3258,4.5991,4.5951,4.6321,4.784,4.8239,4.8584,4.9055,4.9017,4.8983,4.9114,4.816,4.7496,4.7635,4.7978,4.8188,4.8188,4.8188,4.8308,4.8708,4.9048,4.9396,4.9643,4.9703,4.9804,5.0103,5.0133,5.0272,5.0578,5.0637,5.0757,5.1116,5.1445,5.1636,5.1588,5.1361,5.0863,5.0253,5.0133,5.0163,4.2727,4.235,4.2799,4.2752,4.2318,4.274,4.2839,4.2749,4.3629,4.4026,4.3999,4.3999,4.3514,4.2762,4.3617,4.3009,4.1383,4.2276,4.2196,4.1316,4.1289,4.1289,4.1289,4.1289,4.1289,4.1289,4.1289,4.1289,4.1289,4.1289,4.1289,4.1289,4.1289,4.1063,4.06,4.0136,3.9848,3.9697,3.9245,3.9245,3.9672,3.8668,3.8078,3.8027,3.82,3.7581,3.611,3.6876,3.705,3.6305,3.6371,3.6258,3.5882,3.4576,3.3322,0.0,3.091,0.0,0.0,0.0,0.0,0.0,0.0,0.0,0.0,3.441,3.5765,3.7184,3.9341,4.1122,4.2248,4.3612,4.466,4.5192,4.5873,4.6627,4.7512,4.7876,4.8278,4.8912,4.8847,4.886,4.9115,4.8906,4.886,4.9145,4.912,4.9111,4.9369,4.9291,4.9187,4.9288,4.9378,4.9355,4.9415,4.9452,4.9717,5.0161,5.0257,5.0501,5.0968,5.1134,5.1187,5.1187,5.1265,5.1337,5.1337,5.1887,5.2306,5.2336,5.2641,5.2587,5.1744,5.1457,5.1445,4.2939,4.285,4.2964,4.2939,4.2866,4.2946,4.2458,4.1624,4.1799,4.1878,4.1878,4.1892,4.1797,4.1624,4.1799,4.1677,4.1316,4.1503,4.149,4.1289,4.1289,4.1289,4.1289,4.1289,4.1289,4.1289,4.1289,4.1289,4.1289,4.1289,4.1289,4.1289,4.1289,4.1264,0.0,0.0,0.0,0.0,3.9584,3.9609,3.9685,3.9057,3.8504,3.799,3.6762,0.0,3.54,3.5568,3.6076,3.6905,3.7739,0.0,0.0,0.0,0.0,0.0,0.0,0.0,0.0,0.0,0.0,0.0,3.7455,3.6475,3.5465,3.832,4.0213,4.0057,4.2275,4.3838,4.4093,4.5765,4.6897,4.7022,4.7424,4.7889,4.8262,4.8652,4.9034,4.935,4.9817,5.0129,5.0165,5.0141,5.0129,5.0165,5.0177,5.023,5.026,4.9761,4.9337,4.9318,4.9722,5.0028,5.0039,5.0277,5.0447,5.0673,5.0685,5.0733,5.0864,5.1047,5.1206,5.1224,5.1624,5.1995,5.1983,5.2558,5.2982,5.3007,5.2944,5.287,5.2839,5.2827,5.2767,4.3388,0.0,4.3115,4.3,0.0,4.3,4.2674,4.2144,4.2144,4.2144,4.2144,4.2119,4.2158,4.2158,4.2144,4.2144,4.2144,4.2144,4.2144,4.2119,4.2144,4.2158,4.2144,4.2133,4.2144,4.2144,4.2119,4.2119,4.2144,4.2158,4.2119,4.2158,4.2144,4.2007,4.1731,4.1453,4.0901,4.0099,4.0086,3.9973,3.9685,3.917,3.8492,3.7625,0.0,0.0,0.0,0.0,0.0,0.0,0.0,0.0,0.0,0.0,0.0,3.7773,3.7274,3.7222,3.7835,3.8214,3.939,4.1639,4.2387,4.1795,3.969,4.1563,4.3071,4.3674,4.5079,4.6006,4.6318,4.725,4.7954,4.8265,4.8477,4.884,4.9472,4.9852,5.0222,5.0642,5.0908,5.1076,5.1236,5.0845,5.0791,5.1136,5.0942,5.0891,5.1267,5.0644,5.0092,5.0207,5.0238,5.0417,5.0634,5.0608,5.071,5.0775,5.0716,5.0674,5.0662,5.0769,5.0929,5.1226,5.1583,5.1892,5.2266,5.2842,5.33,5.33,5.3188,5.3138,5.3216,5.2778,5.2283,4.394,4.389,4.3391,4.3126,4.314,4.3039,4.3,4.3,0.0,0.0,0.0,4.3,4.3,4.3,4.3,4.3,4.3,4.3,4.3,4.3,4.3,4.3,4.3,4.3,4.3,4.3,4.3,4.3,4.3,4.3,4.3,4.3,4.3,4.2788,4.235,4.1843,4.1327,4.0814,4.0713,4.0387,3.9848,3.9308,3.8492,3.7386,3.6733,3.5703,3.4237,3.4274,3.4473,3.4818,3.5017,3.6034,3.8044,3.8661,3.9629,4.1202,4.1843,4.2368,4.2884,4.2923,4.3427,4.46,4.6087,4.6114,4.4059,4.4367,4.5314,4.687,4.7276,4.7712,4.8325,4.8384,4.8658,4.9301,4.9295,4.9574,5.0352,5.0667,5.0878,5.1462,5.1258,5.1353,5.1408,5.0888,5.0743,5.1308,5.0978,5.1052,5.1704,5.1401,5.1107,5.1089,5.103,5.1023,5.1244,5.1112,5.0861,5.104,5.0932,5.0765,5.0765,5.083,5.1019,5.1527,5.1579,5.1839,5.2328,5.2808,5.3196,5.3238,5.3175,5.315,5.3061,5.2158,5.141,4.4489,4.4453,4.3915,4.3704,4.3664,4.3176,4.3,4.3,4.3,4.3,4.3,4.3,4.3,4.3,4.3,4.3,4.3,4.3,4.3,0.0,4.3,4.3,4.3,4.3,4.3,4.3,4.3,4.3,4.3,4.3,4.3,4.3,4.3,4.2964,4.2889,4.2799,4.2498,4.1959,4.1441,4.0926,4.0387,3.9886,3.9057,3.7914,3.6959,3.6068,3.5319,3.5782,3.6435,3.726,3.817,3.8975,3.9539,3.9694,4.048,4.2058,4.2299,4.3452,4.5921,4.6133,4.6453,4.7184,4.7532,4.7271,4.6429,4.6893,4.7387,4.7677,4.8166,4.8776,4.9386,4.9439,4.9667,5.0265,4.9945,4.9701,4.9896,4.995,5.0045,5.0219,4.9979,5.0071,5.0236,5.0037,5.0025,5.0062,5.0331,5.013,5.0637,5.1469,5.1852,5.1576,5.1835,5.2105,5.1943,5.1956,5.1661,5.1824,5.1707,5.157,5.1628,5.1689,5.1859,5.2203,5.2107,5.2178,5.2355,5.2459,5.2569,5.2531,5.2394,5.221,5.2197,5.1433,5.1008,4.5095,4.502,4.4493,4.4227,4.4177,4.3664,4.3277,4.3,4.3,4.3,4.3,4.3,4.3,4.3,4.3,4.3,4.3,4.3,4.3,4.3,4.3,4.3,4.3,4.3,4.3,4.3025,4.3302,4.3438,4.3413,4.3427,4.3438,4.3402,4.3151,4.3,4.3,4.3,4.2889,4.2637,4.2071,4.1505,4.0951,4.07,4.0186,3.9396,3.8881,3.8216,3.7387,3.7625,3.7971,3.8395,3.883,3.9567,4.0475,4.0889,4.1653,4.2892,4.3305,4.4331,4.6287,4.7296,4.7961,4.8252,4.8054,4.8051,4.8356,4.8304,4.842,4.8781,4.91,4.9378,4.9681,4.9722,4.9809,5.0129,4.9867,4.988,5.0158,5.0245,5.0361,5.0668,5.0714,5.0743,5.0743,5.0436,5.0407,5.0627,5.0714,5.066,5.0463,5.1262,5.1712,5.1081,5.0947,5.1057,5.1317,5.1323,5.1349,5.1412,5.1366,5.1437,5.1628,5.1479,5.1295,5.1792,5.1716,5.1616,5.185,5.198,5.195,5.1921,5.1566,5.135,5.1208,5.0684,5.0365,4.5688,4.5638,4.507,4.4715,4.4564,4.4152,4.3678,4.3201,4.319,4.3101,4.3014,4.3,4.3,4.3,4.3,4.3,4.3,4.3,4.3,4.3,4.3,4.3,4.3,4.3,4.3,4.3025,4.3427,4.3614,4.3628,4.3628,4.3628,4.3564,4.3201,4.3,4.3,4.3,4.3,4.2975,4.2587,4.211,4.1542,4.1517,4.124,4.0725,4.0688,4.0287,3.9509,3.9434,3.9434,3.9434,3.9434,3.9969,4.1054,4.1621,4.2434,4.3443,4.3996,4.4827,4.6067,4.7367,4.8146,4.8162,4.7816,4.7996,4.8758,4.8456,4.8632,4.9484,4.9378,4.933,4.9412,4.9058,4.9095,4.9421,4.9132,4.9148,4.9898,4.9888,4.9993,5.0608,5.0771,5.0764,5.1016,5.0784,5.0581,5.0917,5.1166,5.0975,5.0651,5.0888,5.0883,5.0513,5.0157,5.0422,5.0676,5.0882,5.1042,5.112,5.1054,5.1216,5.1394,5.0755,5.0552,5.1407,5.1158,5.0996,5.1307,5.122,5.1145,5.1067,5.0734,5.049,5.0461,5.0112,4.9751,4.621,4.6135,4.5623,4.5095,4.4654,4.4539,4.4227,4.3765,4.3714,4.3452,4.3076,4.3,4.3,4.3,4.3,4.3,4.3,4.3,4.3,4.3,4.3,4.3,4.3,4.3,4.3,4.3,4.3101,4.3176,4.3176,4.3165,4.309,4.3051,4.3025,4.3,4.3,4.3,4.3,4.3,4.2964,4.2663,4.2174,4.2123,4.182,4.1239,4.1239,4.1188,4.1026,4.1088,4.1076,4.1076,4.1051,4.1142,4.1299,4.1388,4.2124,4.3611,4.3822,4.4559,4.6075,4.6419,4.6575,4.6539,4.6527,4.6556,4.6697,4.6591,4.7412,4.8927,4.8715,4.8424,4.8893,4.7662,4.7448,4.8663,4.7686,4.705,4.7941,4.7324,4.7133,4.8241,4.8458,4.8711,4.9552,4.9729,4.9835,5.0058,5.0116,5.01,4.9954,4.9971,5.0071,5.0057,5.0581,5.122,5.1324,5.1477,5.1365,5.1448,5.1481,5.1485,5.1456,5.1427,5.1485,5.1195,5.1033,5.0697,5.0593,5.0361,4.9983,5.0158,5.0,4.9838,4.9809,4.9751,4.9722,4.6311,4.6261,4.6075,4.5648,4.5171,4.5146,4.4819,4.4278,4.4292,4.4152,4.3915,4.3628,4.3302,4.3,4.3,4.3,4.3,4.3,4.3,4.3,4.3,4.3,4.3,4.3,4.3,4.3025,4.3313,4.3463,4.3478,4.3478,4.3327,4.3039,4.3,4.3,4.3,4.3,4.3,4.3,4.3,4.2889,4.2713,4.2663,4.2562,4.2333,4.2295,4.2146,4.187,4.1845,4.1845,4.1845,4.1845,4.1957,4.2283,4.2295,4.259,4.3314,4.398,4.4623,4.5315,4.5952,4.6293,4.6293,4.5701,4.5595,4.6202,4.5741,4.6045,4.7306,4.7267,4.7133,4.7314,4.6704,4.6611,4.7181,4.6704,4.6476,4.6893,4.6567,4.6515,4.6945,4.701,4.7139,4.7676,4.8299,4.8951,4.9485,4.971,4.9673,4.971,4.9722,4.9722,4.9751,5.0174,5.0394,5.054,5.083,5.1004,5.1062,5.1062,5.112,5.1398,5.0846,5.0581,5.0975,5.0552,5.0187,5.01,4.9983,4.9722,4.9722,4.9722,4.9722,4.9722,4.9722,4.9722,4.6311,4.6311,4.6311,4.6075,4.5723,4.5738,4.5397,4.488,4.4855,4.4754,4.4564,4.4177,4.3815,4.3452,4.3288,4.3226,4.3226,4.3377,4.3427,4.3452,4.3427,4.3391,4.3226,4.3226,4.3126,4.3076,4.3377,4.3578,4.3564,4.3603,4.3377,4.3039,4.3,4.3,4.3,4.3,4.3,4.3,4.3,4.3,4.3,4.3,4.3,4.3,4.3,4.2827,4.245,4.2425,4.2425,4.2425,4.2411,4.2587,4.2964,4.3,4.3,4.3056,4.3754,4.4325,4.4427,4.5163,4.5674,4.5753,4.5085,4.4989,4.5522,4.5126,4.5058,4.5711,4.5847,4.5848,4.5874,4.5568,4.5515,4.5781,4.5648,4.5502,4.5807,4.5661,4.5462,4.5794,4.5873,4.6032,4.6333,4.7061,4.7816,4.8462,4.8964,4.9252,4.9326,4.9449,4.9722,4.9698,4.9461,4.9416,4.9637,5.01,5.039,5.0448,5.0419,5.0552,5.1004,5.0145,4.9751,5.032,4.9909,4.9792,4.9838,4.9751,4.9632,4.971,4.962,4.9571,4.9722,4.971,4.971,4.6311,4.6311,4.6311,4.6276,4.6235,4.625,4.5949,4.5462,4.5462,4.5146,4.4715,4.4604,4.4539,4.4464,4.4016,4.3776,4.3826,4.4227,4.4414,4.4414,4.4453,4.4227,4.379,4.3765,4.3503,4.319,4.3226,4.3201,4.3165,4.3076,4.3,4.3025,4.3,4.3,4.3,4.3,4.3,4.3,4.3,4.3,4.3,4.3,4.3,4.3,4.3,4.2989,4.2939,4.295,4.2939,4.295,4.2939,4.295,4.3,4.3014,4.3025,4.3039,4.3109,4.3364,4.3845,4.4052,4.4282,4.4637,4.4695,4.4637,4.4798,4.4698,4.4684,4.4709,4.4813,4.4826,4.4792,4.4234,4.399,4.4692,4.3913,4.3939,4.4721,4.4154,4.3779,4.4544,4.4855,4.5221,4.6071,4.6319,4.6463,4.6827,4.7472,4.811,4.8211,4.8939,4.9449,4.9264,4.879,4.8424,4.9412,4.9552,4.9642,4.9896,4.9983,4.9855,4.978,4.9722,4.9739,4.9739,4.9751,4.9722,4.9722,4.9632,4.9522,4.9436,4.9211,4.9211,4.8852,4.9449,4.9321,4.6597,4.6311,4.6311,4.6311,4.6311,4.6311,4.6185,4.6024,4.6024,4.5884,4.5658,4.5307,4.5171,4.5171,4.4985,4.4683,4.4353,4.4529,4.4589,4.4589,4.4589,4.4503,4.4328,4.4328,4.4227,4.4066,4.4041,4.4016,4.3991,4.3689,4.3528,4.3413,4.3151,4.3,4.3,4.3,4.3,4.3,4.3,4.3,4.3,4.3,4.3,4.3,4.3,4.3,4.3,4.3,4.3,4.3,4.3,4.3,4.3025,4.3327,4.3514,4.3539,4.384,4.4102,4.4263,4.4328,4.4364,4.4539,4.4589,4.464,4.4589,4.4589,4.4589,4.4589,4.4589,4.4612,4.4567,4.423,4.4173,4.4472,4.4276,4.4123,4.4458,4.4258,4.4201,4.4481,4.4379,4.4454,4.5071,4.5288,4.5542,4.6254,4.728,4.751,4.7241,4.7879,4.8424,4.7714,4.7241,4.7306,4.8424,4.8603,4.8753,4.9424,4.9751,4.9702,4.9632,4.9449,4.9387,4.9227,4.935,4.9313,4.9137,4.874,4.8724,4.8549,4.8387,4.8044,4.7498,4.7993,4.7879,4.6898,4.6562,4.6361,4.6311,4.6311,4.6311,4.6311,4.6311,4.6311,4.6311,4.621,4.5899,4.5763,4.5748,4.5748,4.5547,4.5181,4.5156,4.5156,4.5141,4.5141,4.5041,4.4905,4.4895,4.478,4.4614,4.4589,4.4589,4.4564,4.4242,4.4066,4.4027,4.3514,4.3251,4.3226,4.3115,4.3,4.3,4.3,4.3,4.3,4.3,4.3,4.3,4.3,4.3,4.3,4.3,4.3,4.3025,4.3151,4.3327,4.3539,4.3865,4.4052,4.4116,4.4378,4.4704,4.4855,4.4895,4.498,4.5131,4.5141,4.5141,4.5156,4.5141,4.5156,4.5156,4.5141,4.5156,4.5156,4.5156,4.4991,4.469,4.4589,4.4589,4.4589,4.4579,4.4564,4.4547,4.4339,4.4331,4.4549,4.4498,4.4765,4.5459,4.6351,4.6503,4.611,4.6686,4.7254,4.6464,4.6058,4.636,4.6958,4.71,4.8173,4.8964,4.8951,4.9075,4.9063,4.8923,4.8774,4.8699,4.8649,4.8624,4.8374,4.7892,4.7613,4.7434,4.7254,4.6956,4.6645,4.6463,4.6638,4.7124,4.7064,4.6537,4.6411,4.6461,4.6461,4.6361,4.6436,4.6361,4.6386,4.6386,4.6286,4.621,4.6261,4.621,4.6235,4.616,4.611,4.611,4.6135,4.616,4.5924,4.5512,4.5497,4.5246,4.479,4.4665,4.4665,4.4754,4.4665,4.4644,4.4503,4.4091,4.3815,4.379,4.3352,4.3051,4.3051,4.3051,4.3,4.3,4.3,4.3,4.3,4.3025,4.3076,4.3051,4.3025,4.3025,4.3101,4.3489,4.4027,4.4403,4.4579,4.4629,4.4629,4.464,4.493,4.5412,4.5497,4.5698,4.601,4.621,4.611,4.6085,4.611,4.6135,4.6085,4.611,4.6185,4.616,4.6135,4.5759,4.488,4.4805,4.4805,4.474,4.4665,4.4614,4.4679,4.4629,4.4589,4.4507,4.4277,4.4173,4.4311,4.4785,4.5112,4.495,4.5688,4.6202,4.5952,4.5302,4.5115,4.5355,4.5701,4.7241,4.8424,4.811,4.7983,4.7816,4.7676,4.7421,4.7318,4.737,4.7331,4.728,4.6841,4.6477,4.6268,4.6097,4.5834,4.5529,4.5408,4.5982,4.8033,4.7641,4.7481,4.7405,4.739,4.739,4.7405,4.738,4.7039,4.6848,4.6772,4.6461,4.6311,4.6311,4.6311,4.6311,4.6311,4.6311,4.6311,4.6311,4.6311,4.621,4.6075,4.6035,4.5974,4.5824,4.5759,4.5759,4.5683,4.5397,4.5221,4.5121,4.4644,4.4378,4.4328,4.3854,4.3539,4.3503,4.3176,4.3,4.3,4.3,4.3,4.3039,4.3352,4.3553,4.3553,4.3201,4.3176,4.3528,4.37,4.4027,4.4554,4.498,4.5221,4.5246,4.5583,4.5809,4.5984,4.605,4.61,4.6261,4.6311,4.6311,4.6311,4.6311,4.6311,4.6311,4.6311,4.6311,4.6311,4.6311,4.611,4.5824,4.5759,4.5708,4.5658,4.5708,4.5583,4.5296,4.5221,4.507,4.469,4.4403,4.4353,4.4389,4.4815,4.5008,4.4419,4.4755,4.4751,4.4167,4.3823,4.3987,4.4466,4.4845,4.5714,4.6775,4.6829,4.6841,4.6686,4.632,4.6071,4.5926,4.5978,4.5965,4.5926,4.5741,4.5329,4.4953,4.4656,4.4411,4.4164,4.448,4.5121,4.8576,4.8209,4.7967,4.7908,4.7908,4.7908,4.7908,4.7857,4.7541,4.7415,4.7299,4.7064,4.6888,4.6863,4.6687,4.6697,4.6838,4.6712,4.6587,4.6562,4.6361,4.6311,4.6311,4.6311,4.6311,4.6311,4.6286,4.6311,4.6286,4.5974,4.5799,4.5698,4.5221,4.4945,4.4895,4.4392,4.4102,4.4066,4.3776,4.3603,4.3589,4.3603,4.3589,4.3653,4.3915,4.4077,4.4052,4.3765,4.374,4.4091,4.4278,4.4679,4.5206,4.5583,4.5799,4.5849,4.6075,4.6286,4.6311,4.6261,4.6311,4.6311,4.6311,4.6311,4.6311,4.6311,4.6311,4.6311,4.6311,4.6311,4.6311,4.6311,4.6311,4.6286,4.6261,4.6311,4.6311,4.6311,4.616,4.5874,4.5799,4.5598,4.5357,4.5006,4.4955,4.5001,4.5061,4.4906,4.4142,4.4149,4.3697,4.3338,4.3226,4.3531,4.3891,4.4126,4.4303,4.49,4.5395,4.5568,4.5635,4.502,4.4588,4.4534,4.4548,4.4467,4.4439,4.4317,4.4028,4.3655,4.3607,4.3642,4.373,4.3858,4.441,4.8837,4.8777,4.8234,4.8083,4.8083,4.8109,4.8134,4.8058,4.7983,4.7958,4.7958,4.7792,4.7792,4.7741,4.7315,4.7365,4.7716,4.735,4.7164,4.7039,4.6737,4.6502,4.6311,4.6311,4.6311,4.6311,4.6311,4.6311,4.6286,4.6235,4.6311,4.616,4.5763,4.5537,4.5422,4.493,4.464,4.4654,4.4579,4.4489,4.4464,4.4514,4.4529,4.4503,4.4604,4.4654,4.4654,4.4679,4.4679,4.4729,4.5171,4.5673,4.6135,4.6301,4.6235,4.6235,4.6286,4.6311,4.6311,4.6311,4.6311,4.6311,4.6311,4.6311,4.6311,4.6311,4.6311,4.6311,4.6311,4.6311,4.6311,4.6311,4.6311,4.6311,4.6311,4.6311,4.6311,4.6311,4.6235,4.6261,4.6286,4.6261,4.611,4.5748,4.5598,4.5451,4.5148,4.4644,4.4267,4.4115,4.3635,4.3352,4.3151,4.314,4.3531,4.3559,4.3699,4.3905,4.4303,4.4466,4.4615,4.4042,4.3628,4.3517,4.3436,4.3268,4.3249,4.3438,4.3489,4.3493,4.3456,4.3391,4.3639,4.3966,4.4317,4.918,4.9364,4.9213,4.9138,4.9163,4.9138,4.9138,4.9104,4.8702,4.8551,4.8476,4.8083,4.7983,4.7908,4.7782,4.7782,4.7867,4.7767,4.7676,4.7666,4.7566,4.6988,4.6436,4.6311,4.6311,4.6311,4.6311,4.6311,4.6311,4.6311,4.6311,4.6311,4.615,4.6075,4.5984,4.5508,4.5271,4.5196,4.479,4.464,4.464,4.464,4.4589,4.464,4.5031,4.5246,4.5296,4.5648,4.5633,4.5347,4.5799,4.6125,4.6286,4.6311,4.6311,4.6311,4.6311,4.6311,4.6311,4.6311,4.6311,4.6311,4.6311,4.6311,4.6311,4.6311,4.6311,4.6311,4.6311,4.6311,4.6311,4.6311,4.6311,4.6311,4.6311,4.6311,4.6311,4.6311,4.6311,4.6311,4.6311,4.6311,4.6261,4.616,4.605,4.5949,4.5623,4.5171,4.4809,4.4292,4.3915,4.3589,4.3377,4.3126,4.3056,4.3056,4.3112,4.317,4.3351,4.3462,4.3559,4.3379,4.317,4.3112,4.3198,4.3087,4.326,4.3428,4.3391,4.3514,4.384,4.4091,4.4392,4.4719,4.497,4.9153,4.9574,4.9461,4.938,4.9412,4.9542,4.9525,4.9395,4.9215,4.9129,4.9053,4.8802,4.8611,4.8586,4.8385,4.8426,4.856,4.8385,4.8284,4.8184,4.7741,4.7214,4.6697,4.6461,4.6311,4.6311,4.6311,4.6311,4.6311,4.6311,4.6311,4.6311,4.6311,4.6311,4.6276,4.6024,4.5839,4.5773,4.5482,4.5307,4.5317,4.5307,4.5332,4.5357,4.5698,4.5849,4.5874,4.6135,4.6135,4.5949,4.611,4.6311,4.6311,4.6311,4.6311,4.6311,4.6311,4.6311,4.6311,4.6311,4.6411,4.6537,4.6486,4.6446,4.6522,4.6461,4.6311,4.6311,4.6311,4.6311,4.6311,4.6311,4.6311,4.6311,4.6311,4.6311,4.6311,4.6311,4.6311,4.6311,4.6311,4.6311,4.6311,4.6311,4.6311,4.6235,4.605,4.5723,4.5412,4.4819,4.4242,4.389,4.3614,4.3388,4.3126,4.3076,4.3025,4.3053,4.3115,4.3101,4.3076,4.3051,4.3025,4.3025,4.3,4.3126,4.3402,4.3653,4.379,4.4041,4.4428,4.4754,4.502,4.5221,4.5497,4.9016,4.9574,4.9267,4.9153,4.9234,4.9461,4.9461,4.9267,4.9427,4.954,4.954,4.9565,4.9439,4.9565,4.9028,4.9129,4.9506,4.9053,4.8843,4.8426,4.7782,4.7058,4.7014,4.6512,4.6311,4.6311,4.6311,4.6311,4.6311,4.6311,4.6311,4.6311,4.6311,4.6311,4.6286,4.6261,4.6286,4.6235,4.616,4.6085,4.6085,4.6085,4.606,4.6085,4.6135,4.621,4.621,4.6311,4.6261,4.6286,4.6311,4.6311,4.6311,4.6311,4.6311,4.6311,4.6311,4.6311,4.6411,4.6486,4.6662,4.6998,4.6838,4.6687,4.7023,4.6863,4.6627,4.6486,4.6336,4.6311,4.6311,4.6311,4.6311,4.6311,4.6311,4.6311,4.6311,4.6311,4.6311,4.6311,4.6311,4.6311,4.6311,4.6311,4.6311,4.6311,4.616,4.605,4.5763,4.5321,4.4694,4.4091,4.3865,4.3689,4.3388,4.3151,4.3076,4.3065,4.3226,4.3277,4.3226,4.3201,4.3126,4.3101,4.3277,4.3553,4.3865,4.4052,4.4278,4.4579,4.5006,4.5246,4.5462,4.5598,4.5824,4.9218,4.959,4.9551,4.9493,4.9509,4.9574,4.9558,4.9477,4.9558,4.959,4.959,4.959,4.959,4.9606,4.9439,4.9506,4.959,4.943,4.9229,4.8667,4.7631,4.7149,4.6973,4.6537,4.6311,4.6311,4.6311,4.6311,4.6311,4.6311,4.6311,4.6311,4.6311,4.6311,4.6311,4.6311,4.6311,4.6311,4.6311,4.6311,4.6311,4.6311,4.6311,4.6311,4.6311,4.6311,4.6311,4.6311,4.6311,4.6311,4.6311,4.6311,4.6311,4.6311,4.6311,4.6311,4.6311,4.6461,4.6798,4.6923,4.7189,4.7691,4.7958,4.8109,4.7732,4.7641,4.734,4.6988,4.6562,4.6436,4.6486,4.6361,4.6411,4.6461,4.6386,4.6336,4.6311,4.6311,4.6311,4.6311,4.6311,4.6311,4.6311,4.6311,4.6311,4.6311,4.6286,4.6235,4.6024,4.5748,4.5196,4.4543,4.4418,4.4267,4.3865,4.3614,4.3553,4.3478,4.3564,4.3614,4.3589,4.3503,4.3463,4.3553,4.3653,4.3966,4.4367,4.4769,4.5045,4.5321,4.5573,4.5748,4.5899,4.6024,4.6024,4.8877,4.9348,4.9364,4.9364,4.938,4.9525,4.9509,4.9412,4.9542,4.959,4.959,4.959,4.959,4.959,4.959,4.959,4.959,4.959,4.9138,4.841,4.7666,4.7239,4.6712,4.6486,4.6311,4.6311,4.6311,4.6311,4.6311,4.6311,4.6311,4.6311,4.6311,4.6311,4.6311,4.6311,4.6311,4.6311,4.6311,4.6311,4.6311,4.6311,4.6311,4.6311,4.6311,4.6311,4.6311,4.6311,4.6311,4.6311,4.6311,4.6311,4.6311,4.6311,4.6311,4.6311,4.6311,4.6562,4.6948,4.7159,4.7566,4.8611,4.8802,4.8912,4.8812,4.8661,4.8225,4.7857,4.7481,4.7139,4.7405,4.7496,4.738,4.7039,4.6813,4.6587,4.6361,4.6311,4.6311,4.6311,4.6311,4.6311,4.6311,4.6311,4.6311,4.6311,4.6311,4.6261,4.6261,4.5984,4.5673,4.5221,4.511,4.4844,4.4378,4.4152,4.4116,4.4077,4.4102,4.4152,4.4152,4.4027,4.3901,4.4041,4.4217,4.4532,4.492,4.5321,4.5648,4.5834,4.601,4.621,4.6261,4.6185,4.616,4.8535,4.9105,4.9105,4.9105,4.9137,4.9396,4.9364,4.9186,4.9461,4.959,4.959,4.959,4.959,4.959,4.959,4.959,4.954,4.9238,4.8661,4.8033,4.7566,4.7014,4.6502,4.6336,4.6311,4.6311,4.6311,4.6311,4.6311,4.6311,4.6311,4.6311,4.6311,4.6311,4.6311,4.6311,4.6311,4.6311,4.6311,4.6311,4.6311,4.6311,4.6311,4.6311,4.6311,4.6311,4.6311,4.6311,4.6311,4.6311,4.6311,4.6311,4.6311,4.6311,4.6311,4.6311,4.6512,4.6988,4.7516,4.7751,4.8444,4.9757,4.9631,4.9732,5.0092,4.9741,4.9229,4.8777,4.8385,4.8184,4.8802,4.8777,4.856,4.8184,4.7616,4.7064,4.6637,4.6436,4.6311,4.6311,4.6311,4.6311,4.6311,4.6311,4.6311,4.6311,4.6311,4.6311,4.6311,4.621,4.5874,4.5723,4.5547,4.5361,4.492,4.498,4.488,4.4554,4.4589,4.4729,4.4754,4.4679,4.4618,4.4654,4.4869,4.5121,4.5372,4.5673,4.5974,4.6235,4.6311,4.6311,4.6311,4.6311,4.6311,4.8991,4.9105,4.9105,4.9105,4.9105,4.917,4.9153,4.9153,4.9412,4.959,4.9558,4.9574,4.9542,4.9558,4.959,4.959,4.9398,4.8887,4.8234,4.7757,4.7214,4.6512,4.6386,4.6311,4.6311,4.6311,4.6311,4.6311,4.6311,4.6311,4.6311,4.6311,4.6311,4.6311,4.6311,4.6311,4.6311,4.6311,4.6311,4.6311,4.6311,4.6311,4.6311,4.6311,4.6311,4.6311,4.6311,4.6311,4.6311,4.6311,4.6311,4.6311,4.6311,4.6311,4.6311,4.6461,4.7064,4.7666,4.8275,4.9264,5.0076,5.0896,5.1147,5.1147,5.1172,5.0896,5.0309,4.9581,4.9129,4.8953,4.9389,4.9615,4.949,4.9113,4.846,4.7741,4.7456,4.6928,4.6361,4.6311,4.6311,4.6311,4.6311,4.6311,4.6311,4.6311,4.6311,4.6311,4.6311,4.621,4.605,4.5949,4.5924,4.5698,4.5447,4.5698,4.5733,4.5106,4.5056,4.5321,4.5347,4.5347,4.5347,4.5347,4.5397,4.5573,4.5824,4.6024,4.615,4.6286,4.6311,4.6311,4.6311,4.6311,4.6311,4.8535,4.8567,4.8731,4.8853,4.8853,4.8837,4.8853,4.8845,4.9016,4.9097,4.9081,4.9097,4.9186,4.9299,4.9332,4.9412,4.9291,4.8786,4.8209,4.7782,4.7114,4.6537,4.6336,4.6311,4.6311,4.6311,4.6311,4.6311,4.6311,4.6311,4.6311,4.6311,4.6311,4.6311,4.6311,4.6311,4.6311,4.6311,4.6311,4.6311,4.6311,4.6311,4.6311,4.6311,4.6311,4.6311,4.6311,4.6311,4.6311,4.6311,4.6311,4.6311,4.6311,4.6311,4.6311,4.6527,4.734,4.8184,4.8853,4.9791,5.0703,5.1574,5.2,5.2151,5.2051,5.18,5.1172,5.0419,5.0586,5.0485,5.0535,5.067,5.0745,5.0343,4.9439,4.8586,4.7917,4.7164,4.6712,4.6361,4.6311,4.6311,4.6311,4.6311,4.6311,4.6311,4.6311,4.6311,4.6311,4.6235,4.6135,4.6135,4.6125,4.6024,4.5849,4.6024,4.621,4.5708,4.5457,4.5723,4.5849,4.5824,4.5874,4.5924,4.5999,4.5974,4.6075,4.6185,4.6261,4.6311,4.6311,4.6311,4.6311,4.6311,4.6311,4.8009,4.8026,4.8346,4.8477,4.8477,4.8502,4.8477,4.8477,4.8584,4.8608,4.8576,4.8608,4.8772,4.8959,4.9105,4.9251,4.9418,4.8864,4.8284,4.7832,4.7164,4.6662,4.6411,4.6311,4.6311,4.6311,4.6311,4.6311,4.6311,4.6311,4.6311,4.6311,4.6311,4.6311,4.6311,4.6311,4.6311,4.6311,4.6311,4.6311,4.6311,4.6311,4.6311,4.6311,4.6311,4.6311,4.6311,4.6311,4.6311,4.6311,4.6311,4.6311,4.6311,4.6311,4.6361,4.6627,4.7566,4.8451,4.9254,5.0393,5.1507,5.2201,5.226,5.2511,5.2511,5.2151,5.1532,5.108,5.1005,5.1523,5.1364,5.1791,5.1774,5.1339,5.0393,4.9339,4.8335,4.7506,4.6813,4.6537,4.6386,4.6311,4.6311,4.6311,4.6311,4.6311,4.6311,4.6311,4.6311,4.6311,4.6235,4.6261,4.6261,4.6261,4.6185,4.616,4.6261,4.6085,4.5934,4.606,4.616,4.621,4.6235,4.62,4.621,4.6185,4.6286,4.6311,4.6311,4.6311,4.6311,4.6311,4.6311,4.6311,4.6311,4.8009,4.7993,4.8042,4.8059,4.8059,4.8075,4.8059,4.8108,4.8412,4.8576,4.8477,4.8543,4.8559,4.8739,4.9024,4.9137,4.8943,4.8459,4.8008,4.7682,4.6913,4.6436,4.6326,4.6311,4.6311,4.6311,4.6311,4.6311,4.6311,4.6311,4.6311,4.6311,4.6311,4.6311,4.6311,4.6311,4.6311,4.6311,4.6311,4.6311,4.6311,4.6311,4.6311,4.6311,4.6311,4.6311,4.6311,4.6311,4.6311,4.6311,4.6311,4.6311,4.6311,4.6311,4.6587,4.729,4.8394,4.9656,5.0167,5.1331,5.2218,5.2561,5.2694,5.2795,5.2686,5.2201,5.1699,5.195,5.1331,5.1155,5.1699,5.2,5.2051,5.1674,5.0946,4.9841,4.8802,4.7807,4.7114,4.6537,4.6311,4.6311,4.6311,4.6311,4.6311,4.6311,4.6311,4.6311,4.6311,4.6311,4.6311,4.6311,4.6311,4.6311,4.6311,4.6311,4.6311,4.6311,4.6311,4.6311,4.6311,4.6311,4.6286,4.6261,4.6311,4.6311,4.6311,4.6311,4.6311,4.6311,4.6311,4.6311,4.6311,4.6311,4.6311,4.7712,4.7712,4.7696,4.7712,4.7712,4.7712,4.7729,4.7745,4.7902,4.7984,4.7984,4.796,4.8198,4.8592,4.9121,4.9196,4.8837,4.819,4.7716,4.7375,4.6682,4.6296,4.6311,4.6311,4.6311,4.624,4.6286,4.6311,4.6311,4.6271,4.6311,4.6311,4.6311,4.6311,4.6311,4.6311,4.6311,4.6311,4.6311,4.6311,4.6311,4.6311,4.6311,4.6311,4.6311,4.6311,4.6311,4.6311,4.6311,4.6311,4.6311,4.6311,4.6311,4.6361,4.6637,4.7566,4.8485,4.933,5.0017,5.1557,5.2234,5.2561,5.2686,5.287,5.2795,5.2435,5.1825,5.1615,5.1523,5.1498,5.1624,5.1925,5.2034,5.1808,5.1172,5.0058,4.9003,4.8209,4.739,4.6813,4.6311,4.6311,4.6311,4.6311,4.6311,4.6311,4.6311,4.6311,4.6311,4.6311,4.6311,4.6311,4.6311,4.6311,4.6311,4.6311,4.6311,4.6311,4.6311,4.6311,4.6311,4.6311,4.6311,4.6311,4.6311,4.6311,4.6311,4.6311,4.6311,4.6311,4.6311,4.6311,4.6311,4.6311,4.6311,4.7497,4.7497,4.7497,4.7497,4.7497,4.7497,4.7497,4.7497,4.7514,4.7514,4.7497,4.753,4.7852,4.833,4.8787,4.8783,4.8332,4.7964,4.7414,4.6849,4.643,4.61,4.5984,4.5999,4.5999,4.6044,4.5954,4.5954,4.5984,4.6029,4.6059,4.6271,4.6311,4.6311,4.6311,4.6311,4.6311,4.6311,4.6311,4.6311,4.6311,4.6311,4.6311,4.6311,4.6311,4.6311,4.6311,4.6311,4.6311,4.6311,4.6311,4.6311,4.6311,4.6512,4.6963,4.7741,4.8526,4.912,4.9907,5.0971,5.1707,5.2026,5.2176,5.2335,5.2385,5.241,5.2084,5.1096,5.1046,5.1096,5.1222,5.1448,5.1431,5.1398,5.1147,5.0033,4.8953,4.8159,4.7365,4.6687,4.6311,4.6311,4.6311,4.6311,4.6311,4.6311,4.6311,4.6311,4.6311,4.6311,4.6311,4.6311,4.6311,4.6311,4.6311,4.6311,4.6311,4.6311,4.6311,4.6311,4.6311,4.6311,4.6311,4.6311,4.6311,4.6311,4.6311,4.6311,4.6311,4.6311,4.6311,4.6311,4.6311,4.6311,4.6311,4.7497,4.7497,4.7497,4.7497,4.7497,4.7497,4.7497,4.7497,4.7497,4.7497,4.7497,4.7514,4.7597,4.7738,4.8044,4.7971,4.7369,4.7396,4.6873,4.6313,4.5923,4.573,4.559,4.5498,4.5453,4.5453,4.5514,4.5498,4.5422,4.5544,4.5817,4.6195,4.6105,4.621,4.6225,4.6165,4.624,4.6271,4.6311,4.6311,4.6311,4.6311,4.6311,4.6311,4.6311,4.6311,4.6311,4.6311,4.6311,4.6311,4.6311,4.6411,4.6486,4.6722,4.7249,4.7983,4.8501,4.9053,4.9782,5.0569,5.1214,5.1389,5.149,5.1641,5.1674,5.1005,5.0578,5.0603,5.0528,5.0393,5.0444,5.0528,5.0779,5.0779,5.0569,4.9665,4.8727,4.8109,4.7315,4.6587,4.6311,4.6311,4.6311,4.6311,4.6311,4.6311,4.6311,4.6311,4.6311,4.6311,4.6311,4.6311,4.6311,4.6311,4.6311,4.6311,4.6311,4.6311,4.6311,4.6311,4.6311,4.6311,4.6311,4.6311,4.6311,4.6311,4.6311,4.6311,4.6311,4.6311,4.6311,4.6311,4.6311,4.6311,4.6311,4.7497,4.7497,4.7497,4.7497,4.7497,4.7497,4.7497,4.7497,4.7497,4.7497,4.7514,4.7696,4.7812,4.7821,4.7759,4.7571,4.7032,4.6674,4.6213,4.581,4.5496,4.5407,4.53,4.5254,4.53,4.527,4.527,4.53,4.5315,4.5224,4.5376,4.5635,4.5681,4.5666,4.5711,4.5939,4.609,4.6256,4.6286,4.6311,4.6311,4.6311,4.6311,4.6311,4.6311,4.6311,4.6311,4.6311,4.6311,4.6311,4.6311,4.6461,4.6712,4.7023,4.7566,4.8275,4.8702,4.9079,4.9556,5.0318,5.0887,5.1264,5.1314,5.1264,5.1163,5.0996,5.0703,5.0477,5.0176,5.0142,5.0302,5.0402,5.0452,5.0327,4.9875,4.9138,4.846,4.7857,4.7255,4.6486,4.6311,4.6311,4.6311,4.6311,4.6311,4.6311,4.6311,4.6311,4.6311,4.6311,4.6311,4.6311,4.6311,4.6311,4.6311,4.6311,4.6311,4.6311,4.6311,4.6311,4.6311,4.6311,4.6311,4.6311,4.6311,4.6311,4.6311,4.6311,4.6311,4.6311,4.6311,4.6311,4.6311,4.6311,4.6311,4.7497,4.7497,4.7497,4.7497,4.7497,4.7497,4.7497,4.7497,4.7497,4.7497,4.7514,4.7745,4.7845,4.7822,4.7751,4.723,4.6695,4.6308,4.5706,4.5315,4.5095,4.5071,4.504,4.4979,4.4902,4.5009,4.4994,4.4963,4.4933,4.4994,4.4994,4.4994,4.5025,4.5086,4.5422,4.5635,4.5908,4.609,4.6256,4.6271,4.6311,4.6311,4.6311,4.6311,4.6311,4.6311,4.6311,4.6311,4.6311,4.6311,4.6361,4.6572,4.6923,4.7365,4.7883,4.8476,4.8994,4.9229,4.959,4.9941,5.036,5.0586,5.0686,5.0711,5.0787,5.0812,5.0343,5.0176,5.0101,5.0151,5.0151,5.0076,5.0051,4.995,4.9581,4.8878,4.8209,4.7566,4.7014,4.6401,4.6361,4.6311,4.6311,4.6311,4.6311,4.6311,4.6311,4.6311,4.6311,4.6311,4.6311,4.6311,4.6311,4.6311,4.6311,4.6311,4.6311,4.6311,4.6311,4.6311,4.6311,4.6311,4.6311,4.6311,4.6311,4.6311,4.6311,4.6311,4.6311,4.6311,4.6311,4.6311,4.6311,4.6311,4.6311,4.7398,4.7497,4.7447,4.7431,4.7481,4.7497,4.7497,4.7497,4.7497,4.7497,4.7497,4.7547,4.7499,4.7467,4.7366,4.6762,4.6134,4.6051,4.559,4.4724,4.4717,4.4609,4.4517,4.4455,4.4532,4.4378,4.4455,4.4501,4.4409,4.4501,4.4455,4.4455,4.4548,4.4717,4.527,4.562,4.5787,4.5848,4.609,4.615,4.615,4.6135,4.6135,4.612,4.6105,4.609,4.6205,4.618,4.621,4.6311,4.6311,4.6597,4.7149,4.7591,4.8134,4.8802,4.9305,4.9515,4.9615,4.9656,4.9757,4.9882,5.0017,4.9941,4.9766,4.9715,4.9782,4.9665,4.9707,4.9665,4.964,4.9615,4.9615,4.9439,4.9053,4.8501,4.7792,4.7157,4.6525,4.6326,4.6321,4.6311,4.6311,4.6311,4.6311,4.6311,4.6311,4.6286,4.6286,4.6311,4.6311,4.6311,4.6311,4.6311,4.6311,4.6311,4.6311,4.6311,4.6311,4.6311,4.6311,4.6311,4.6311,4.6311,4.6311,4.6311,4.6311,4.6311,4.6311,4.6311,4.6311,4.6311,4.6311,4.6311,4.6311,4.5702,4.7398,4.6432,4.6624,4.7414,4.7497,4.7497,4.7497,4.7497,4.7497,4.7497,4.7497,4.7281,4.7,4.6567,4.611,4.5517,4.4964,4.4491,4.4434,4.4455,4.4409,4.4331,4.4316,4.4316,4.4316,4.4316,4.4316,4.4331,4.4316,4.4316,4.4316,4.4331,4.4548,4.4871,4.5132,4.5208,4.5437,4.5574,4.562,4.5635,4.5666,4.5681,4.5666,4.5681,4.5772,4.5954,4.5954,4.6044,4.618,4.622,4.6621,4.7313,4.7805,4.8297,4.9022,4.9549,4.959,4.959,4.9615,4.9615,4.9558,4.9574,4.9574,4.959,4.959,4.943,4.9273,4.94,4.9366,4.9179,4.9104,4.9038,4.8837,4.841,4.7792,4.7128,4.6529,4.6053,4.6155,4.618,4.619,4.619,4.6075,4.6075,4.612,4.6105,4.624,4.6271,4.6286,4.6311,4.6311,4.6311,4.6311,4.6311,4.6311,4.6311,4.6311,4.6311,4.6311,4.6311,4.6311,4.6311,4.6311,4.6311,4.6311,4.6311,4.6311,4.6311,4.6311,4.6311,4.6311,4.6311,4.6311,4.6311,4.4156,4.5769,4.4914,4.5017,4.6039,4.7041,4.7497,4.7497,4.7497,4.7497,4.7449,4.7329,4.7064,4.6615,4.6158,4.5629,4.5085,4.4796,4.4388,4.4364,4.4316,4.4316,4.4316,4.4316,4.4316,4.4316,4.4316,4.4316,4.4316,4.4316,4.4316,4.4316,4.4316,4.4424,4.4625,4.4763,4.4933,4.5147,4.527,4.5361,4.5361,4.5346,4.5331,4.5331,4.5361,4.5422,4.5574,4.5666,4.5726,4.5908,4.6118,4.6477,4.7215,4.7673,4.8147,4.8885,4.9259,4.9243,4.9211,4.9211,4.9178,4.9195,4.9412,4.9525,4.9461,4.938,4.9343,4.9268,4.9246,4.9194,4.9033,4.8908,4.871,4.8518,4.7968,4.7336,4.6744,4.6196,4.5816,4.5933,4.5984,4.5984,4.5969,4.5893,4.5802,4.5863,4.5923,4.6059,4.621,4.624,4.6256,4.6311,4.6311,4.6311,4.6311,4.6311,4.6311,4.6311,4.6311,4.6311,4.6311,4.6311,4.6311,4.6311,4.6311,4.6311,4.6311,4.6311,4.6311,4.6311,4.6311,4.6311,4.6311,4.6336,4.6386,4.291,4.2997,4.2962,4.301,4.3569,4.5925,4.711,4.7307,4.7217,4.716,4.7293,4.6511,4.5923,4.6113,4.5837,4.5294,4.4919,4.4815,4.4661,4.4412,4.4316,4.4316,4.4316,4.4316,4.4316,4.4316,4.4316,4.4316,4.4316,4.4316,4.4316,4.4316,4.4316,4.4347,4.4455,4.4579,4.4733,4.484,4.4963,4.504,4.504,4.5132,4.5086,4.5071,4.5101,4.5162,4.5254,4.53,4.5331,4.5376,4.5401,4.6025,4.6511,4.6872,4.7601,4.8248,4.8641,4.8715,4.8723,4.8755,4.8657,4.8755,4.9162,4.9251,4.9177,4.9014,4.8871,4.8871,4.8833,4.9069,4.9157,4.8926,4.8672,4.8249,4.7701,4.7106,4.6532,4.6037,4.5673,4.562,4.5696,4.5696,4.5635,4.5559,4.5529,4.5574,4.5635,4.5742,4.5893,4.612,4.6165,4.6311,4.6311,4.6311,4.6286,4.6271,4.6311,4.6311,4.6311,4.6311,4.6311,4.6311,4.6311,4.6311,4.6311,4.6311,4.6311,4.6311,4.6311,4.6311,4.6311,4.6311,4.6311,4.6471,4.6572,4.1063,4.284,4.1859,4.2035,4.3001,4.3604,4.4629,4.5683,4.4589,4.4373,4.5339,4.3849,4.3353,4.2704,4.3466,4.3489,4.3646,4.3962,4.4336,4.4262,4.4021,4.4223,4.4285,4.4254,4.4285,4.4316,4.4316,4.4316,4.4316,4.4316,4.4316,4.4316,4.4316,4.4316,4.4347,4.4409,4.4455,4.4501,4.464,4.4671,4.4671,4.4687,4.4671,4.4687,4.4687,4.4763,4.4902,4.4948,4.5025,4.5208,4.527,4.5718,4.62,4.67,4.7388,4.8403,4.8592,4.8592,4.8576,4.8559,4.8461,4.8297,4.8625,4.8772,4.8673,4.8475,4.831,4.8326,4.8229,4.8319,4.8382,4.8267,4.8004,4.7525,4.6999,4.6501,4.597,4.5653,4.5315,4.5331,4.5407,4.5361,4.53,4.527,4.5254,4.527,4.5315,4.5407,4.5574,4.5787,4.5954,4.6075,4.6135,4.609,4.6225,4.624,4.6271,4.6311,4.6311,4.6311,4.6311,4.6311,4.6311,4.6311,4.6311,4.6311,4.6311,4.6311,4.6311,4.6311,4.6311,4.6311,4.6336,4.6547,4.6823,3.9461,4.0989,4.0116,4.0176,4.0818,4.0577,4.14,4.2672,4.2367,4.2743,4.3286,4.2132,4.1308,4.127,4.1743,4.1798,4.1621,4.2061,4.2436,4.2515,4.3295,4.3373,4.3545,4.3966,4.43,4.4285,4.4285,4.4316,4.4254,4.4285,4.4316,4.4316,4.4316,4.4316,4.4316,4.4331,4.4331,4.4331,4.4331,4.4316,4.4316,4.4316,4.4316,4.4316,4.4316,4.444,4.4579,4.4625,4.4748,4.4887,4.4902,4.5161,4.5672,4.6201,4.6566,4.7394,4.7637,4.767,4.7743,4.8002,4.7969,4.7944,4.8026,4.81,4.8036,4.7849,4.7807,4.7813,4.7571,4.7409,4.7449,4.7422,4.7037,4.6667,4.622,4.5759,4.5435,4.5175,4.5086,4.5071,4.5055,4.5025,4.4994,4.4979,4.4902,4.4825,4.484,4.4933,4.5147,4.5422,4.5574,4.5696,4.5787,4.5833,4.5984,4.612,4.6135,4.6165,4.6311,4.6311,4.6286,4.6311,4.6311,4.6311,4.6311,4.6311,4.6311,4.6311,4.6311,4.6311,4.6311,4.6311,4.6436,4.6737,4.7039,3.8123,3.8543,3.8047,3.8032,3.783,3.7651,3.8207,3.934,4.0541,4.1407,4.1375,4.0833,4.0246,3.9884,4.0093,4.0138,4.023,4.0565,4.0936,4.0311,4.1585,4.2095,4.2483,4.3232,4.3114,4.367,4.381,4.3302,4.3919,4.3919,4.3896,4.4254,4.4316,4.4316,4.4316,4.4316,4.4316,4.4316,4.4316,4.4316,4.4316,4.4316,4.4316,4.4316,4.4316,4.4331,4.4331,4.4316,4.4316,4.4316,4.4403,4.4642,4.5164,4.5565,4.5854,4.6143,4.6633,4.6866,4.7076,4.7317,4.7509,4.7491,4.7466,4.7469,4.7375,4.7134,4.7102,4.7182,4.6981,4.673,4.6729,4.6777,4.655,4.6144,4.5723,4.5296,4.4933,4.4834,4.4887,4.484,4.4763,4.4733,4.4763,4.4748,4.464,4.4455,4.444,4.4563,4.4717,4.5025,4.5224,4.5361,4.5498,4.559,4.5681,4.5802,4.5908,4.5999,4.612,4.618,4.6105,4.618,4.6311,4.6311,4.6311,4.6311,4.6311,4.6311,4.6311,4.6311,4.6311,4.6311,4.6512,4.6863,4.7265,3.75,3.7598,3.75,3.7461,3.7383,3.701,3.7025,3.7346,3.7317,3.8329,3.9117,3.8084,3.7375,3.7641,3.8391,3.8606,3.8755,3.9282,4.0029,4.0013,4.0516,4.0678,4.0759,4.1344,4.1441,4.12,4.1312,4.1952,4.2626,4.2894,4.3373,4.4161,4.4269,4.4316,4.4316,4.4316,4.4316,4.4316,4.4316,4.4316,4.4316,4.4316,4.4316,4.4316,4.4316,4.4316,4.4316,4.4316,4.4316,4.4316,4.4316,4.4604,4.5085,4.5229,4.5493,4.583,4.5966,4.6231,4.6511,4.6759,4.6976,4.7161,4.7161,4.6976,4.6744,4.6424,4.6303,4.6424,4.6392,4.6166,4.6021,4.6062,4.603,4.5627,4.5272,4.4888,4.4488,4.4572,4.4671,4.4609,4.4517,4.4501,4.4532,4.4486,4.4362,4.4316,4.4331,4.4378,4.4409,4.4609,4.4902,4.5071,4.5254,4.5361,4.5407,4.5468,4.5559,4.5666,4.5772,4.5848,4.5923,4.6059,4.6205,4.6281,4.6311,4.6311,4.6311,4.6311,4.6311,4.6311,4.6311,4.6311,4.6637,4.6988,4.7456,3.7129,3.7266,3.7107,3.7029,3.6951,3.658,3.6387,3.6348,3.6116,3.6593,3.7434,3.6542,3.6018,3.6018,3.6876,3.7243,3.7361,3.7913,3.7992,3.8275,3.9085,3.9249,3.9392,3.9752,4.0322,4.0208,4.0263,4.0797,4.1344,4.2198,4.2862,4.3514,4.3826,4.4316,4.4316,4.4316,4.4316,4.4316,4.4316,4.4316,4.4316,4.4316,4.4316,4.4316,4.4316,4.4316,4.4316,4.4316,4.4316,4.4316,4.4316,4.4388,4.4637,4.4709,4.4893,4.5133,4.5373,4.5678,4.599,4.6255,4.6495,4.6615,4.6615,4.6351,4.6255,4.5942,4.5637,4.5733,4.5685,4.5508,4.5276,4.5268,4.5196,4.4923,4.4794,4.4546,4.4386,4.4433,4.4486,4.447,4.4409,4.4393,4.4409,4.4409,4.4316,4.4316,4.4316,4.4316,4.4316,4.4316,4.4563,4.4748,4.4933,4.504,4.5071,4.5117,4.5193,4.53,4.5422,4.562,4.5787,4.5939,4.61,4.6165,4.624,4.6311,4.6311,4.6311,4.6311,4.6311,4.6311,4.6311,4.6687,4.7104,4.7581,3.6814,3.707,3.6756,3.6619,3.6577,3.6191,3.6018,3.6018,3.6018,3.6018,3.6174,3.6086,3.6018,3.6018,3.6018,3.6018,3.6203,3.6657,3.6406,3.6623,3.7411,3.7712,3.8225,3.8838,3.8986,3.9134,3.9167,3.9474,3.9932,4.1007,4.1959,4.2467,4.3373,4.4316,4.43,4.4316,4.4316,4.4316,4.4316,4.4316,4.4316,4.4316,4.4316,4.4316,4.4316,4.4316,4.4316,4.4316,4.4316,4.4316,4.4316,4.4364,4.4388,4.442,4.4396,4.4628,4.4829,4.5061,4.5301,4.5614,4.5806,4.5926,4.587,4.5774,4.5678,4.5445,4.5133,4.5037,4.5013,4.4917,4.4709,4.4613,4.4541,4.4493,4.4396,4.4348,4.4324,4.4316,4.4331,4.4347,4.4331,4.4316,4.4316,4.4316,4.4316,4.4316,4.4316,4.4316,4.4316,4.4316,4.4424,4.4486,4.4563,4.4656,4.4717,4.4794,4.4856,4.4948,4.5086,4.5376,4.562,4.5696,4.5848,4.6105,4.6165,4.618,4.6256,4.6311,4.6311,4.6311,4.6311,4.6336,4.6562,4.7029,4.7631,3.6174,3.6233,3.6155,3.6152,3.6116,3.6038,3.6018,3.6018,3.6018,3.6018,3.6018,3.6018,3.6018,3.6018,3.6018,3.6018,3.6018,3.6018,3.6018,3.6219,3.6505,3.6488,3.6691,3.7344,3.6927,3.7079,3.7394,3.7562,3.8523,3.9883,4.1168,4.2038,4.3436,4.4114,4.4176,4.4161,4.4099,4.4099,4.4254,4.4316,4.4316,4.4316,4.4316,4.4316,4.4316,4.4316,4.4316,4.4316,4.4316,4.4316,4.4316,4.4316,4.4316,4.4316,4.4316,4.434,4.4517,4.4685,4.4965,4.5133,4.5325,4.559,4.5493,4.5253,4.5085,4.4845,4.4652,4.458,4.4556,4.4556,4.442,4.442,4.4372,4.4372,4.4324,4.4324,4.4316,4.4316,4.4316,4.4331,4.4316,4.4316,4.4316,4.4316,4.4316,4.4316,4.4316,4.4316,4.4316,4.4316,4.4316,4.4316,4.4316,4.4316,4.4409,4.447,4.4532,4.4609,4.4748,4.504,4.5239,4.5361,4.5544,4.5893,4.6014,4.6014,4.6105,4.6311,4.6311,4.6311,4.6311,4.6361,4.6562,4.7004,4.7657]},{"header":{"parameterUnit":"m.s-1","parameterCategory":1,"la1":31.0,"la2":29.5877,"lo1":-88.7671,"lo2":-86.6584,"dy":0.0162,"dx":0.0185,"nx":115,"ny":88,"refTime":"2024-11-26T12:00:00:Z","depth":0,"parameterNumber":3,"parameterNumberName":"V-component_of_WINDS"},"data":[0.0,0.0,0.0,0.0,0.0,0.0,0.0,0.0,0.0,0.0,0.0,0.0,0.0,0.0,0.0,0.0,0.0,0.0,0.0,0.0,0.0,0.0,0.0,0.0,0.0,0.0,0.0,0.0,0.0,0.0,0.0,0.0,0.0,0.0,0.0,0.0,0.0,0.0,0.0,0.0,0.0,0.0,0.0,0.0,0.0,0.0,0.0,0.0,0.0,0.0,0.0,0.0,0.0,0.0,0.0,0.0,0.0,0.0,0.0,0.0,0.0,0.0,0.0,0.0,0.0,0.0,0.0,0.0,0.0,0.0,0.0,0.0,0.0,0.0,0.0,0.0,0.0,0.0,0.0,0.0,0.0,0.0,0.0,0.0,0.0,0.0,0.0,0.0,0.0,0.0,0.0,0.0,0.0,0.0,0.0,0.0,0.0,0.0,0.0,0.0,0.0,0.0,0.0,0.0,0.0,0.0,0.0,0.0,0.0,0.0,0.0,0.0,0.0,0.0,0.0,0.0,0.0,0.0,0.0,0.0,0.0,0.0,0.0,0.0,0.0,0.0,0.0,0.0,0.0,0.0,0.0,0.0,0.0,0.0,0.0,0.0,0.0,0.0,0.0,0.0,0.0,0.0,0.0,0.0,0.0,0.0,0.0,0.0,0.0,0.0,0.0,0.0,0.0,0.0,0.0,0.0,0.0,0.0,0.0,0.0,0.0,0.0,0.0,0.0,0.0,0.0,0.0,0.0,0.0,0.0,0.0,0.0,0.0,0.0,0.0,0.0,0.0,0.0,0.0,0.0,0.0,0.0,0.0,0.0,0.0,0.0,0.0,0.0,0.0,0.0,0.0,0.0,0.0,0.0,0.0,0.0,0.0,0.0,0.0,0.0,0.0,0.0,0.0,0.0,0.0,0.0,0.0,0.0,0.0,0.0,0.0,0.0,0.0,0.0,0.0,0.0,0.0,0.0,0.0,0.0,0.0,0.0,0.0,0.0,0.0,0.0,0.0,0.0,0.0,0.0,0.0,0.0,0.0,0.0,0.0,0.0,0.0,0.0,0.0,0.0,0.0,0.0,0.0,0.0,0.0,0.0,0.0,0.0,0.0,0.0,0.0,0.0,0.0,0.0,0.0,0.0,0.0,0.0,0.0,0.0,0.0,0.0,0.0,0.0,0.0,0.0,0.0,0.0,0.0,0.0,0.0,0.0,0.0,0.0,0.0,0.0,0.0,0.0,0.0,0.0,0.0,0.0,0.0,0.0,0.0,0.0,0.0,0.0,0.0,0.0,0.0,0.0,0.0,0.0,0.0,0.0,0.0,0.0,0.0,0.0,0.0,0.0,0.0,0.0,0.0,0.0,0.0,0.0,0.0,0.0,0.0,0.0,0.0,0.0,0.0,0.0,0.0,0.0,0.0,0.0,0.0,0.0,0.0,0.0,0.0,0.0,0.0,0.0,0.0,0.0,0.0,0.0,0.0,0.0,0.0,0.0,0.0,0.0,0.0,0.0,0.0,0.0,0.0,0.0,0.0,0.0,0.0,0.0,0.0,0.0,0.0,0.0,0.0,0.0,0.0,0.0,0.0,0.0,0.0,0.0,0.0,0.0,0.0,0.0,0.0,0.0,0.0,0.0,0.0,0.0,0.0,0.0,0.0,0.0,0.0,0.0,0.0,0.0,0.0,0.0,0.0,0.0,0.0,0.0,0.0,0.0,0.0,0.0,0.0,0.0,0.0,0.0,0.0,0.0,0.0,0.0,0.0,0.0,0.0,0.0,0.0,0.0,0.0,0.0,0.0,0.0,0.0,0.0,0.0,0.0,0.0,0.0,0.0,0.0,0.0,0.0,0.0,0.0,0.0,0.0,0.0,0.0,0.0,0.0,0.0,0.0,0.0,0.0,0.0,0.0,0.0,0.0,0.0,0.0,0.0,0.0,0.0,0.0,0.0,0.0,0.0,0.0,0.0,0.0,0.0,0.0,0.0,0.0,0.0,0.0,0.0,0.0,0.0,0.0,0.0,0.0,0.0,0.0,0.0,0.0,0.0,0.0,0.0,0.0,0.0,0.0,0.0,0.0,0.0,0.0,0.0,0.0,0.0,0.0,0.0,0.0,0.0,0.0,0.0,0.0,0.0,0.0,0.0,0.0,0.0,0.0,0.0,0.0,0.0,0.0,0.0,0.0,0.0,0.0,0.0,0.0,0.0,0.0,0.0,0.0,0.0,0.0,0.0,0.0,0.0,0.0,0.0,0.0,0.0,0.0,0.0,0.0,0.0,0.0,0.0,0.0,0.0,0.0,0.0,0.0,0.0,0.0,0.0,0.0,0.0,0.0,0.0,0.0,0.0,0.0,0.0,0.0,0.0,0.0,0.0,0.0,0.0,0.0,0.0,0.0,0.0,0.0,0.0,0.0,0.0,0.0,0.0,0.0,0.0,0.0,0.0,0.0,0.0,0.0,0.0,0.0,0.0,0.0,0.0,0.0,0.0,0.0,0.0,0.0,0.0,0.0,0.0,0.0,0.0,0.0,0.0,0.0,0.0,0.0,0.0,0.0,0.0,0.0,0.0,0.0,0.0,0.0,0.0,0.0,0.0,0.0,0.0,0.0,0.0,0.0,0.0,0.0,0.0,0.0,0.0,0.0,0.0,0.0,0.0,0.0,0.0,0.0,0.0,0.0,0.0,0.0,0.0,0.0,0.0,0.0,0.0,0.0,0.0,0.0,0.0,0.0,0.0,0.0,0.0,0.0,0.0,0.0,0.0,0.0,0.0,0.0,0.0,0.0,0.0,0.0,0.0,0.0,0.0,0.0,0.0,0.0,0.0,0.0,0.0,0.0,0.0,0.0,0.0,0.0,0.0,0.0,0.0,0.0,0.0,0.0,0.0,0.0,0.0,0.0,0.0,0.0,0.0,0.0,0.0,0.0,0.0,0.0,0.0,0.0,0.0,0.0,0.0,0.0,0.0,0.0,0.0,0.0,0.0,0.0,0.0,0.0,0.0,0.0,0.0,0.0,0.0,0.0,0.0,0.0,0.0,0.0,0.0,0.0,0.0,0.0,0.0,0.0,0.0,0.0,0.0,0.0,0.0,0.0,0.0,0.0,0.0,0.0,0.0,0.0,0.0,0.0,0.0,0.0,0.0,0.0,0.0,0.0,0.0,0.0,0.0,0.0,0.0,0.0,0.0,0.0,0.0,0.0,0.0,0.0,0.0,0.0,0.0,0.0,0.0,0.0,0.0,0.0,0.0,0.0,0.0,0.0,0.0,0.0,0.0,0.0,0.0,0.0,0.0,0.0,0.0,0.0,0.0,0.0,0.0,0.0,0.0,0.0,0.0,0.0,0.0,0.0,0.0,0.0,0.0,0.0,0.0,0.0,0.0,0.0,0.0,0.0,0.0,0.0,0.0,0.0,0.0,0.0,0.0,0.0,0.0,0.0,0.0,0.0,0.0,0.0,0.0,0.0,0.0,0.0,0.0,0.0,0.0,0.0,0.0,0.0,0.0,0.0,0.0,0.0,0.0,0.0,0.0,0.0,0.0,0.0,0.0,0.0,0.0,0.0,0.0,0.0,0.0,0.0,0.0,0.0,0.0,0.0,0.0,0.0,0.0,0.0,0.0,0.0,0.0,0.0,0.0,0.0,0.0,0.0,0.0,0.0,0.0,0.0,0.0,0.0,0.0,0.0,0.0,0.0,0.0,0.0,0.0,0.0,0.0,0.0,0.0,0.0,0.0,0.0,0.0,0.0,0.0,0.0,0.0,0.0,0.0,0.0,0.0,0.0,0.0,0.0,0.0,0.0,0.0,0.0,0.0,0.0,0.0,0.0,0.0,0.0,0.0,0.0,0.0,0.0,0.0,0.0,0.0,0.0,0.0,0.0,0.0,0.0,0.0,0.0,0.0,0.0,0.0,0.0,0.0,0.0,0.0,0.0,0.0,0.0,0.0,0.0,0.0,0.0,0.0,0.0,0.0,0.0,0.0,0.0,0.0,0.0,0.0,0.0,0.0,0.0,0.0,0.0,0.0,0.0,0.0,0.0,0.0,0.0,0.0,0.0,0.0,0.0,0.0,0.0,0.0,0.0,0.0,0.0,0.0,0.0,0.0,0.0,0.0,0.0,0.0,0.0,0.0,0.0,0.0,0.0,0.0,0.0,0.0,0.0,0.0,0.0,0.0,0.0,0.0,0.0,0.0,0.0,0.0,0.0,0.0,0.0,0.0,0.0,0.0,0.0,0.0,0.0,0.0,0.0,0.0,0.0,0.0,0.0,0.0,0.0,1.3597,0.0,0.0,0.0,0.0,0.0,0.0,0.0,0.0,0.0,0.0,0.0,0.0,0.0,0.0,0.0,0.0,0.0,0.0,0.0,0.0,0.0,0.0,0.0,0.0,0.0,0.0,0.0,0.0,0.0,0.0,0.0,0.0,0.0,0.0,0.0,0.0,0.0,0.0,0.0,0.0,0.0,0.0,0.0,0.0,0.0,0.0,0.0,0.0,0.0,0.0,0.0,0.0,0.0,0.0,0.0,0.0,0.0,0.0,0.0,0.0,0.0,0.0,0.0,0.0,0.0,0.0,0.0,0.0,0.0,0.0,0.0,0.0,0.0,0.0,0.0,0.0,0.0,0.0,0.0,0.0,0.0,0.0,0.0,0.0,0.0,0.0,0.0,0.0,0.0,0.0,0.0,0.0,0.0,0.0,0.0,0.0,0.0,0.0,0.0,0.0,0.0,0.0,0.0,0.0,0.0,0.0,0.0,0.0,0.0,0.0,1.3543,1.3615,1.3469,1.3484,1.357,0.0,0.0,0.0,0.0,0.0,0.0,0.0,0.0,0.0,0.0,0.0,0.0,0.0,0.0,0.0,0.0,0.0,0.0,0.0,0.0,0.0,0.0,0.0,0.0,0.0,0.0,0.0,0.0,0.0,0.0,0.0,0.0,0.0,0.0,0.0,0.0,0.0,0.0,0.0,0.0,0.0,0.0,0.0,0.0,0.0,0.0,0.0,0.0,0.0,0.0,0.0,0.0,0.0,0.0,0.0,0.0,0.0,0.0,0.0,0.0,0.0,0.0,0.0,0.0,0.0,0.0,0.0,0.0,0.0,0.0,0.0,0.0,0.0,0.0,0.0,0.0,0.0,0.0,0.0,0.0,0.0,0.0,0.0,0.0,0.0,0.0,0.0,0.0,0.0,0.0,0.0,0.0,0.0,0.0,0.0,0.0,0.0,0.0,0.0,0.0,0.0,0.0,0.0,0.0,0.0,0.0,0.0,0.0,0.0,0.0,0.0,0.0,1.409,1.4064,1.4076,0.0,0.0,0.0,0.0,0.0,0.0,0.0,0.0,0.0,0.0,0.0,0.0,0.0,0.0,0.0,0.0,0.0,0.0,0.0,0.0,0.0,0.0,0.0,0.0,0.0,0.0,0.0,0.0,0.0,0.0,0.0,0.0,0.0,0.0,0.0,0.0,0.0,0.0,0.0,0.0,0.0,0.0,0.0,0.0,0.0,0.0,0.0,0.0,0.0,0.0,0.0,0.0,0.0,0.0,0.0,0.0,0.0,0.0,0.0,0.0,0.0,0.0,0.0,0.0,0.0,0.0,0.0,0.0,0.0,0.0,0.0,0.0,0.0,0.0,0.0,0.0,0.0,0.0,0.0,0.0,0.0,0.0,0.0,0.0,0.0,0.0,0.0,0.0,0.0,0.0,0.0,0.0,0.0,0.0,0.0,0.0,0.0,0.0,0.0,0.0,0.0,0.0,0.0,0.0,0.0,0.0,0.0,0.0,0.0,0.0,1.4208,1.5476,1.549,0.0,1.5504,0.0,0.0,0.0,0.0,0.0,0.0,0.0,0.0,0.0,0.0,0.0,0.0,0.0,0.0,0.0,0.0,0.0,0.0,0.0,0.0,0.0,0.0,0.0,0.0,0.0,0.0,0.0,0.0,0.0,0.0,0.0,0.0,0.0,0.0,0.0,0.0,0.0,0.0,0.0,0.0,0.0,0.0,0.0,0.0,0.0,0.0,0.0,0.0,0.0,0.0,0.0,0.0,0.0,0.0,0.0,0.0,0.0,0.0,0.0,0.0,0.0,0.0,0.0,0.0,0.0,0.0,0.0,0.0,0.0,0.0,0.0,0.0,0.0,0.0,0.0,0.0,0.0,0.0,0.0,0.0,0.0,0.0,0.0,0.0,0.0,0.0,0.0,0.0,0.0,0.0,0.0,0.0,0.0,0.0,0.0,0.0,0.0,0.0,0.0,0.0,0.0,0.0,0.0,0.0,0.0,0.0,0.0,0.0,0.0,0.0,0.0,1.5677,1.5677,1.5677,0.0,0.0,0.0,0.0,0.0,0.0,0.0,0.0,0.0,0.0,0.0,0.0,0.0,0.0,0.0,0.0,0.0,0.0,0.0,0.0,0.0,0.0,0.0,0.0,0.0,0.0,0.0,0.0,0.0,0.0,0.0,0.0,0.0,0.0,0.0,0.0,0.0,0.0,0.0,0.0,0.0,0.0,0.0,0.0,0.0,0.0,0.0,0.0,0.0,0.0,0.0,0.0,0.0,0.0,0.0,0.0,0.0,0.0,0.0,0.0,0.0,0.0,0.0,0.0,0.0,0.0,0.0,0.0,0.0,0.0,0.0,0.0,0.0,0.0,0.0,0.0,0.0,0.0,0.0,0.0,0.0,0.0,0.0,0.0,0.0,0.0,0.0,0.0,0.0,0.0,0.0,0.0,0.0,0.0,0.0,0.0,0.0,0.0,0.0,0.0,0.0,0.0,0.0,0.0,0.0,0.0,0.0,0.0,0.0,0.0,1.538,0.0,1.6229,1.6249,1.6091,1.5697,0.0,0.0,0.0,0.0,0.0,0.0,0.0,0.0,0.0,0.0,0.0,0.0,0.0,0.0,0.0,0.0,0.0,0.0,0.0,0.0,0.0,0.0,0.0,0.0,0.0,0.0,0.0,0.0,0.0,0.0,0.0,0.0,0.0,0.0,0.0,0.0,0.0,0.0,0.0,0.0,0.0,0.0,0.0,0.0,0.0,0.0,0.0,0.0,0.0,0.0,0.0,0.0,0.0,0.0,0.0,0.0,0.0,0.0,0.0,0.0,0.0,0.0,0.0,0.0,0.0,0.0,0.0,0.0,0.0,0.0,0.0,0.0,0.0,0.0,0.0,0.0,0.0,0.0,0.0,0.0,0.0,0.0,0.0,0.0,0.0,0.0,0.0,0.0,0.0,0.0,0.0,0.0,0.0,0.0,0.0,0.0,0.0,0.0,0.0,0.0,0.0,0.0,0.0,0.0,0.0,0.0,0.0,0.0,0.0,1.6298,1.6304,1.7572,1.7613,1.7014,0.0,0.0,0.0,0.0,0.0,0.0,0.0,0.0,0.0,0.0,0.0,0.0,0.0,0.0,0.0,0.0,0.0,0.0,0.0,0.0,0.0,0.0,0.0,0.0,0.0,0.0,0.0,0.0,0.0,0.0,0.0,0.0,0.0,0.0,0.0,0.0,0.0,0.0,0.0,0.0,0.0,0.0,0.0,0.0,0.0,0.0,0.0,0.0,0.0,0.0,0.0,0.0,0.0,0.0,0.0,0.0,0.0,0.0,0.0,0.0,0.0,0.0,0.0,0.0,0.0,0.0,0.0,0.0,0.0,0.0,0.0,0.0,0.0,0.0,0.0,0.0,0.0,0.0,0.0,0.0,0.0,0.0,0.0,0.0,0.0,0.0,0.0,0.0,0.0,0.0,0.0,0.0,0.0,0.0,0.0,0.0,0.0,0.0,0.0,0.0,0.0,0.0,0.0,0.0,0.0,0.0,0.0,0.0,0.0,1.5029,1.549,1.6789,1.8882,1.7354,1.6587,0.0,0.0,0.0,0.0,0.0,0.0,0.0,0.0,0.0,0.0,0.0,0.0,0.0,0.0,0.0,0.0,0.0,0.0,0.0,0.0,0.0,0.0,0.0,0.0,0.0,0.0,0.0,0.0,0.0,0.0,0.0,0.0,0.0,0.0,0.0,0.0,0.0,0.0,0.0,0.0,0.0,0.0,0.0,0.0,0.0,0.0,0.0,0.0,0.0,0.0,0.0,0.0,0.0,0.0,0.0,0.0,0.0,0.0,0.0,0.0,0.0,0.0,0.0,0.0,0.0,0.0,0.0,0.0,0.0,0.0,0.0,0.0,0.0,0.0,0.0,0.0,0.0,0.0,0.0,0.0,0.0,0.0,0.0,0.0,0.0,0.0,0.0,0.0,0.0,0.0,0.0,0.0,0.0,0.0,0.0,0.0,0.0,0.0,0.0,0.0,0.0,0.0,0.0,0.0,0.0,0.0,0.0,0.0,0.0,1.4932,0.0,1.7722,0.0,1.7326,1.6359,0.0,0.0,0.0,0.0,0.0,0.0,0.0,0.0,0.0,0.0,0.0,0.0,0.0,0.0,0.0,0.0,0.0,0.0,0.0,0.0,0.0,0.0,0.0,0.0,0.0,0.0,0.0,0.0,0.0,0.0,0.0,0.0,0.0,0.0,0.0,0.0,0.0,0.0,0.0,0.0,0.0,0.0,0.0,0.0,0.0,0.0,0.0,0.0,0.0,0.0,0.0,0.0,0.0,0.0,0.0,0.0,0.0,0.0,0.0,0.0,0.0,0.0,0.0,0.0,0.0,0.0,0.0,0.0,0.0,0.0,0.0,0.0,0.0,0.0,0.0,0.0,0.0,0.0,0.0,0.0,0.0,0.0,0.0,0.0,0.0,0.0,0.0,0.0,0.0,0.0,0.0,0.0,0.0,0.0,0.0,0.0,0.0,0.0,0.0,0.0,0.0,0.0,0.0,0.0,0.0,0.0,0.0,0.0,1.4961,1.7523,1.8944,1.904,1.7812,1.7668,1.6386,0.0,0.0,0.0,0.0,0.0,0.0,0.0,0.0,0.0,0.0,0.0,0.0,0.0,0.0,0.0,0.0,0.0,0.0,0.0,0.0,0.0,0.0,0.0,0.0,0.0,0.0,0.0,0.0,0.0,0.0,0.0,0.0,0.0,0.0,0.0,0.0,0.0,0.0,0.0,0.0,0.0,0.0,0.0,0.0,0.0,0.0,0.0,0.0,0.0,0.0,0.0,0.0,0.0,0.0,0.0,0.0,0.0,0.0,0.0,0.0,0.0,0.0,0.0,0.0,0.0,0.0,0.0,0.0,0.0,0.0,0.0,0.0,0.0,0.0,0.0,0.0,0.0,0.0,0.0,0.0,0.0,0.0,0.0,0.0,0.0,0.0,0.0,0.0,0.0,0.0,0.0,0.0,0.0,0.0,0.0,0.0,0.0,0.0,0.0,0.0,0.0,0.0,0.0,0.0,0.0,0.0,0.0,0.0,0.0,1.636,1.7962,1.9081,1.9465,1.7463,1.6519,0.0,0.0,0.0,0.0,0.0,0.0,0.0,0.0,0.0,0.0,0.0,0.0,0.0,0.0,0.0,0.0,0.0,0.0,0.0,0.0,0.0,0.0,0.0,0.0,0.0,0.0,0.0,0.0,0.0,0.0,0.0,0.0,0.0,0.0,0.0,0.0,0.0,0.0,0.0,0.0,0.0,0.0,0.0,0.0,0.0,0.0,0.0,0.0,0.0,0.0,0.0,0.0,0.0,0.0,0.0,0.0,0.0,0.0,0.0,0.0,0.0,0.0,0.0,0.0,0.0,0.0,0.0,0.0,0.0,0.0,0.0,0.0,0.0,0.0,0.0,0.0,0.0,0.0,0.0,0.0,0.0,0.0,0.0,0.0,0.0,0.0,0.0,0.0,0.0,0.0,0.0,0.0,0.0,0.0,0.0,0.0,0.0,0.0,0.0,0.0,0.0,0.0,0.0,0.0,0.0,0.0,0.0,0.0,0.0,1.8272,1.9473,2.0245,2.0383,1.8182,1.71,1.7335,0.0,0.0,0.0,0.0,0.0,0.0,0.0,0.0,0.0,0.0,0.0,0.0,0.0,0.0,0.0,0.0,0.0,0.0,0.0,0.0,0.0,0.0,0.0,0.0,0.0,0.0,0.0,0.0,0.0,0.0,0.0,0.0,0.0,0.0,0.0,0.0,0.0,0.0,0.0,0.0,0.0,0.0,0.0,0.0,0.0,0.0,0.0,0.0,0.0,0.0,0.0,0.0,0.0,0.0,0.0,0.0,0.0,0.0,0.0,0.0,0.0,0.0,0.0,0.0,0.0,0.0,0.0,0.0,0.0,0.0,0.0,0.0,0.0,0.0,0.0,0.0,0.0,0.0,0.0,0.0,0.0,0.0,0.0,0.0,0.0,0.0,0.0,0.0,0.0,0.0,0.0,0.0,0.0,0.0,0.0,0.0,0.0,0.0,0.0,0.0,0.0,0.0,0.0,0.0,0.0,0.0,0.0,0.0,2.2467,2.3152,2.2637,2.0805,1.9716,1.8173,0.0,0.0,0.0,0.0,0.0,0.0,0.0,0.0,0.0,0.0,0.0,0.0,0.0,0.0,0.0,0.0,0.0,0.0,0.0,0.0,0.0,0.0,0.0,0.0,0.0,0.0,0.0,0.0,0.0,0.0,0.0,0.0,0.0,0.0,0.0,0.0,0.0,0.0,0.0,0.0,0.0,0.0,0.0,0.0,0.0,0.0,0.0,0.0,0.0,0.0,0.0,0.0,0.0,0.0,0.0,0.0,0.0,0.0,0.0,0.0,0.0,0.0,0.0,0.0,0.0,0.0,0.0,0.0,0.0,0.0,0.0,0.0,0.0,0.0,0.0,0.0,0.0,0.0,0.0,0.0,0.0,0.0,0.0,0.0,0.0,0.0,0.0,0.0,0.0,0.0,0.0,0.0,0.0,0.0,0.0,0.0,0.0,0.0,0.0,0.0,0.0,0.0,0.0,0.0,0.0,0.0,0.0,0.0,0.0,2.4856,2.6481,2.6398,2.4414,2.158,1.996,0.0,0.0,0.0,0.0,0.0,0.0,0.0,0.0,0.0,0.0,0.0,0.0,0.0,0.0,0.0,0.0,0.0,0.0,0.0,0.0,0.0,0.0,0.0,0.0,0.0,0.0,0.0,0.0,0.0,0.0,0.0,0.0,0.0,0.0,0.0,0.0,0.0,0.0,0.0,0.0,0.0,0.0,0.0,0.0,0.0,0.0,0.0,0.0,0.0,0.0,0.0,0.0,0.0,0.0,0.0,0.0,0.0,0.0,0.0,0.0,0.0,0.0,0.0,0.0,0.0,0.0,0.0,0.0,0.0,0.0,0.0,0.0,0.0,0.0,0.0,0.0,0.0,0.0,0.0,0.0,0.0,0.0,0.0,0.0,0.0,0.0,0.0,0.0,0.0,0.0,0.0,0.0,0.0,0.0,0.0,0.0,0.0,0.0,0.0,0.0,0.0,0.0,0.0,0.0,0.0,0.0,0.0,0.0,2.541,2.7173,2.9012,2.9318,2.7934,2.4784,2.247,0.0,0.0,0.0,0.0,0.0,0.0,0.0,0.0,0.0,0.0,0.0,0.0,0.0,0.0,0.0,0.0,0.0,0.0,0.0,0.0,0.0,0.0,0.0,0.0,0.0,0.0,0.0,0.0,0.0,0.0,0.0,0.0,0.0,0.0,0.0,0.0,0.0,0.0,0.0,0.0,0.0,0.0,0.0,0.0,0.0,0.0,0.0,0.0,0.0,0.0,0.0,0.0,0.0,0.0,0.0,0.0,0.0,0.0,0.0,0.0,0.0,0.0,0.0,0.0,0.0,0.0,0.0,0.0,0.0,0.0,0.0,0.0,0.0,0.0,0.0,0.0,0.0,0.0,0.0,0.0,0.0,0.0,0.0,0.0,0.0,0.0,0.0,0.0,0.0,0.0,0.0,0.0,0.0,0.0,0.0,0.0,0.0,0.0,0.0,0.0,0.0,0.0,0.0,0.0,0.0,0.0,0.0,0.0,2.8082,2.9415,3.1,3.1566,3.1,2.8312,2.5271,0.0,0.0,0.0,0.0,0.0,0.0,0.0,0.0,0.0,0.0,0.0,0.0,0.0,0.0,0.0,0.0,0.0,0.0,0.0,0.0,0.0,0.0,0.0,0.0,0.0,0.0,0.0,0.0,0.0,0.0,0.0,0.0,0.0,0.0,0.0,0.0,0.0,0.0,0.0,0.0,0.0,0.0,0.0,0.0,0.0,0.0,0.0,0.0,0.0,0.0,0.0,0.0,0.0,0.0,0.0,0.0,0.0,0.0,0.0,0.0,0.0,0.0,0.0,0.0,0.0,0.0,0.0,0.0,0.0,0.0,0.0,0.0,0.0,0.0,0.0,0.0,0.0,0.0,0.0,0.0,0.0,0.0,0.0,0.0,0.0,0.0,0.0,0.0,0.0,0.0,0.0,0.0,0.0,0.0,0.0,0.0,0.0,0.0,0.0,0.0,0.0,0.0,0.0,0.0,0.0,0.0,0.0,0.0,2.9886,3.1527,3.2766,3.3151,3.2614,2.9103,2.6383,0.0,0.0,0.0,0.0,0.0,0.0,0.0,0.0,0.0,0.0,0.0,0.0,0.0,0.0,0.0,0.0,0.0,0.0,0.0,0.0,0.0,0.0,0.0,0.0,0.0,0.0,0.0,0.0,0.0,0.0,0.0,0.0,0.0,0.0,0.0,0.0,0.0,0.0,0.0,0.0,0.0,0.0,0.0,0.0,0.0,0.0,0.0,0.0,1.4622,0.0,0.0,0.0,0.0,0.0,0.0,0.0,0.0,0.0,0.0,0.0,0.0,0.0,0.0,0.0,0.0,0.0,0.0,0.0,0.0,0.0,0.0,0.0,0.0,0.0,0.0,0.0,0.0,0.0,0.0,0.0,0.0,0.0,0.0,0.0,0.0,0.0,0.0,0.0,0.0,0.0,0.0,0.0,0.0,0.0,0.0,0.0,0.0,0.0,0.0,0.0,0.0,0.0,0.0,0.0,0.0,0.0,0.0,0.0,3.1396,3.2606,3.3721,3.4022,3.3423,3.0975,2.848,0.0,0.0,0.0,0.0,0.0,0.0,0.0,0.0,0.0,0.0,0.0,0.0,0.0,0.0,0.0,0.0,0.0,0.0,0.0,0.0,0.0,0.0,0.0,0.0,0.0,0.0,0.0,0.0,0.0,0.0,0.0,0.0,0.0,0.0,0.0,0.0,0.0,0.0,0.0,0.0,0.0,0.0,0.0,0.0,0.0,0.0,0.0,0.0,0.0,0.0,0.0,0.0,0.0,0.0,0.0,0.0,0.0,0.0,0.0,0.0,0.0,0.0,0.0,0.0,0.0,0.0,0.0,0.0,0.0,0.0,0.0,0.0,0.0,0.0,0.0,0.0,0.0,0.0,0.0,0.0,0.0,0.0,0.0,0.0,0.0,0.0,0.0,0.0,0.0,0.0,0.0,0.0,0.0,0.0,0.0,0.0,0.0,0.0,0.0,0.0,0.0,0.0,0.0,0.0,0.0,0.0,0.0,3.0171,3.2541,3.3456,3.4363,3.4564,3.4011,3.2932,3.0592,2.6901,0.0,0.0,0.0,0.0,0.0,0.0,0.0,0.0,0.0,0.0,0.0,0.0,0.0,0.0,0.0,0.0,0.0,0.0,0.0,0.0,0.0,0.0,0.0,0.0,0.0,0.0,0.0,0.0,0.0,0.0,0.0,0.0,0.0,0.0,0.0,0.0,0.0,0.0,1.3579,1.5194,0.0,0.0,0.0,0.0,0.0,0.0,0.0,0.0,1.5904,0.0,0.0,0.0,0.0,0.0,0.0,0.0,0.0,0.0,0.0,0.0,0.0,0.0,0.0,0.0,0.0,0.0,0.0,0.0,0.0,0.0,0.0,0.0,0.0,0.0,0.0,0.0,0.0,0.0,0.0,0.0,0.0,0.0,0.0,0.0,0.0,0.0,0.0,0.0,0.0,0.0,0.0,0.0,0.0,0.0,0.0,0.0,0.0,0.0,0.0,0.0,0.0,0.0,0.0,0.0,0.0,3.0366,3.116,3.2692,3.5043,3.5269,3.5118,3.4577,3.352,3.1346,2.798,0.0,0.0,0.0,0.0,0.0,0.0,0.0,0.0,0.0,0.0,0.0,0.0,0.0,0.0,0.0,0.0,0.0,0.0,0.0,0.0,0.0,0.0,0.0,0.0,0.0,0.0,0.0,0.0,0.0,0.0,0.0,0.0,0.0,0.0,0.0,0.0,0.0,0.0,0.0,1.8203,1.9027,0.0,0.0,0.0,0.0,0.0,0.0,0.0,0.0,1.5704,0.0,0.0,0.0,0.0,0.0,0.0,0.0,0.0,0.0,0.0,0.0,0.0,0.0,0.0,0.0,0.0,0.0,0.0,0.0,0.0,0.0,0.0,0.0,0.0,0.0,0.0,0.0,0.0,0.0,0.0,0.0,0.0,0.0,0.0,0.0,0.0,0.0,0.0,0.0,0.0,0.0,0.0,0.0,0.0,0.0,0.0,0.0,0.0,0.0,0.0,0.0,0.0,0.0,0.0,0.0,2.9945,3.2089,3.3875,3.5433,3.5819,3.5579,3.4703,3.3093,3.0919,0.0,0.0,0.0,0.0,0.0,0.0,0.0,0.0,0.0,0.0,0.0,0.0,0.0,0.0,0.0,0.0,0.0,0.0,0.0,0.0,0.0,0.0,0.0,0.0,0.0,0.0,0.0,0.0,0.0,0.0,0.0,0.0,0.0,0.0,0.0,0.0,0.0,0.0,0.0,0.0,1.8853,1.9616,2.0067,0.0,0.0,0.0,0.0,0.0,0.0,1.7132,1.66,0.0,0.0,0.0,0.0,0.0,0.0,0.0,0.0,0.0,0.0,0.0,0.0,0.0,0.0,0.0,0.0,0.0,0.0,0.0,0.0,0.0,0.0,0.0,0.0,0.0,0.0,0.0,0.0,0.0,0.0,0.0,0.0,0.0,0.0,0.0,0.0,0.0,0.0,0.0,0.0,0.0,0.0,0.0,0.0,0.0,0.0,0.0,0.0,0.0,0.0,0.0,0.0,0.0,0.0,0.0,2.9393,3.257,3.4717,3.5795,3.6194,3.5854,3.4714,3.2893,3.0668,0.0,0.0,0.0,0.0,0.0,0.0,0.0,0.0,0.0,0.0,0.0,0.0,0.0,0.0,0.0,0.0,0.0,0.0,0.0,0.0,0.0,0.0,0.0,0.0,0.0,0.0,0.0,0.0,0.0,0.0,0.0,0.0,0.0,0.0,0.0,0.0,0.0,0.0,0.0,0.0,0.0,2.0345,2.1105,1.9922,0.0,0.0,0.0,0.0,1.8626,1.8585,0.0,0.0,0.0,0.0,0.0,0.0,0.0,0.0,0.0,0.0,0.0,0.0,0.0,0.0,0.0,0.0,0.0,0.0,0.0,0.0,0.0,0.0,0.0,0.0,0.0,0.0,0.0,0.0,0.0,0.0,0.0,0.0,0.0,0.0,0.0,0.0,0.0,0.0,0.0,0.0,0.0,0.0,0.0,0.0,0.0,0.0,0.0,0.0,0.0,0.0,0.0,0.0,0.0,0.0,0.0,0.0,3.0884,3.2003,3.3936,3.6822,3.6619,3.5879,3.4728,3.3986,3.1637,0.0,0.0,0.0,0.0,0.0,0.0,0.0,0.0,0.0,0.0,0.0,0.0,0.0,0.0,0.0,0.0,0.0,0.0,0.0,0.0,0.0,0.0,0.0,0.0,0.0,0.0,0.0,0.0,0.0,0.0,0.0,0.0,0.0,0.0,0.0,0.0,0.0,0.0,0.0,0.0,0.0,2.2956,2.187,2.1197,2.0774,0.0,0.0,0.0,2.1756,2.1611,0.0,0.0,0.0,0.0,0.0,0.0,0.0,0.0,0.0,0.0,0.0,0.0,0.0,0.0,0.0,0.0,0.0,0.0,0.0,0.0,0.0,0.0,0.0,0.0,0.0,0.0,0.0,0.0,0.0,0.0,0.0,0.0,0.0,0.0,0.0,0.0,0.0,0.0,0.0,0.0,0.0,0.0,0.0,0.0,0.0,0.0,0.0,0.0,0.0,0.0,0.0,0.0,0.0,0.0,0.0,2.6255,3.1246,3.3183,3.5091,3.711,3.6984,3.6157,3.4728,3.3258,3.0834,0.0,0.0,0.0,0.0,0.0,0.0,0.0,0.0,0.0,0.0,0.0,0.0,0.0,0.0,0.0,0.0,0.0,0.0,0.0,0.0,0.0,0.0,0.0,0.0,0.0,0.0,0.0,0.0,0.0,0.0,0.0,0.0,0.0,0.0,0.0,0.0,0.0,0.0,0.0,0.0,0.0,0.0,2.3067,2.3043,0.0,0.0,0.0,2.2221,2.2801,0.0,0.0,0.0,0.0,0.0,0.0,0.0,0.0,0.0,0.0,0.0,0.0,0.0,0.0,0.0,0.0,0.0,0.0,0.0,0.0,0.0,0.0,0.0,0.0,0.0,0.0,0.0,0.0,0.0,0.0,0.0,0.0,0.0,0.0,0.0,0.0,0.0,0.0,0.0,0.0,0.0,0.0,0.0,0.0,0.0,0.0,0.0,0.0,0.0,0.0,0.0,0.0,0.0,0.0,0.0,0.0,0.0,3.1738,3.4413,3.6259,3.7349,3.7248,3.6408,3.4728,3.2828,0.0,0.0,0.0,0.0,0.0,0.0,0.0,0.0,0.0,0.0,0.0,0.0,0.0,0.0,0.0,0.0,0.0,0.0,0.0,0.0,0.0,0.0,0.0,0.0,0.0,0.0,0.0,1.1639,0.0,0.0,0.0,0.0,0.0,0.0,0.0,0.0,0.0,0.0,0.0,0.0,0.0,0.0,2.4373,2.4737,2.5189,2.5269,0.0,0.0,2.4508,2.4261,2.443,2.3697,0.0,0.0,0.0,0.0,0.0,0.0,0.0,0.0,0.0,0.0,0.0,0.0,0.0,0.0,0.0,0.0,0.0,0.0,0.0,0.0,0.0,0.0,0.0,0.0,0.0,0.0,0.0,0.0,0.0,0.0,0.0,0.0,0.0,0.0,0.0,0.0,0.0,0.0,0.0,0.0,0.0,0.0,0.0,0.0,0.0,0.0,0.0,0.0,0.0,0.0,0.0,0.0,0.0,0.0,0.0,3.2864,3.5191,3.686,3.7889,3.7475,3.642,3.4764,3.3571,3.0954,0.0,0.0,0.0,0.0,0.0,0.0,0.0,0.0,0.0,0.0,0.0,0.0,0.0,0.0,0.0,0.0,0.0,0.0,0.0,0.0,0.0,0.0,0.0,0.0,0.0,0.0,0.0,0.0,0.0,0.0,0.0,0.0,0.0,0.0,0.0,0.0,0.0,0.0,0.0,0.0,0.0,2.5694,2.6974,2.7574,2.8012,0.0,0.0,2.8105,2.7162,2.775,2.6821,2.2428,0.0,0.0,0.0,0.0,0.0,0.0,0.0,0.0,0.0,0.0,0.0,0.0,0.0,0.0,0.0,0.0,0.0,0.0,0.0,0.0,0.0,0.0,0.0,0.0,0.0,0.0,0.0,0.0,0.0,0.0,0.0,0.0,0.0,0.0,0.0,0.0,0.0,0.0,0.0,0.0,0.0,0.0,0.0,0.0,0.0,0.0,0.0,0.0,0.0,0.0,0.0,0.0,0.0,2.846,3.2501,3.5564,3.7419,3.7965,3.7789,3.6898,3.5244,3.4148,3.1734,0.0,0.0,0.0,0.0,0.0,0.0,0.0,0.0,0.0,0.0,0.0,0.0,0.0,0.0,0.0,0.0,0.0,0.0,0.0,0.0,0.0,0.0,0.0,0.0,0.0,0.0,0.0,0.0,1.4952,1.5208,1.4925,0.0,0.0,0.0,0.0,0.0,0.0,0.0,0.0,0.0,0.0,2.802,2.8242,2.949,0.0,0.0,2.9234,2.9207,2.9104,2.8565,2.7346,2.5076,2.3715,0.0,0.0,0.0,0.0,0.0,0.0,0.0,0.0,0.0,0.0,0.0,0.0,0.0,0.0,0.0,0.0,0.0,0.0,0.0,0.0,0.0,0.0,0.0,0.0,0.0,0.0,0.0,0.0,0.0,0.0,0.0,0.0,0.0,0.0,0.0,0.0,0.0,0.0,0.0,0.0,0.0,0.0,0.0,0.0,0.0,0.0,0.0,0.0,0.0,0.0,0.0,0.0,2.9026,3.2626,3.6091,3.7943,3.8126,3.8228,3.7475,3.5832,3.4714,3.25,0.0,0.0,0.0,0.0,0.0,0.0,0.0,0.0,0.0,0.0,0.0,0.0,0.0,0.0,0.0,0.0,0.0,0.0,0.0,0.0,0.0,0.0,0.0,0.0,0.0,0.0,0.0,0.0,1.6248,1.6258,1.5775,0.0,0.0,0.0,0.0,0.0,0.0,0.0,0.0,0.0,0.0,2.9884,3.0068,3.1309,3.1801,3.0725,3.0426,3.033,3.0375,2.9565,2.8444,2.6961,0.0,0.0,0.0,0.0,0.0,0.0,0.0,0.0,0.0,0.0,0.0,0.0,0.0,0.0,0.0,0.0,0.0,0.0,0.0,0.0,0.0,0.0,0.0,0.0,0.0,0.0,0.0,0.0,0.0,0.0,0.0,0.0,0.0,0.0,0.0,0.0,0.0,0.0,0.0,0.0,0.0,0.0,0.0,0.0,0.0,0.0,0.0,0.0,0.0,0.0,0.0,0.0,0.0,0.0,3.3606,3.6752,3.8396,3.8409,3.8717,3.8089,3.6455,3.5278,3.3205,3.0107,0.0,0.0,0.0,0.0,0.0,0.0,0.0,0.0,0.0,0.0,0.0,0.0,0.0,0.0,0.0,0.0,0.0,0.0,0.0,0.0,0.0,0.0,0.0,0.0,0.0,0.0,1.6458,1.6558,1.6407,0.0,0.0,0.0,0.0,0.0,0.0,0.0,0.0,0.0,0.0,2.903,3.0964,3.2707,3.3047,3.3065,3.3018,3.2506,3.185,3.1003,3.1185,3.0564,0.0,0.0,0.0,0.0,0.0,0.0,0.0,0.0,0.0,0.0,0.0,0.0,0.0,0.0,0.0,0.0,0.0,0.0,0.0,0.0,0.0,0.0,0.0,0.0,0.0,0.0,0.0,2.1348,2.0094,0.0,0.0,0.0,0.0,0.0,0.0,0.0,0.0,0.0,0.0,0.0,2.7644,2.9118,0.0,0.0,0.0,0.0,0.0,0.0,0.0,0.0,0.0,0.0,0.0,0.0,3.0618,3.3208,3.6959,3.8836,3.8678,3.9178,3.8785,3.7486,3.634,3.3609,2.9126,0.0,0.0,0.0,0.0,0.0,0.0,0.0,0.0,0.0,0.0,0.0,0.0,0.0,0.0,0.0,0.0,0.0,0.0,0.0,0.0,0.0,0.0,0.0,0.0,0.0,1.6989,0.0,0.0,0.0,0.0,0.0,0.0,0.0,0.0,0.0,0.0,0.0,2.6451,2.8582,3.0762,3.2525,3.3488,3.3911,3.4162,0.0,0.0,0.0,0.0,0.0,0.0,0.0,0.0,0.0,0.0,0.0,0.0,0.0,0.0,3.0218,2.4404,2.3006,2.2948,2.3537,0.0,0.0,0.0,0.0,0.0,0.0,0.0,0.0,0.0,0.0,0.0,0.0,0.0,0.0,0.0,0.0,2.2878,0.0,0.0,0.0,0.0,0.0,0.0,0.0,0.0,2.9562,3.1061,3.114,3.2604,3.2535,0.0,3.0887,2.8987,0.0,0.0,0.0,0.0,0.0,0.0,0.0,0.0,3.1636,3.4167,3.7488,3.9115,3.8971,3.963,3.953,3.8593,3.6996,3.4204,3.0133,2.9081,2.7145,0.0,0.0,0.0,0.0,0.0,0.0,0.0,0.0,0.0,0.0,0.0,0.0,0.0,0.0,0.0,0.0,0.0,0.0,0.0,0.0,0.0,0.0,0.0,1.8437,0.0,0.0,0.0,0.0,0.0,0.0,0.0,0.0,0.0,2.5302,2.7137,2.9179,3.0879,3.2411,3.3581,3.4087,0.0,0.0,0.0,0.0,0.0,0.0,0.0,3.3316,3.3858,3.3068,3.2357,3.2334,3.3567,3.4449,3.4034,0.0,0.0,2.889,2.7492,2.7397,2.8018,2.8484,2.8855,2.9046,2.982,3.04,0.0,0.0,0.0,0.0,0.0,0.0,0.0,0.0,2.6417,2.6409,0.0,2.5706,0.0,0.0,0.0,0.0,0.0,0.0,0.0,0.0,3.3217,3.4559,3.4591,3.4716,3.4669,3.4659,3.521,3.4709,3.311,2.8065,0.0,0.0,0.0,0.0,0.0,0.0,3.2991,3.6516,3.8443,3.9296,3.935,4.0126,4.0259,3.963,3.7255,3.5061,3.3147,3.1626,2.9696,2.7318,2.5435,0.0,0.0,0.0,0.0,0.0,0.0,0.0,0.0,0.0,0.0,0.0,0.0,0.0,0.0,0.0,0.0,0.0,0.0,0.0,0.0,2.0241,0.0,0.0,0.0,0.0,0.0,0.0,0.0,0.0,0.0,0.0,2.9285,3.0884,3.2656,3.3786,0.0,0.0,0.0,0.0,3.4792,3.4853,3.4828,3.4828,3.4842,3.5691,3.6155,3.5645,0.0,0.0,3.5104,3.5755,3.6182,3.513,3.5919,3.6532,3.6445,3.435,3.3171,3.3911,3.3092,3.2796,3.3971,3.4643,3.5463,3.3471,0.0,0.0,0.0,0.0,3.0318,3.1304,3.2787,3.2202,3.114,2.9737,2.9423,0.0,0.0,0.0,0.0,0.0,0.0,3.2452,3.3338,3.6722,3.8401,3.8587,3.9722,4.0017,3.9595,3.9395,3.888,3.7986,3.6048,3.2211,2.6746,0.0,0.0,0.0,0.0,3.6569,3.8883,4.0653,4.1404,4.1147,4.1324,4.0846,3.9667,3.8823,3.7309,3.5087,3.3924,3.2344,3.0174,2.8177,0.0,0.0,0.0,0.0,0.0,0.0,0.0,0.0,0.0,0.0,0.0,0.0,0.0,0.0,0.0,0.0,0.0,0.0,0.0,2.0848,2.1467,2.1865,0.0,0.0,0.0,0.0,0.0,0.0,0.0,0.0,0.0,3.4145,3.3721,3.3811,0.0,0.0,3.5255,3.5817,3.6244,3.6634,3.6998,0.0,0.0,0.0,3.6671,3.6607,3.7199,3.7914,3.824,3.7788,3.8278,3.8781,3.8781,3.9082,3.9446,3.9684,3.7766,3.6173,3.6274,3.631,3.6409,3.6834,3.7129,3.735,3.9963,3.5414,3.518,3.5065,3.5023,3.463,3.5417,3.6864,3.5872,3.4894,3.4016,3.3571,3.2071,2.9884,2.9815,0.0,0.0,0.0,3.6018,3.7399,3.9567,4.08,4.1222,4.2172,4.2423,4.2061,4.1755,4.1564,4.1548,4.0949,3.8177,3.347,0.0,0.0,3.4161,3.691,3.9232,4.1081,4.2262,4.2607,4.2161,4.2316,4.1969,4.1135,4.0447,3.9188,3.7305,3.6065,3.4538,3.2607,3.0842,2.8646,0.0,0.0,0.0,0.0,0.0,0.0,0.0,0.0,0.0,0.0,0.0,1.9736,0.0,0.0,0.0,0.0,2.1272,2.2573,2.3685,2.4272,0.0,0.0,0.0,0.0,0.0,0.0,0.0,3.3836,3.5002,3.5917,3.6872,3.618,3.5768,3.6409,3.6309,3.6371,3.6959,0.0,3.7638,3.7952,3.8191,3.8354,3.8354,3.7977,3.8002,3.8831,3.927,3.9622,3.9848,4.0124,4.0437,4.0738,4.0826,4.0926,4.1239,3.9897,3.8831,3.8831,3.9082,3.9295,3.9295,3.9295,3.9308,4.6112,4.384,4.108,4.0078,4.0177,3.9305,3.9196,3.9534,3.8089,3.7994,3.8813,3.7836,3.7047,3.64,3.5437,0.0,0.0,3.8834,3.9954,4.1857,4.1999,4.2339,4.2833,4.2951,4.2973,4.3012,4.2973,4.3404,4.4101,4.3627,4.2806,4.176,3.9946,3.9177,3.9546,4.0123,4.1345,4.3227,4.3521,4.3314,4.2705,4.3228,4.3515,4.3436,4.2067,4.072,3.9484,3.7896,3.6251,3.4554,3.3257,3.1116,2.791,0.0,0.0,0.0,0.0,0.0,0.0,0.0,0.0,0.0,0.0,0.0,0.0,0.0,0.0,0.0,2.4668,0.0,2.7412,2.7971,0.0,0.0,0.0,2.8485,3.0266,3.2231,3.388,3.4965,0.0,0.0,0.0,0.0,3.8266,3.8253,3.7751,3.7525,3.8015,3.8115,3.8128,3.8216,3.8617,3.8969,3.907,3.9434,3.9873,4.0362,4.0549,4.0713,4.1088,4.1214,4.1264,4.1378,4.1378,4.1428,4.1414,4.1403,4.1453,4.1352,4.1264,4.1214,4.1138,4.1127,4.1088,4.8484,4.7876,4.7174,4.5284,4.2737,4.2492,4.2172,4.1825,4.1424,4.1146,4.0963,4.0719,4.0269,3.9763,3.9901,4.0298,4.0944,4.2099,4.275,4.3071,4.4527,4.5167,4.508,4.5826,4.6184,4.6184,4.6184,4.6293,4.6488,4.6351,4.5886,4.5173,4.5145,4.3761,4.1105,4.3002,4.4519,4.5486,4.557,4.5175,4.4299,4.4881,4.4858,4.4083,4.3549,4.2236,4.0073,3.8325,3.6679,3.5146,3.3959,3.2545,3.0803,2.7058,0.0,0.0,0.0,0.0,0.0,0.0,0.0,0.0,0.0,2.4366,2.0191,0.0,2.4832,0.0,2.6859,2.8414,2.9136,2.9679,0.0,0.0,3.215,3.3102,3.5753,3.6344,3.7036,3.8366,3.9333,4.0048,4.0461,4.0524,4.0524,4.0499,3.9358,3.8542,3.8693,3.9057,3.9295,3.9308,3.9434,3.966,4.0049,4.0563,4.0926,4.1102,4.1127,4.1177,4.1264,4.1289,4.1453,4.187,4.1984,4.2121,4.2498,4.2585,4.2585,4.2534,4.1918,4.1289,4.1289,4.1314,4.1314,4.9972,4.9733,5.0014,4.8768,4.6459,4.5775,4.5264,4.4864,4.4451,4.4069,4.3754,4.3765,4.3845,4.3942,4.3817,4.4231,4.5104,4.5457,4.5761,4.6098,4.7159,4.7554,4.7394,4.7926,4.8188,4.8188,4.8188,4.8188,4.8188,4.8188,4.8008,4.7649,4.8008,4.6938,4.4617,4.5615,4.6371,4.673,4.6461,4.6175,4.5925,4.5697,4.531,4.4753,4.3874,4.2381,4.0173,3.8726,3.7056,3.5157,3.4441,3.3397,3.1852,2.9018,2.6919,0.0,0.0,0.0,0.0,0.0,0.0,0.0,0.0,0.0,0.0,0.0,2.7616,0.0,0.0,0.0,3.2478,3.3261,3.4325,3.5798,3.604,3.6986,3.9259,3.9246,3.9474,4.0522,4.1018,4.1335,4.1505,4.1611,4.1651,4.1556,4.0748,4.0142,4.0037,4.0236,4.0412,4.0412,4.0412,4.0512,4.0826,4.1088,4.1403,4.1656,4.1706,4.1768,4.2019,4.2044,4.2183,4.2487,4.2537,4.2637,4.2939,4.3215,4.3352,4.3288,4.3073,4.2632,4.2144,4.2044,4.2069,5.0835,5.0387,5.0978,5.0865,5.0209,4.8816,4.8156,4.7922,4.7069,4.6699,4.667,4.667,4.7176,4.7911,4.7081,4.7636,4.9209,4.8392,4.8461,4.9265,4.9288,4.9288,4.9288,4.9288,4.9288,4.9288,4.9288,4.9288,4.9288,4.9288,4.9288,4.9288,4.9288,4.9018,4.8438,4.7859,4.7489,4.7309,4.6719,4.6719,4.7279,4.6082,4.5404,4.5243,4.3654,4.1853,3.9972,3.9051,3.7416,3.5002,3.4989,3.4201,3.2362,3.0894,2.9659,0.0,2.7257,0.0,0.0,0.0,0.0,0.0,0.0,0.0,0.0,2.9781,3.0902,3.2484,3.3992,3.5277,3.6303,3.7413,3.8291,3.8811,3.9396,4.0198,4.1324,4.1321,4.1393,4.1914,4.2229,4.2333,4.2157,4.228,4.2333,4.2183,4.2092,4.1922,4.1678,4.1406,4.1227,4.1289,4.1364,4.1391,4.1441,4.1518,4.181,4.2254,4.2382,4.2517,4.2933,4.2978,4.2975,4.2975,4.3065,4.3101,4.3101,4.3539,4.389,4.3915,4.422,4.4224,4.3467,4.3201,4.3215,5.1116,5.1038,5.1146,5.1116,5.0973,5.0701,4.9988,4.9005,4.8805,4.8736,4.8736,4.8725,4.8857,4.9005,4.8805,4.896,4.9265,4.9107,4.9119,4.9288,4.9288,4.9288,4.9288,4.9288,4.9288,4.9288,4.9288,4.9288,4.9288,4.9288,4.9288,4.9288,4.9288,4.9258,0.0,0.0,0.0,0.0,4.7149,4.7179,4.7268,4.652,4.5862,4.5274,4.3449,0.0,3.9402,3.9093,3.7872,3.5561,3.6384,0.0,0.0,0.0,0.0,0.0,0.0,0.0,0.0,0.0,0.0,0.0,3.2649,3.1812,3.1068,3.344,3.5014,3.4955,3.681,3.8108,3.835,3.9761,4.0722,4.0875,4.1544,4.2021,4.2069,4.2573,4.2907,4.2782,4.3257,4.3553,4.3512,4.3539,4.3553,4.3512,4.3498,4.3496,4.3402,4.2243,4.1352,4.1314,4.1744,4.2048,4.2034,4.254,4.2943,4.316,4.3146,4.321,4.3298,4.3142,4.3014,4.3053,4.3366,4.3653,4.3668,4.4077,4.4482,4.4453,4.4771,4.4857,4.4411,4.4303,4.4375,5.1708,0.0,5.1325,5.1217,0.0,5.1217,5.0828,5.0253,5.0253,5.0253,5.0253,5.0223,5.0242,5.0242,5.0253,5.0253,5.0253,5.0253,5.0253,5.0223,5.0253,5.0242,5.0253,5.0212,5.0253,5.0253,5.0223,5.0223,5.0253,5.0242,5.0223,5.0242,5.0253,5.0062,4.9733,4.9456,4.8798,4.7788,4.7799,4.7638,4.7268,4.6629,4.5822,4.4815,0.0,0.0,0.0,0.0,0.0,0.0,0.0,0.0,0.0,0.0,0.0,3.3881,3.3268,3.3149,3.3695,3.4033,3.5003,3.6941,3.7687,3.7119,3.5018,3.6792,3.8211,3.8767,3.9773,4.0435,4.0731,4.1505,4.2124,4.2421,4.2771,4.3186,4.3769,4.4106,4.4336,4.4509,4.4916,4.5139,4.4958,4.4811,4.4813,4.4894,4.47,4.4581,4.4566,4.3374,4.2336,4.2199,4.2647,4.2918,4.2723,4.3176,4.3598,4.3462,4.3531,4.3639,4.3653,4.3529,4.3522,4.3776,4.408,4.432,4.4664,4.5131,4.5497,4.5497,4.5628,4.5686,4.5476,4.5027,4.4703,5.2366,5.2306,5.1654,5.1367,5.1355,5.1236,5.1217,5.1217,0.0,0.0,0.0,5.1217,5.1217,5.1217,5.1217,5.1217,5.1217,5.1217,5.1217,5.1217,5.1217,5.1217,5.1217,5.1217,5.1217,5.1217,5.1217,5.1217,5.1217,5.1217,5.1217,5.1217,5.1217,5.0936,5.0387,4.9894,4.9307,4.8667,4.8547,4.8158,4.7489,4.682,4.5822,4.4506,4.3728,4.2502,4.0825,4.0846,4.0318,3.9032,3.9168,3.8769,3.7693,3.8013,3.8082,3.7776,3.8175,3.8527,3.8655,3.867,3.9102,4.0136,4.1519,4.143,3.9216,3.9751,4.0801,4.2225,4.2242,4.2398,4.2943,4.2995,4.3215,4.3786,4.3733,4.4125,4.5188,4.5247,4.5186,4.5705,4.5875,4.6062,4.5707,4.5469,4.5514,4.5643,4.525,4.5167,4.5194,4.4412,4.3674,4.3394,4.3825,4.4013,4.3694,4.3968,4.414,4.4052,4.4177,4.4251,4.4251,4.4235,4.4375,4.4743,4.4862,4.5039,4.5488,4.583,4.6217,4.6228,4.6301,4.633,4.6253,4.5565,4.4937,5.3079,5.3007,5.2336,5.2055,5.2037,5.1427,5.1217,5.1217,5.1217,5.1217,5.1217,5.1217,5.1217,5.1217,5.1217,5.1217,5.1217,5.1217,5.1217,0.0,5.1217,5.1217,5.1217,5.1217,5.1217,5.1217,5.1217,5.1217,5.1217,5.1217,5.1217,5.1217,5.1217,5.1146,5.1056,5.0978,5.0619,4.9949,4.9415,4.8828,4.8158,4.7508,4.652,4.5185,4.3997,4.296,4.2161,4.269,4.2495,4.1564,4.2532,4.2487,4.11,4.1059,4.0946,4.0571,4.0603,4.092,4.1529,4.1584,4.1872,4.2461,4.2775,4.254,4.1782,4.22,4.2644,4.2905,4.3297,4.3846,4.4394,4.4393,4.4549,4.511,4.4823,4.4628,4.4878,4.4877,4.4888,4.5044,4.4903,4.5034,4.5084,4.4955,4.4968,4.4928,4.5095,4.4792,4.4751,4.4988,4.5024,4.4686,4.4985,4.5269,4.4979,4.5439,4.548,4.5649,4.5546,4.5525,4.5576,4.533,4.5254,4.5454,4.5446,4.5483,4.5637,4.5577,4.5748,4.5791,4.5948,4.6039,4.6053,4.5679,4.5451,5.3743,5.3653,5.3025,5.2737,5.2677,5.2037,5.1546,5.1217,5.1217,5.1217,5.1217,5.1217,5.1217,5.1217,5.1217,5.1217,5.1217,5.1217,5.1217,5.1217,5.1217,5.1217,5.1217,5.1217,5.1217,5.1247,5.1576,5.1768,5.1738,5.1726,5.1768,5.1696,5.1397,5.1217,5.1217,5.1217,5.1056,5.0757,5.011,4.9464,4.8858,4.8558,4.7919,4.695,4.6311,4.5544,4.4556,4.4815,4.4779,4.4364,4.4866,4.4845,4.4026,4.4282,4.4158,4.3505,4.3756,4.3779,4.3494,4.3268,4.3232,4.3494,4.4348,4.4466,4.3611,4.3493,4.3598,4.3898,4.4186,4.446,4.4708,4.4721,4.4799,4.5087,4.4852,4.4838,4.5113,4.5191,4.5296,4.5597,4.5663,4.5689,4.5689,4.5388,4.5362,4.5584,4.5663,4.5489,4.5065,4.5577,4.56,4.46,4.4753,4.4924,4.4806,4.5332,4.5655,4.5585,4.5695,4.5909,4.6105,4.5745,4.5482,4.5922,4.583,4.5767,4.5974,4.6063,4.6038,4.6012,4.5823,4.5831,4.5755,4.5462,4.5175,5.4418,5.4359,5.3713,5.3348,5.3169,5.2648,5.2025,5.1457,5.1415,5.1337,5.1206,5.1217,5.1217,5.1217,5.1217,5.1217,5.1217,5.1217,5.1217,5.1217,5.1217,5.1217,5.1217,5.1217,5.1217,5.1247,5.1726,5.1977,5.1965,5.1965,5.1965,5.1917,5.1457,5.1217,5.1217,5.1217,5.1217,5.1187,5.0697,5.0129,4.9535,4.9505,4.9176,4.8588,4.8517,4.8038,4.7059,4.6969,4.6969,4.6969,4.6969,4.6875,4.671,4.7096,4.6998,4.6282,4.6565,4.642,4.5468,4.5024,4.4823,4.4863,4.6024,4.64,4.5542,4.5063,4.4758,4.4752,4.4926,4.5153,4.5352,4.5448,4.5408,4.5286,4.5368,4.5581,4.5748,4.599,4.6163,4.6476,4.6472,4.6364,4.6086,4.5701,4.5518,4.5846,4.6095,4.5898,4.5557,4.582,4.5415,4.4715,4.4644,4.5052,4.4589,4.524,4.5707,4.5502,4.5693,4.6039,4.625,4.5675,4.5492,4.6236,4.5987,4.5816,4.6172,4.6093,4.6001,4.5855,4.5581,4.5386,4.536,4.5047,4.4747,5.5102,5.5012,5.4371,5.3743,5.3246,5.3139,5.2737,5.2157,5.2097,5.1756,5.1307,5.1217,5.1217,5.1217,5.1217,5.1217,5.1217,5.1217,5.1217,5.1217,5.1217,5.1217,5.1217,5.1217,5.1217,5.1217,5.1337,5.1427,5.1427,5.1385,5.1295,5.1277,5.1247,5.1217,5.1217,5.1217,5.1217,5.1217,5.1146,5.0787,5.0177,5.0117,4.9811,4.9228,4.9228,4.9168,4.8947,4.9048,4.9007,4.9007,4.8977,4.9004,4.8973,4.9052,4.8834,4.8356,4.8323,4.8178,4.7712,4.7651,4.7499,4.7643,4.7709,4.7791,4.7597,4.7593,4.6719,4.5475,4.5702,4.6406,4.6933,4.7299,4.7293,4.6891,4.722,4.7359,4.6625,4.7196,4.7442,4.6484,4.654,4.6048,4.5431,4.5121,4.4946,4.5048,4.51,4.506,4.493,4.497,4.5034,4.4874,4.5518,4.6093,4.6035,4.6274,4.6224,4.6248,4.6328,4.6383,4.6356,4.633,4.6383,4.6121,4.595,4.5623,4.5505,4.5296,4.4956,4.5113,4.4996,4.4825,4.4799,4.4747,4.4721,5.5222,5.5162,5.491,5.4401,5.3832,5.3803,5.3414,5.2797,5.2785,5.2648,5.2336,5.1965,5.1576,5.1217,5.1217,5.1217,5.1217,5.1217,5.1217,5.1217,5.1217,5.1217,5.1217,5.1217,5.1217,5.1247,5.1618,5.1798,5.1786,5.1786,5.1606,5.1236,5.1217,5.1217,5.1217,5.1217,5.1217,5.1217,5.1217,5.1056,5.0847,5.0787,5.0667,5.0451,5.0433,5.02,4.9871,4.9841,4.9841,4.9841,4.9841,5.0002,5.0391,5.0433,5.0337,5.013,4.9546,4.9126,4.8968,4.8371,4.799,4.799,4.8608,4.8708,4.8079,4.8571,4.8283,4.7048,4.7087,4.7442,4.7703,4.7864,4.79,4.7724,4.7864,4.7813,4.7459,4.7725,4.7775,4.7408,4.7344,4.7216,4.6673,4.6085,4.5449,4.4925,4.4734,4.4775,4.4734,4.4721,4.4721,4.4747,4.5153,4.5375,4.5506,4.5767,4.5924,4.5976,4.5976,4.6029,4.6304,4.5807,4.5518,4.5898,4.5492,4.5139,4.506,4.4956,4.4721,4.4721,4.4721,4.4721,4.4721,4.4721,4.4721,5.5222,5.5222,5.5222,5.491,5.4491,5.4478,5.4102,5.3516,5.3486,5.3366,5.3169,5.2677,5.2217,5.1756,5.1588,5.1487,5.1487,5.1666,5.1726,5.1756,5.1726,5.1654,5.1487,5.1487,5.1367,5.1307,5.1666,5.1905,5.1917,5.1935,5.1666,5.1236,5.1217,5.1217,5.1217,5.1217,5.1217,5.1217,5.1217,5.1217,5.1217,5.1217,5.1217,5.1217,5.1217,5.0955,5.0506,5.0476,5.0476,5.0476,5.0488,5.0697,5.1146,5.1217,5.1217,5.117,5.0472,5.0128,5.0298,4.9585,4.9221,4.9468,5.0182,5.0268,4.9733,5.0145,5.0207,4.9613,4.9434,4.9327,4.8499,4.8679,4.8782,4.8534,4.8658,4.8795,4.8509,4.8646,4.8832,4.8521,4.8446,4.8296,4.7953,4.7293,4.653,4.5913,4.5435,4.518,4.51,4.4965,4.4721,4.4748,4.4952,4.5059,4.4816,4.506,4.5322,4.5374,4.5348,4.5492,4.5924,4.5126,4.4747,4.5283,4.4864,4.476,4.4825,4.4747,4.4762,4.4734,4.4776,4.483,4.4721,4.4734,4.4734,5.5222,5.5222,5.5222,5.5149,5.5132,5.5119,5.476,5.4149,5.4149,5.3803,5.3348,5.3186,5.3139,5.3049,5.2456,5.2199,5.2258,5.2737,5.2989,5.2989,5.3007,5.2737,5.2187,5.2157,5.1816,5.1415,5.1487,5.1457,5.1385,5.1307,5.1217,5.1247,5.1217,5.1217,5.1217,5.1217,5.1217,5.1217,5.1217,5.1217,5.1217,5.1217,5.1217,5.1217,5.1217,5.1176,5.1116,5.1158,5.1116,5.1158,5.1116,5.1158,5.1217,5.1206,5.1247,5.1236,5.1177,5.1422,5.1936,5.1863,5.2077,5.2698,5.265,5.2903,5.251,5.2596,5.2608,5.2842,5.2498,5.1765,5.013,5.0467,5.0577,4.9853,5.0489,5.0518,4.9722,5.0486,5.0501,4.988,4.9653,4.9215,4.8258,4.7965,4.7826,4.747,4.688,4.6282,4.6177,4.5462,4.4965,4.5167,4.5622,4.5953,4.5006,4.5084,4.5042,4.4878,4.4956,4.4865,4.4773,4.4721,4.4761,4.4761,4.4747,4.4721,4.4721,4.4762,4.4884,4.4979,4.5167,4.5167,4.5555,4.4965,4.5047,5.5593,5.5222,5.5222,5.5222,5.5222,5.5222,5.5072,5.485,5.485,5.4713,5.4443,5.4024,5.3832,5.3832,5.3581,5.3222,5.2887,5.3097,5.3198,5.3198,5.3198,5.3067,5.2857,5.2857,5.2737,5.2516,5.2486,5.2456,5.2426,5.2067,5.1846,5.1738,5.1397,5.1217,5.1217,5.1217,5.1217,5.1217,5.1217,5.1217,5.1217,5.1217,5.1217,5.1217,5.1217,5.1217,5.1217,5.1217,5.1217,5.1217,5.1217,5.1217,5.1247,5.1606,5.1858,5.1887,5.2247,5.2588,5.2809,5.2857,5.2929,5.3139,5.3198,5.3258,5.3198,5.3198,5.3198,5.3198,5.3198,5.2669,5.2297,5.2275,5.2324,5.207,5.2185,5.2264,5.2082,5.2251,5.23,5.1908,5.1532,5.069,4.9511,4.9046,4.8758,4.8028,4.7074,4.6841,4.7113,4.6464,4.5953,4.6634,4.7113,4.7048,4.5953,4.5821,4.5662,4.4992,4.4747,4.4801,4.4762,4.4965,4.5033,4.5207,4.5073,4.5113,4.5248,4.5675,4.5635,4.5821,4.5993,4.6294,4.6854,4.6347,4.6464,5.5953,5.5521,5.5281,5.5222,5.5222,5.5222,5.5222,5.5222,5.5222,5.5222,5.5102,5.47,5.4508,5.4521,5.4521,5.4281,5.3875,5.3845,5.3845,5.3857,5.3857,5.3737,5.3545,5.3503,5.3396,5.3228,5.3198,5.3198,5.3169,5.2725,5.2516,5.2498,5.1858,5.1517,5.1487,5.1325,5.1217,5.1217,5.1217,5.1217,5.1217,5.1217,5.1217,5.1217,5.1217,5.1217,5.1217,5.1217,5.1217,5.1247,5.1397,5.1606,5.1887,5.2276,5.2528,5.2576,5.2917,5.3306,5.3486,5.3503,5.3635,5.3815,5.3857,5.3857,5.3845,5.3857,5.3845,5.3845,5.3857,5.3845,5.3845,5.3845,5.3677,5.3318,5.3198,5.3198,5.3198,5.3156,5.3169,5.303,5.2695,5.1933,5.1023,5.06,5.0155,4.942,4.826,4.7841,4.822,4.7664,4.71,4.7879,4.8271,4.7981,4.7395,4.7254,4.6216,4.5435,4.5449,4.5315,4.5328,4.5422,4.5582,4.5662,4.5715,4.5741,4.6006,4.6451,4.6738,4.6919,4.71,4.7342,4.7648,4.7826,4.7928,5.6222,5.6119,5.5491,5.5341,5.5401,5.5401,5.5281,5.5371,5.5281,5.5311,5.5311,5.5192,5.5102,5.5162,5.5102,5.5132,5.5042,5.4982,5.4982,5.5012,5.5042,5.473,5.4209,5.4221,5.3922,5.3438,5.3288,5.3288,5.3366,5.3288,5.3204,5.3067,5.2546,5.2217,5.2187,5.1636,5.1277,5.1277,5.1277,5.1217,5.1217,5.1217,5.1217,5.1217,5.1247,5.1307,5.1277,5.1247,5.1247,5.1337,5.1828,5.2498,5.2947,5.3156,5.3216,5.3216,5.3258,5.3575,5.4089,5.4221,5.4461,5.4862,5.5102,5.4982,5.4952,5.4982,5.5012,5.4952,5.4982,5.5072,5.5042,5.5012,5.4563,5.3516,5.3426,5.3426,5.3378,5.3288,5.3228,5.3276,5.3216,5.3198,5.3012,5.2389,5.1863,5.1539,5.0398,4.942,4.9568,4.8781,4.8132,4.8371,4.8981,4.9153,4.8931,4.8608,4.7113,4.5953,4.6282,4.6413,4.653,4.6673,4.6932,4.7035,4.6984,4.7023,4.7074,4.751,4.7867,4.8069,4.8233,4.8484,4.877,4.9042,4.9095,5.7244,5.6808,5.6585,5.6496,5.6509,5.6509,5.6496,5.6466,5.609,5.5893,5.5803,5.5401,5.5222,5.5222,5.5222,5.5222,5.5222,5.5222,5.5222,5.5222,5.5222,5.5102,5.491,5.4892,5.479,5.461,5.4563,5.4563,5.4473,5.4102,5.3892,5.3773,5.3204,5.2917,5.2857,5.2235,5.1887,5.1816,5.1427,5.1217,5.1217,5.1217,5.1217,5.1236,5.1636,5.1876,5.1876,5.1457,5.1427,5.1846,5.2109,5.2498,5.3126,5.3635,5.3892,5.3922,5.4354,5.4623,5.4832,5.488,5.494,5.5162,5.5222,5.5222,5.5222,5.5222,5.5222,5.5222,5.5222,5.5222,5.5222,5.5222,5.4982,5.461,5.4563,5.4503,5.4443,5.4503,5.4354,5.3982,5.3892,5.3713,5.3318,5.2947,5.2887,5.2755,5.1412,5.0566,5.0929,5.0006,4.9537,5.0059,5.0412,5.0268,4.9793,4.9452,4.8596,4.7521,4.7523,4.751,4.7664,4.8019,4.8258,4.8343,4.8292,4.8305,4.8343,4.8571,4.8956,4.9354,4.9623,4.9895,5.0166,5.0303,5.036,5.7859,5.7453,5.7197,5.7094,5.7094,5.7094,5.7094,5.7034,5.6688,5.6539,5.6432,5.6119,5.591,5.588,5.5671,5.5713,5.585,5.57,5.5551,5.5521,5.5281,5.5222,5.5222,5.5222,5.5222,5.5222,5.5192,5.5222,5.5192,5.479,5.4581,5.4461,5.3892,5.3563,5.3503,5.2905,5.2588,5.2516,5.2199,5.1935,5.1947,5.1935,5.1947,5.1995,5.2336,5.2558,5.2528,5.2157,5.2127,5.2546,5.2797,5.3276,5.3905,5.4354,5.4581,5.464,5.491,5.5192,5.5222,5.5162,5.5222,5.5222,5.5222,5.5222,5.5222,5.5222,5.5222,5.5222,5.5222,5.5222,5.5222,5.5222,5.5222,5.5192,5.5162,5.5222,5.5222,5.5222,5.5042,5.467,5.4581,5.4341,5.4084,5.3665,5.3605,5.3363,5.244,5.1488,5.1941,5.1266,5.1191,5.1137,5.0976,5.0716,5.0352,5.0095,4.9938,4.935,4.8894,4.8733,4.8671,4.9293,4.9684,4.9732,4.972,4.974,4.9817,4.9926,5.0232,5.0609,5.0805,5.0929,5.106,5.1464,5.1711,5.8201,5.8098,5.7483,5.7304,5.7304,5.7334,5.7363,5.7274,5.7184,5.7154,5.7154,5.6987,5.6987,5.6928,5.6419,5.6479,5.6898,5.6492,5.6239,5.609,5.573,5.5418,5.5222,5.5222,5.5222,5.5222,5.5222,5.5222,5.5192,5.5132,5.5222,5.5042,5.4508,5.4239,5.4132,5.3575,5.3258,5.3246,5.3156,5.3079,5.3049,5.3109,5.3097,5.3067,5.3186,5.3246,5.3246,5.3276,5.3276,5.3336,5.3832,5.4431,5.5012,5.5179,5.5132,5.5132,5.5192,5.5222,5.5222,5.5222,5.5222,5.5222,5.5222,5.5222,5.5222,5.5222,5.5222,5.5222,5.5222,5.5222,5.5222,5.5222,5.5222,5.5222,5.5222,5.5222,5.5222,5.5222,5.5132,5.5162,5.5192,5.5162,5.4982,5.4521,5.4341,5.4107,5.3597,5.2999,5.2551,5.2168,5.1858,5.1636,5.1397,5.11,5.0716,5.0692,5.052,5.034,4.9938,4.9793,4.9659,5.022,5.0632,5.0728,5.0745,5.0941,5.1059,5.1,5.106,5.1262,5.1446,5.1654,5.2007,5.2396,5.2815,5.9034,5.883,5.865,5.856,5.859,5.856,5.856,5.8487,5.8008,5.7829,5.7739,5.7304,5.7184,5.7094,5.6944,5.6944,5.7077,5.6958,5.6881,5.6838,5.6718,5.603,5.5371,5.5222,5.5222,5.5222,5.5222,5.5222,5.5222,5.5222,5.5222,5.5222,5.4999,5.491,5.4832,5.4264,5.3952,5.3862,5.3438,5.3258,5.3258,5.3258,5.3198,5.3258,5.3695,5.3922,5.3982,5.4401,5.4413,5.4042,5.4581,5.497,5.5192,5.5222,5.5222,5.5222,5.5222,5.5222,5.5222,5.5222,5.5222,5.5222,5.5222,5.5222,5.5222,5.5222,5.5222,5.5222,5.5222,5.5222,5.5222,5.5222,5.5222,5.5222,5.5222,5.5222,5.5222,5.5222,5.5222,5.5222,5.5222,5.5222,5.5162,5.5042,5.488,5.476,5.4371,5.3832,5.3371,5.2785,5.2336,5.1947,5.1666,5.1367,5.117,5.117,5.1123,5.1023,5.087,5.0775,5.0692,5.0846,5.1023,5.1123,5.0999,5.1094,5.1356,5.147,5.1654,5.1858,5.2247,5.2546,5.2905,5.3294,5.3593,5.9463,5.9113,5.9207,5.9274,5.9247,5.914,5.9153,5.9161,5.875,5.8517,5.8427,5.8128,5.7932,5.7902,5.7663,5.7679,5.7872,5.7663,5.7543,5.7423,5.6928,5.6299,5.5713,5.5401,5.5222,5.5222,5.5222,5.5222,5.5222,5.5222,5.5222,5.5222,5.5222,5.5222,5.5149,5.485,5.4598,5.4551,5.4234,5.4024,5.4067,5.4024,5.4054,5.4084,5.4461,5.464,5.467,5.5012,5.5012,5.476,5.4982,5.5222,5.5222,5.5222,5.5222,5.5222,5.5222,5.5222,5.5222,5.5222,5.5341,5.5491,5.5431,5.5414,5.5504,5.5401,5.5222,5.5222,5.5222,5.5222,5.5222,5.5222,5.5222,5.5222,5.5222,5.5222,5.5222,5.5222,5.5222,5.5222,5.5222,5.5222,5.5222,5.5222,5.5222,5.5132,5.488,5.4491,5.4089,5.3414,5.2725,5.2306,5.1977,5.1708,5.1367,5.1307,5.1247,5.1224,5.1325,5.1337,5.1307,5.1277,5.1247,5.1247,5.1217,5.1367,5.1696,5.1995,5.2187,5.2486,5.2977,5.3366,5.3653,5.3892,5.4221,5.9627,5.9113,5.9369,5.9463,5.9395,5.9207,5.9207,5.9369,5.9134,5.9039,5.9039,5.9069,5.8919,5.9069,5.8397,5.8517,5.8966,5.8427,5.8145,5.7679,5.6944,5.6175,5.606,5.5461,5.5222,5.5222,5.5222,5.5222,5.5222,5.5222,5.5222,5.5222,5.5222,5.5222,5.5192,5.5162,5.5192,5.5132,5.5042,5.4952,5.4952,5.4952,5.4922,5.4952,5.5012,5.5102,5.5102,5.5222,5.5162,5.5192,5.5222,5.5222,5.5222,5.5222,5.5222,5.5222,5.5222,5.5222,5.5341,5.5431,5.5641,5.6072,5.585,5.5671,5.6102,5.588,5.5568,5.5431,5.5251,5.5222,5.5222,5.5222,5.5222,5.5222,5.5222,5.5222,5.5222,5.5222,5.5222,5.5222,5.5222,5.5222,5.5222,5.5222,5.5222,5.5222,5.5042,5.488,5.4508,5.4012,5.3264,5.2546,5.2276,5.2067,5.1708,5.1397,5.1307,5.1265,5.1487,5.1546,5.1487,5.1457,5.1367,5.1337,5.1546,5.1876,5.2276,5.2528,5.2797,5.3156,5.3665,5.3922,5.4149,5.4341,5.461,5.9409,5.9099,5.9183,5.918,5.9167,5.9113,5.9126,5.9194,5.9126,5.9099,5.9099,5.9099,5.9099,5.9085,5.8919,5.8966,5.9099,5.8876,5.8637,5.7935,5.6765,5.6252,5.6042,5.5491,5.5222,5.5222,5.5222,5.5222,5.5222,5.5222,5.5222,5.5222,5.5222,5.5222,5.5222,5.5222,5.5222,5.5222,5.5222,5.5222,5.5222,5.5222,5.5222,5.5222,5.5222,5.5222,5.5222,5.5222,5.5222,5.5222,5.5222,5.5222,5.5222,5.5222,5.5222,5.5222,5.5222,5.5401,5.5833,5.5983,5.6269,5.6868,5.7154,5.7334,5.6885,5.6808,5.6449,5.603,5.5521,5.5371,5.5431,5.5281,5.5341,5.5401,5.5311,5.5251,5.5222,5.5222,5.5222,5.5222,5.5222,5.5222,5.5222,5.5222,5.5222,5.5222,5.5192,5.5132,5.485,5.4521,5.3862,5.3084,5.2935,5.2755,5.2276,5.1977,5.1876,5.1786,5.1917,5.1977,5.1947,5.1816,5.1798,5.1876,5.1995,5.2396,5.2875,5.3354,5.3683,5.4012,5.4311,5.4521,5.47,5.485,5.485,5.969,5.9301,5.9288,5.9288,5.9274,5.9153,5.9167,5.9247,5.914,5.9099,5.9099,5.9099,5.9099,5.9099,5.9099,5.9099,5.9099,5.9099,5.856,5.7693,5.6838,5.6329,5.57,5.5431,5.5222,5.5222,5.5222,5.5222,5.5222,5.5222,5.5222,5.5222,5.5222,5.5222,5.5222,5.5222,5.5222,5.5222,5.5222,5.5222,5.5222,5.5222,5.5222,5.5222,5.5222,5.5222,5.5222,5.5222,5.5222,5.5222,5.5222,5.5222,5.5222,5.5222,5.5222,5.5222,5.5222,5.5521,5.6013,5.6295,5.6718,5.7932,5.8128,5.8291,5.8171,5.7992,5.744,5.7034,5.6585,5.6209,5.6496,5.6572,5.6466,5.609,5.582,5.5551,5.5281,5.5222,5.5222,5.5222,5.5222,5.5222,5.5222,5.5222,5.5222,5.5222,5.5222,5.5162,5.5162,5.4832,5.4431,5.3892,5.373,5.3443,5.2917,5.2648,5.2576,5.2558,5.2588,5.2648,5.2648,5.2498,5.2348,5.2486,5.2695,5.3042,5.3533,5.4012,5.4401,5.4653,5.4862,5.5102,5.5162,5.5072,5.5042,5.9969,5.9503,5.9503,5.9503,5.9476,5.9261,5.9288,5.9436,5.9207,5.9099,5.9099,5.9099,5.9099,5.9099,5.9099,5.9099,5.9039,5.868,5.7992,5.7244,5.6718,5.606,5.5418,5.5251,5.5222,5.5222,5.5222,5.5222,5.5222,5.5222,5.5222,5.5222,5.5222,5.5222,5.5222,5.5222,5.5222,5.5222,5.5222,5.5222,5.5222,5.5222,5.5222,5.5222,5.5222,5.5222,5.5222,5.5222,5.5222,5.5222,5.5222,5.5222,5.5222,5.5222,5.5222,5.5222,5.5461,5.603,5.6658,5.6971,5.7766,5.9265,5.9115,5.9235,5.9697,5.9279,5.8637,5.8098,5.7663,5.7423,5.8128,5.8098,5.7872,5.7423,5.6778,5.6119,5.5611,5.5371,5.5222,5.5222,5.5222,5.5222,5.5222,5.5222,5.5222,5.5222,5.5222,5.5222,5.5222,5.5102,5.467,5.4491,5.4281,5.403,5.3533,5.3635,5.3516,5.3126,5.3198,5.3336,5.3366,5.3276,5.3174,5.3246,5.3473,5.3773,5.4072,5.4431,5.479,5.5132,5.5222,5.5222,5.5222,5.5222,5.5222,5.9596,5.9503,5.9503,5.9503,5.9503,5.9449,5.9463,5.9463,5.9247,5.9099,5.9126,5.9113,5.914,5.9126,5.9099,5.9099,5.8903,5.8261,5.7483,5.6915,5.6299,5.5461,5.5311,5.5222,5.5222,5.5222,5.5222,5.5222,5.5222,5.5222,5.5222,5.5222,5.5222,5.5222,5.5222,5.5222,5.5222,5.5222,5.5222,5.5222,5.5222,5.5222,5.5222,5.5222,5.5222,5.5222,5.5222,5.5222,5.5222,5.5222,5.5222,5.5222,5.5222,5.5222,5.5222,5.5401,5.6119,5.6838,5.75,5.871,5.9711,6.0655,6.0954,6.0954,6.0984,6.0655,5.9923,5.9056,5.8517,5.8308,5.886,5.9129,5.8979,5.853,5.7752,5.6928,5.6555,5.5927,5.5281,5.5222,5.5222,5.5222,5.5222,5.5222,5.5222,5.5222,5.5222,5.5222,5.5222,5.5102,5.488,5.476,5.473,5.4461,5.4162,5.4461,5.4533,5.3785,5.3725,5.4012,5.4042,5.4042,5.4042,5.4042,5.4102,5.4311,5.461,5.485,5.4999,5.5192,5.5222,5.5222,5.5222,5.5222,5.5222,5.9969,5.9942,5.981,5.976,5.976,5.9773,5.976,5.9716,5.9627,5.956,5.9573,5.956,5.9436,5.9342,5.9315,5.9247,5.884,5.8141,5.7453,5.6944,5.6179,5.5491,5.5251,5.5222,5.5222,5.5222,5.5222,5.5222,5.5222,5.5222,5.5222,5.5222,5.5222,5.5222,5.5222,5.5222,5.5222,5.5222,5.5222,5.5222,5.5222,5.5222,5.5222,5.5222,5.5222,5.5222,5.5222,5.5222,5.5222,5.5222,5.5222,5.5222,5.5222,5.5222,5.5222,5.5448,5.6449,5.7423,5.8188,5.9338,6.0459,6.1463,6.1972,6.2151,6.2032,6.1732,6.0984,6.0086,6.0252,6.0133,6.0192,6.0386,6.0475,5.9997,5.8919,5.7902,5.7137,5.6239,5.57,5.5281,5.5222,5.5222,5.5222,5.5222,5.5222,5.5222,5.5222,5.5222,5.5222,5.5132,5.5012,5.5012,5.497,5.485,5.464,5.485,5.5102,5.4503,5.4204,5.4491,5.464,5.461,5.467,5.473,5.482,5.479,5.491,5.5072,5.5162,5.5222,5.5222,5.5222,5.5222,5.5222,5.5222,6.039,6.0377,6.0171,6.0065,6.0065,6.0096,6.0065,6.0065,6.0029,5.9959,5.9986,5.9959,5.9827,5.9623,5.9503,5.9382,5.909,5.8331,5.7543,5.7004,5.6239,5.5641,5.5341,5.5222,5.5222,5.5222,5.5222,5.5222,5.5222,5.5222,5.5222,5.5222,5.5222,5.5222,5.5222,5.5222,5.5222,5.5222,5.5222,5.5222,5.5222,5.5222,5.5222,5.5222,5.5222,5.5222,5.5222,5.5222,5.5222,5.5222,5.5222,5.5222,5.5222,5.5222,5.5281,5.5568,5.6718,5.7709,5.8667,6.0057,6.1417,6.2211,6.2315,6.2614,6.2614,6.2151,6.1447,6.0908,6.0819,6.1403,6.118,6.1688,6.1702,6.115,6.0057,5.88,5.7603,5.6615,5.582,5.5491,5.5311,5.5222,5.5222,5.5222,5.5222,5.5222,5.5222,5.5222,5.5222,5.5222,5.5132,5.5162,5.5162,5.5162,5.5072,5.5042,5.5162,5.4952,5.4773,5.4922,5.5042,5.5102,5.5132,5.5059,5.5102,5.5072,5.5192,5.5222,5.5222,5.5222,5.5222,5.5222,5.5222,5.5222,5.5222,6.039,6.0403,6.0364,6.0351,6.0351,6.0338,6.0351,6.0311,6.0118,5.9986,6.0065,6.0012,5.9999,5.9853,5.957,5.9476,5.8978,5.8008,5.7214,5.6825,5.594,5.5371,5.5209,5.5222,5.5222,5.5222,5.5222,5.5222,5.5222,5.5222,5.5222,5.5222,5.5222,5.5222,5.5222,5.5222,5.5222,5.5222,5.5222,5.5222,5.5222,5.5222,5.5222,5.5222,5.5222,5.5222,5.5222,5.5222,5.5222,5.5222,5.5222,5.5222,5.5222,5.5222,5.5551,5.6389,5.7706,5.9145,5.9787,6.1208,6.2299,6.2674,6.2868,6.2988,6.2824,6.2211,6.1613,6.1912,6.1208,6.0998,6.1613,6.1972,6.2032,6.1583,6.0715,5.9398,5.8128,5.6974,5.6179,5.5491,5.5222,5.5222,5.5222,5.5222,5.5222,5.5222,5.5222,5.5222,5.5222,5.5222,5.5222,5.5222,5.5222,5.5222,5.5222,5.5222,5.5222,5.5222,5.5222,5.5222,5.5222,5.5222,5.5192,5.5162,5.5222,5.5222,5.5222,5.5222,5.5222,5.5222,5.5222,5.5222,5.5222,5.5222,5.5222,6.0625,6.0625,6.0638,6.0625,6.0625,6.0625,6.0612,6.0599,6.0525,6.046,6.046,6.0429,6.0289,5.9973,5.9489,5.9021,5.8558,5.7622,5.6898,5.6521,5.5726,5.5234,5.5222,5.5222,5.5222,5.5229,5.5192,5.5222,5.5222,5.5204,5.5222,5.5222,5.5222,5.5222,5.5222,5.5222,5.5222,5.5222,5.5222,5.5222,5.5222,5.5222,5.5222,5.5222,5.5222,5.5222,5.5222,5.5222,5.5222,5.5222,5.5222,5.5222,5.5222,5.5281,5.5611,5.6718,5.7782,5.8756,5.9608,6.1477,6.2285,6.2674,6.2824,6.3078,6.2988,6.2525,6.1762,6.1479,6.1403,6.1373,6.1523,6.1882,6.2046,6.1776,6.0984,5.9624,5.8367,5.7453,5.6509,5.582,5.5222,5.5222,5.5222,5.5222,5.5222,5.5222,5.5222,5.5222,5.5222,5.5222,5.5222,5.5222,5.5222,5.5222,5.5222,5.5222,5.5222,5.5222,5.5222,5.5222,5.5222,5.5222,5.5222,5.5222,5.5222,5.5222,5.5222,5.5222,5.5222,5.5222,5.5222,5.5222,5.5222,5.5222,5.5222,6.0794,6.0794,6.0794,6.0794,6.0794,6.0794,6.0794,6.0794,6.0781,6.0781,6.0794,6.0768,6.0564,6.0184,5.9713,5.9211,5.8469,5.7607,5.6946,5.6299,5.5733,5.5398,5.5443,5.5431,5.5431,5.5393,5.5468,5.5468,5.5443,5.5406,5.5381,5.5204,5.5222,5.5222,5.5222,5.5222,5.5222,5.5222,5.5222,5.5222,5.5222,5.5222,5.5222,5.5222,5.5222,5.5222,5.5222,5.5222,5.5222,5.5222,5.5222,5.5222,5.5222,5.5461,5.6,5.6928,5.7799,5.8474,5.9444,6.0745,6.1657,6.2002,6.2181,6.2405,6.2465,6.2495,6.2106,6.0894,6.0835,6.0894,6.1044,6.1313,6.1327,6.1253,6.0954,5.9594,5.8308,5.7393,5.6479,5.5671,5.5222,5.5222,5.5222,5.5222,5.5222,5.5222,5.5222,5.5222,5.5222,5.5222,5.5222,5.5222,5.5222,5.5222,5.5222,5.5222,5.5222,5.5222,5.5222,5.5222,5.5222,5.5222,5.5222,5.5222,5.5222,5.5222,5.5222,5.5222,5.5222,5.5222,5.5222,5.5222,5.5222,5.5222,5.5222,6.0794,6.0794,6.0794,6.0794,6.0794,6.0794,6.0794,6.0794,6.0794,6.0794,6.0794,6.0781,6.0716,6.0555,6.0163,5.9671,5.9152,5.8075,5.7242,5.6589,5.6051,5.5754,5.5768,5.5842,5.588,5.588,5.583,5.5842,5.5904,5.5805,5.5581,5.5267,5.5343,5.5255,5.5242,5.5292,5.5229,5.5204,5.5222,5.5222,5.5222,5.5222,5.5222,5.5222,5.5222,5.5222,5.5222,5.5222,5.5222,5.5222,5.5222,5.5341,5.5431,5.5743,5.6372,5.7184,5.7769,5.8427,5.9295,6.0266,6.1,6.121,6.1329,6.1509,6.1583,6.0819,6.031,6.034,6.025,6.0057,6.0116,6.025,6.0549,6.0549,6.0266,5.9189,5.8038,5.7334,5.6419,5.5551,5.5222,5.5222,5.5222,5.5222,5.5222,5.5222,5.5222,5.5222,5.5222,5.5222,5.5222,5.5222,5.5222,5.5222,5.5222,5.5222,5.5222,5.5222,5.5222,5.5222,5.5222,5.5222,5.5222,5.5222,5.5222,5.5222,5.5222,5.5222,5.5222,5.5222,5.5222,5.5222,5.5222,5.5222,5.5222,6.0794,6.0794,6.0794,6.0794,6.0794,6.0794,6.0794,6.0794,6.0794,6.0794,6.0781,6.0638,6.0547,6.039,5.974,5.914,5.847,5.7605,5.6973,5.6445,5.5995,5.5917,5.6003,5.604,5.6003,5.6028,5.6028,5.6003,5.5991,5.6065,5.5942,5.5731,5.5693,5.5706,5.5668,5.5481,5.5355,5.5217,5.5192,5.5222,5.5222,5.5222,5.5222,5.5222,5.5222,5.5222,5.5222,5.5222,5.5222,5.5222,5.5222,5.5401,5.57,5.6102,5.6718,5.75,5.8008,5.8457,5.9026,5.9967,6.0611,6.106,6.112,6.106,6.094,6.0775,6.0459,6.019,5.9831,5.9757,5.998,6.01,6.016,6.001,5.9472,5.856,5.7752,5.7034,5.6316,5.5431,5.5222,5.5222,5.5222,5.5222,5.5222,5.5222,5.5222,5.5222,5.5222,5.5222,5.5222,5.5222,5.5222,5.5222,5.5222,5.5222,5.5222,5.5222,5.5222,5.5222,5.5222,5.5222,5.5222,5.5222,5.5222,5.5222,5.5222,5.5222,5.5222,5.5222,5.5222,5.5222,5.5222,5.5222,5.5222,6.0794,6.0794,6.0794,6.0794,6.0794,6.0794,6.0794,6.0794,6.0794,6.0794,6.0781,6.0599,6.0521,6.0289,5.9897,5.9013,5.8441,5.7699,5.698,5.6493,5.6219,5.6188,5.6213,5.6262,5.6323,5.6237,5.625,5.6274,5.6299,5.625,5.625,5.625,5.6225,5.6176,5.5904,5.5731,5.5506,5.5355,5.5217,5.5204,5.5222,5.5222,5.5222,5.5222,5.5222,5.5222,5.5222,5.5222,5.5222,5.5222,5.5281,5.5564,5.5983,5.6479,5.7064,5.7739,5.8324,5.8637,5.9099,5.9518,5.9983,6.0252,6.0372,6.0402,6.0492,6.0521,5.9997,5.9831,5.9741,5.9801,5.9801,5.9711,5.9681,5.9561,5.9056,5.8218,5.7453,5.6718,5.606,5.5299,5.5281,5.5222,5.5222,5.5222,5.5222,5.5222,5.5222,5.5222,5.5222,5.5222,5.5222,5.5222,5.5222,5.5222,5.5222,5.5222,5.5222,5.5222,5.5222,5.5222,5.5222,5.5222,5.5222,5.5222,5.5222,5.5222,5.5222,5.5222,5.5222,5.5222,5.5222,5.5222,5.5222,5.5222,5.5222,6.0871,6.0794,6.0832,6.0845,6.0807,6.0794,6.0794,6.0794,6.0794,6.0794,6.0794,6.0755,6.0693,6.0619,6.0252,5.9484,5.8586,5.8154,5.7572,5.6763,5.647,5.6555,5.6628,5.6677,5.6616,5.6737,5.6677,5.664,5.6713,5.664,5.6677,5.6677,5.6604,5.647,5.6028,5.5743,5.5606,5.5556,5.5355,5.5305,5.5305,5.5318,5.5318,5.533,5.5343,5.5355,5.531,5.528,5.5255,5.5222,5.5222,5.5593,5.6252,5.6748,5.7363,5.8128,5.8726,5.9009,5.9129,5.9145,5.9265,5.9415,5.9608,5.9518,5.9308,5.9249,5.9295,5.9189,5.9205,5.9189,5.9159,5.9129,5.9129,5.8919,5.8427,5.7769,5.6987,5.6449,5.5755,5.5362,5.5264,5.5222,5.5222,5.5222,5.5222,5.5222,5.5222,5.5192,5.5192,5.5222,5.5222,5.5222,5.5222,5.5222,5.5222,5.5222,5.5222,5.5222,5.5222,5.5222,5.5222,5.5222,5.5222,5.5222,5.5222,5.5222,5.5222,5.5222,5.5222,5.5222,5.5222,5.5222,5.5222,5.5222,5.5222,6.2009,6.0871,6.1513,6.1417,6.0858,6.0794,6.0794,6.0794,6.0794,6.0794,6.0794,6.0794,6.0517,6.0191,5.9637,5.9052,5.8226,5.7519,5.6946,5.6841,5.6677,5.6713,5.6773,5.6785,5.6785,5.6785,5.6785,5.6785,5.6773,5.6785,5.6785,5.6785,5.6773,5.6604,5.6348,5.6139,5.6077,5.5892,5.578,5.5743,5.5731,5.5706,5.5693,5.5706,5.5693,5.5618,5.5468,5.5468,5.5393,5.528,5.5297,5.5777,5.6573,5.7129,5.7685,5.8454,5.9083,5.9099,5.9099,5.9129,5.9129,5.9126,5.9113,5.9113,5.9099,5.9099,5.8876,5.8753,5.9003,5.893,5.8577,5.8487,5.8441,5.8201,5.7693,5.6987,5.6321,5.6007,5.5589,5.5403,5.528,5.5322,5.5322,5.5368,5.5368,5.533,5.5343,5.5229,5.5204,5.5192,5.5222,5.5222,5.5222,5.5222,5.5222,5.5222,5.5222,5.5222,5.5222,5.5222,5.5222,5.5222,5.5222,5.5222,5.5222,5.5222,5.5222,5.5222,5.5222,5.5222,5.5222,5.5222,5.5222,5.5222,5.5222,6.3024,6.1959,6.2534,6.246,6.1759,6.1098,6.0794,6.0794,6.0794,6.0794,6.0732,6.0578,6.024,5.9698,5.9113,5.8436,5.7771,5.7401,5.6878,5.6847,5.6785,5.6785,5.6785,5.6785,5.6785,5.6785,5.6785,5.6785,5.6785,5.6785,5.6785,5.6785,5.6785,5.6701,5.6543,5.6433,5.6299,5.6127,5.6028,5.5954,5.5954,5.5966,5.5979,5.5979,5.5954,5.5904,5.578,5.5706,5.5656,5.5506,5.5636,5.61,5.6959,5.7544,5.8115,5.8974,5.9426,5.9439,5.9466,5.9466,5.9493,5.9479,5.9247,5.9153,5.9207,5.9274,5.9,5.891,5.9081,5.8921,5.8597,5.8448,5.8308,5.8111,5.7451,5.6758,5.6234,5.5978,5.5734,5.5536,5.5443,5.5443,5.5456,5.5518,5.5593,5.5543,5.5493,5.5381,5.5255,5.5229,5.5217,5.5222,5.5222,5.5222,5.5222,5.5222,5.5222,5.5222,5.5222,5.5222,5.5222,5.5222,5.5222,5.5222,5.5222,5.5222,5.5222,5.5222,5.5222,5.5222,5.5222,5.5222,5.5222,5.5251,5.5311,6.3879,6.382,6.3844,6.3764,6.3431,6.1747,6.0946,6.0892,6.0913,6.0908,6.0805,6.0273,6.0085,5.9791,5.9166,5.8499,5.7851,5.7684,5.726,5.6909,5.6785,5.6785,5.6785,5.6785,5.6785,5.6785,5.6785,5.6785,5.6785,5.6785,5.6785,5.6785,5.6785,5.6761,5.6677,5.6579,5.6458,5.6372,5.6274,5.6213,5.6213,5.6139,5.6176,5.6188,5.6164,5.6114,5.604,5.6003,5.5979,5.5942,5.5972,5.6773,5.7436,5.7947,5.8815,5.9548,5.9933,5.9923,5.9866,5.984,5.992,5.984,5.9506,5.9382,5.9392,5.9426,5.9088,5.9088,5.9272,5.9228,5.9105,5.8991,5.8847,5.8335,5.7673,5.705,5.6511,5.6159,5.5901,5.5743,5.5681,5.5681,5.5731,5.5793,5.5818,5.578,5.5731,5.5643,5.5518,5.533,5.5292,5.5222,5.5222,5.5222,5.5192,5.5204,5.5222,5.5222,5.5222,5.5222,5.5222,5.5222,5.5222,5.5222,5.5222,5.5222,5.5222,5.5222,5.5222,5.5222,5.5222,5.5222,5.5222,5.5444,5.5564,6.5081,6.3926,6.4572,6.4458,6.3676,6.2599,6.2065,6.1878,6.2046,6.1816,6.1063,6.1086,6.0673,6.032,5.9483,5.8739,5.8085,5.7454,5.7067,5.6877,5.7014,5.6858,5.681,5.6834,5.681,5.6785,5.6785,5.6785,5.6785,5.6785,5.6785,5.6785,5.6785,5.6785,5.6761,5.6713,5.6677,5.664,5.6531,5.6506,5.6506,5.6494,5.6506,5.6494,5.6494,5.6433,5.6323,5.6286,5.6225,5.6077,5.6028,5.652,5.7084,5.7735,5.8585,5.9773,5.9973,5.9973,5.9986,5.9999,6.0078,6.021,5.9946,5.9827,5.9705,5.9463,5.9195,5.9181,5.926,5.9238,5.9085,5.8978,5.8688,5.8071,5.7492,5.7041,5.6516,5.622,5.5991,5.5979,5.5917,5.5954,5.6003,5.6028,5.604,5.6028,5.5991,5.5917,5.578,5.5606,5.5468,5.5368,5.5318,5.5355,5.5242,5.5229,5.5204,5.5222,5.5222,5.5222,5.5222,5.5222,5.5222,5.5222,5.5222,5.5222,5.5222,5.5222,5.5222,5.5222,5.5222,5.5222,5.5251,5.5534,5.5863,6.5837,6.5082,6.5303,6.5082,6.4497,6.3771,6.3146,6.2672,6.2407,6.1866,6.1391,6.1195,6.0954,6.0507,5.9754,5.9143,5.879,5.8427,5.8107,5.8049,5.7519,5.746,5.733,5.7007,5.6798,5.681,5.681,5.6785,5.6834,5.681,5.6785,5.6785,5.6785,5.6785,5.6785,5.6773,5.6773,5.6773,5.6773,5.6785,5.6785,5.6785,5.6785,5.6785,5.6785,5.6689,5.6579,5.6543,5.6445,5.6335,5.6323,5.6616,5.7258,5.7985,5.8443,5.9482,5.9788,5.9862,5.9953,6.0246,6.0372,6.0442,6.0377,6.0368,6.0019,5.9718,5.9301,5.9045,5.914,5.917,5.8988,5.8758,5.8216,5.7661,5.7269,5.6888,5.6547,5.6255,5.6176,5.6188,5.6201,5.6225,5.625,5.6262,5.6323,5.6384,5.6372,5.6299,5.6127,5.5904,5.578,5.5681,5.5606,5.5568,5.5443,5.533,5.5318,5.5292,5.5222,5.5222,5.5192,5.5222,5.5222,5.5222,5.5222,5.5222,5.5222,5.5222,5.5222,5.5222,5.5222,5.5222,5.5371,5.573,5.609,6.599,6.6424,6.5899,6.5501,6.5483,6.4683,6.3902,6.3073,6.2168,6.1642,6.1522,6.1039,6.0913,6.087,6.0217,5.9859,5.9608,5.9334,5.9078,5.9553,5.8671,5.8306,5.8072,5.7566,5.7606,5.7234,5.7127,5.7464,5.7043,5.7043,5.711,5.6834,5.6785,5.6785,5.6785,5.6785,5.6785,5.6785,5.6785,5.6785,5.6785,5.6785,5.6785,5.6785,5.6785,5.6773,5.6773,5.6785,5.6785,5.6785,5.6866,5.7076,5.7709,5.8189,5.8558,5.8927,5.9387,5.965,5.9883,6.019,6.0536,6.065,6.0719,6.0518,6.0095,5.9588,5.9116,5.9051,5.9162,5.8912,5.8713,5.8774,5.8456,5.7881,5.7417,5.7008,5.6647,5.6427,5.6335,5.6372,5.6433,5.6458,5.6433,5.6445,5.6531,5.6677,5.6689,5.6592,5.647,5.6225,5.6065,5.5954,5.5842,5.5768,5.5693,5.5593,5.5506,5.5431,5.533,5.528,5.5343,5.528,5.5222,5.5222,5.5222,5.5222,5.5222,5.5222,5.5222,5.5222,5.5222,5.5222,5.5461,5.588,5.6359,6.4952,6.5121,6.4952,6.4884,6.4749,6.4062,6.3647,6.3323,6.2568,6.2091,6.1921,6.1921,6.1896,6.1688,6.0994,6.0673,6.0578,6.0237,5.9696,5.9707,5.9367,5.9256,5.9201,5.8841,5.8773,5.8942,5.8863,5.8409,5.7968,5.777,5.746,5.6906,5.6822,5.6785,5.6785,5.6785,5.6785,5.6785,5.6785,5.6785,5.6785,5.6785,5.6785,5.6785,5.6785,5.6785,5.6785,5.6785,5.6785,5.6785,5.6785,5.7155,5.7771,5.7956,5.8294,5.8726,5.8867,5.9206,5.9532,5.9883,6.016,6.0363,6.0363,6.016,5.9796,5.9253,5.9,5.9054,5.898,5.866,5.8476,5.8593,5.8618,5.8041,5.7525,5.7132,5.675,5.6634,5.6506,5.6555,5.6628,5.664,5.6616,5.6652,5.6749,5.6785,5.6773,5.6737,5.6713,5.6555,5.6323,5.6188,5.604,5.5954,5.5917,5.5867,5.5793,5.5706,5.5618,5.5556,5.5493,5.5381,5.531,5.5247,5.5222,5.5222,5.5222,5.5222,5.5222,5.5222,5.5222,5.5222,5.5611,5.603,5.6555,6.4309,6.4546,6.4231,6.4096,6.3961,6.3318,6.3024,6.2956,6.2594,6.2316,6.2225,6.2346,6.2424,6.2424,6.183,6.1564,6.1493,6.1154,6.1059,6.0882,6.0365,6.0259,6.0119,5.9881,5.9499,5.9576,5.9586,5.9222,5.8841,5.828,5.7793,5.7353,5.7115,5.6785,5.6785,5.6785,5.6785,5.6785,5.6785,5.6785,5.6785,5.6785,5.6785,5.6785,5.6785,5.6785,5.6785,5.6785,5.6785,5.6785,5.6785,5.6878,5.7229,5.7321,5.7525,5.7832,5.814,5.8497,5.8898,5.9236,5.9544,5.9698,5.9698,5.936,5.9236,5.8737,5.838,5.8404,5.8343,5.8084,5.782,5.7876,5.7783,5.7402,5.7205,5.6952,5.678,5.6744,5.6652,5.6664,5.6713,5.6725,5.6713,5.6713,5.6785,5.6785,5.6785,5.6785,5.6785,5.6785,5.6592,5.6445,5.6299,5.6213,5.6188,5.6151,5.609,5.6003,5.5904,5.5743,5.5606,5.5481,5.5398,5.5292,5.5229,5.5222,5.5222,5.5222,5.5222,5.5222,5.5222,5.5222,5.5671,5.6137,5.6705,6.3724,6.4208,6.3622,6.3386,6.3274,6.2685,6.2424,6.2424,6.2424,6.2424,6.2379,6.2385,6.2424,6.2424,6.2424,6.2424,6.2272,6.1961,6.2154,6.1981,6.1462,6.1278,6.0914,6.0525,6.0429,6.0333,6.0312,6.0065,5.9762,5.9077,5.8452,5.8084,5.746,5.6785,5.6798,5.6785,5.6785,5.6785,5.6785,5.6785,5.6785,5.6785,5.6785,5.6785,5.6785,5.6785,5.6785,5.6785,5.6785,5.6785,5.6785,5.6847,5.6878,5.6952,5.6921,5.7186,5.7475,5.774,5.8048,5.8448,5.8695,5.8849,5.8744,5.8621,5.8497,5.8233,5.7832,5.7709,5.7678,5.7555,5.7321,5.7198,5.7106,5.7044,5.6921,5.6859,5.6828,5.6785,5.6773,5.6761,5.6773,5.6785,5.6785,5.6785,5.6785,5.6785,5.6785,5.6785,5.6785,5.6785,5.6701,5.6652,5.6592,5.6519,5.647,5.6409,5.636,5.6286,5.6176,5.5942,5.5743,5.5681,5.5556,5.5343,5.5292,5.528,5.5217,5.5222,5.5222,5.5222,5.5222,5.5251,5.5521,5.6047,5.6765,6.2695,6.2797,6.2661,6.2618,6.2594,6.2458,6.2424,6.2424,6.2424,6.2424,6.2424,6.2424,6.2424,6.2424,6.2424,6.2424,6.2424,6.2424,6.2424,6.2263,6.205,6.206,6.1941,6.1503,6.18,6.1709,6.1473,6.137,6.0725,5.9794,5.8965,5.8395,5.7413,5.6942,5.6894,5.6906,5.6954,5.6954,5.6834,5.6785,5.6785,5.6785,5.6785,5.6785,5.6785,5.6785,5.6785,5.6785,5.6785,5.6785,5.6785,5.6785,5.6785,5.6785,5.6785,5.6816,5.7075,5.729,5.7617,5.7832,5.8079,5.8418,5.8294,5.7986,5.7771,5.7463,5.7217,5.7124,5.7093,5.7093,5.6952,5.6952,5.689,5.689,5.6828,5.6828,5.6785,5.6785,5.6785,5.6773,5.6785,5.6785,5.6785,5.6785,5.6785,5.6785,5.6785,5.6785,5.6785,5.6785,5.6785,5.6785,5.6785,5.6785,5.6713,5.6664,5.6616,5.6555,5.6445,5.6213,5.6053,5.5954,5.5805,5.5518,5.5418,5.5418,5.5343,5.5222,5.5222,5.5222,5.5222,5.5281,5.5521,5.6017,5.6795]}]]